GFSNW_925_rhum_000.txt.gz
RH
73 67 69 82 88 88 91 97 97 99 100 98 98 94 68 60 90 79 76 70 66 75 83 95 89 86 72 66 76 87 80 98 95 85 72 64 64 70 75 86 84 84 88 58
75 65 73 82 93 96 97 98 96 100 85 100 99 79 72 71 92 92 85 83 72 72 81 87 89 80 60 69 78 87 80 99 98 95 88 84 94 79 64 66 77 83 84 50
78 65 71 85 96 86 100 96 100 98 97 90 76 76 77 79 66 76 73 77 75 82 86 82 82 83 62 68 70 65 68 100 97 86 94 96 99 88 78 74 94 74 69 55
76 67 71 88 98 82 100 94 98 91 99 97 73 67 75 80 82 75 74 85 80 90 99 89 92 77 69 70 64 76 92 100 100 94 81 99 100 97 85 93 77 76 55 52
72 67 71 87 94 92 96 99 95 89 86 74 73 78 87 82 76 82 86 87 76 86 96 79 71 77 76 80 72 81 92 98 100 98 96 96 100 95 97 94 73 66 59 59
69 71 71 82 97 95 94 91 94 75 79 82 81 82 80 76 73 73 77 81 87 90 80 74 70 63 71 72 78 96 98 100 100 94 92 98 98 89 80 77 79 61 73 58
72 72 74 82 96 99 98 91 99 93 93 80 75 74 70 82 79 79 80 77 86 69 71 70 75 82 82 82 80 79 98 100 100 98 100 98 79 76 70 73 70 64 52 63
75 74 75 82 93 98 100 99 100 97 91 73 72 78 81 73 79 86 85 75 74 74 83 95 91 87 86 82 85 87 80 99 100 100 99 81 84 84 77 79 77 60 63 56
80 76 80 82 91 94 98 94 100 99 90 83 62 75 84 95 95 94 89 77 85 88 96 94 86 92 76 86 82 82 90 82 98 92 98 73 56 84 81 74 95 65 63 63
81 78 82 81 87 92 96 98 100 100 93 83 74 78 84 83 87 89 88 86 91 87 95 96 98 96 74 92 88 84 93 96 96 88 84 78 58 59 71 88 64 60 65 65
82 80 82 78 84 90 96 90 98 100 97 86 70 74 89 88 84 88 92 93 98 99 99 99 98 99 90 86 72 85 89 88 86 91 91 72 56 60 71 58 57 62 67 70
83 80 82 79 79 91 93 92 84 100 100 89 86 73 67 67 68 84 91 89 93 92 97 94 90 94 93 87 88 78 90 75 77 78 72 57 56 58 57 60 64 65 74 80
82 81 84 80 82 88 96 92 91 92 98 90 91 85 75 73 70 65 91 94 87 96 98 96 92 89 90 92 88 81 73 74 79 71 58 63 55 58 62 69 68 73 79 74
84 84 79 81 84 90 94 96 86 96 99 97 86 84 85 85 82 78 77 91 97 98 99 98 94 88 81 86 80 84 79 70 73 74 66 60 57 61 73 81 78 75 73 69
77 76 78 80 85 91 90 79 74 77 99 99 96 87 96 96 95 94 93 95 97 98 99 98 97 90 89 93 88 89 78 76 74 80 64 59 58 71 73 76 77 70 70 71
76 75 74 79 85 92 92 97 100 100 100 100 93 92 98 100 99 98 97 97 98 99 98 98 96 83 86 95 95 72 72 68 66 64 62 76 78 73 67 76 74 69 69 65
74 79 77 79 83 88 93 89 97 89 95 100 100 96 95 95 88 94 99 98 98 99 93 99 97 94 89 94 95 68 70 68 64 68 69 69 68 71 74 73 77 75 76 71
72 78 83 87 94 91 94 80 76 79 99 99 100 100 97 95 98 99 97 98 98 99 97 97 97 91 90 98 83 73 71 77 76 71 70 65 79 81 81 75 69 72 76 75
80 84 87 97 88 92 92 95 99 88 99 98 99 99 99 96 97 95 99 97 99 97 98 98 97 95 98 82 78 78 78 71 80 83 80 78 77 81 76 70 68 70 78 80
76 88 91 98 92 76 85 99 99 100 100 99 99 91 96 93 98 100 97 96 99 100 96 93 99 97 78 75 68 65 74 78 76 80 89 87 86 82 75 68 64 66 71 76
95 98 98 92 86 98 99 100 100 100 100 99 98 93 92 94 97 96 94 99 99 99 92 98 98 94 86 78 82 77 74 71 67 61 66 65 66 71 69 70 69 70 69 75
96 98 98 99 99 100 100 100 100 97 96 98 98 98 90 96 90 93 94 97 98 91 93 99 97 88 82 81 82 81 77 72 67 66 69 68 64 61 63 68 69 72 73 71
92 96 100 99 99 98 99 98 99 100 100 100 99 98 94 92 89 96 92 95 91 88 98 96 93 91 82 80 86 86 82 73 71 71 67 64 72 67 66 77 76 71 70 68
94 98 93 98 97 99 99 99 100 95 100 100 96 97 95 87 93 92 96 93 90 99 100 90 90 87 80 86 88 88 83 74 73 72 71 74 75 83 80 79 75 72 75 73
91 97 96 98 100 99 99 100 100 97 100 96 92 94 81 95 95 90 95 97 98 97 90 89 90 90 92 91 88 86 80 79 82 80 77 82 81 83 91 84 76 77 78 75
98 97 98 94 97 97 93 99 99 96 99 96 96 91 90 88 93 96 98 98 97 83 92 92 93 84 88 89 87 84 80 77 74 73 73 76 79 82 90 86 81 76 72 71
86 98 96 96 96 98 98 97 94 84 99 100 96 89 81 91 99 96 91 88 84 89 93 99 98 96 91 88 85 82 77 76 74 72 73 79 82 79 77 81 76 69 66 64

GFSNW_925_rhum_003.txt.gz
RH
78 82 73 71 85 94 92 95 98 91 91 98 99 100 69 64 83 77 78 69 71 76 73 85 84 81 68 66 80 93 78 90 98 83 70 65 64 72 72 90 88 88 83 60
81 80 68 76 87 97 98 97 95 94 81 99 100 88 78 75 90 88 78 80 75 74 81 90 86 82 64 74 75 87 85 99 97 88 87 77 97 80 71 69 77 86 84 58
83 70 72 77 87 98 100 96 100 99 94 91 90 80 82 81 72 86 78 81 76 84 87 75 87 87 66 69 72 66 71 94 94 77 78 98 99 82 85 96 94 74 72 60
83 72 76 77 84 91 100 98 99 90 99 98 76 72 73 85 85 74 74 82 76 81 93 88 97 89 76 74 70 74 84 98 97 93 79 94 100 95 86 98 81 79 57 57
82 72 79 77 83 96 95 99 95 90 95 81 70 79 78 78 78 81 87 83 74 79 89 70 82 78 80 75 78 84 86 99 100 97 94 97 99 98 92 84 78 74 66 66
83 74 77 79 84 98 93 92 91 94 81 79 78 83 80 82 74 72 78 77 79 87 80 68 69 68 68 72 75 87 98 99 100 91 90 100 97 93 94 88 78 76 84 60
80 80 80 83 87 96 99 95 100 96 94 77 73 72 71 78 76 83 82 78 86 74 75 75 84 86 94 89 84 75 98 100 100 97 98 98 94 74 70 75 62 68 62 54
81 82 82 83 86 90 100 99 99 99 92 75 71 75 72 68 74 83 81 78 74 73 85 92 97 93 91 90 90 90 83 98 100 100 100 88 63 72 78 79 77 59 69 63
83 84 82 82 84 87 95 99 100 100 97 85 61 72 81 93 93 94 87 84 88 88 96 96 100 93 78 85 79 92 87 88 100 100 98 94 52 82 65 69 73 61 57 59
82 84 81 84 82 86 92 96 99 99 99 84 70 82 89 83 88 89 86 86 90 89 95 100 100 94 73 89 85 95 98 98 99 97 96 80 62 65 71 77 67 65 64 57
83 81 81 88 84 86 91 84 94 99 98 90 76 79 88 88 87 89 87 94 96 99 99 99 99 90 90 89 72 86 87 97 96 92 94 76 60 74 80 61 61 64 69 74
82 80 83 84 82 83 90 88 79 91 99 95 89 79 73 66 69 84 89 87 88 92 98 97 94 97 90 89 88 79 93 75 78 81 71 56 59 63 59 64 68 64 70 77
76 76 76 78 78 82 91 92 89 87 99 90 91 84 74 73 70 65 90 94 81 93 98 99 92 98 86 94 92 81 76 76 83 72 60 66 64 57 61 76 71 73 75 74
74 73 76 78 79 82 88 96 92 88 96 100 85 83 85 88 81 78 74 85 92 95 98 95 98 96 82 88 81 86 80 77 75 78 70 66 61 60 68 81 79 76 72 70
77 77 76 80 81 82 86 80 89 85 94 99 95 88 93 98 95 94 91 90 94 98 99 98 95 88 86 93 90 91 84 76 79 78 64 64 62 68 75 77 79 73 69 69
79 76 71 79 82 84 87 94 100 99 100 100 99 95 98 100 98 98 98 96 98 98 96 93 91 81 81 97 96 74 74 71 69 66 62 72 76 72 68 77 75 72 72 66
79 79 80 83 87 87 90 93 96 92 91 100 99 95 93 97 94 95 96 98 99 99 95 96 97 98 96 96 99 68 72 73 68 66 72 69 71 69 73 74 76 73 71 66
79 81 84 90 96 94 92 86 72 98 99 97 100 97 92 96 94 98 97 99 99 99 96 98 99 95 95 98 82 74 68 72 70 76 69 71 80 80 82 74 69 72 74 70
79 84 76 96 86 91 86 84 90 99 100 100 100 97 91 98 97 95 99 98 98 94 99 97 97 96 99 82 79 75 83 75 73 83 83 82 81 82 76 71 68 70 72 70
81 76 88 98 86 79 82 96 99 100 100 100 99 91 94 92 96 100 98 96 98 100 96 96 99 98 78 76 75 68 77 78 79 81 93 90 88 84 74 67 61 62 65 71
82 92 97 90 85 98 96 100 100 100 100 99 96 92 91 93 97 97 94 99 100 100 91 99 98 96 86 80 81 74 74 72 69 59 64 65 66 70 68 70 71 73 72 74
98 99 100 99 98 99 100 100 100 100 97 98 98 97 91 95 94 94 96 98 99 98 92 98 96 90 81 81 82 81 75 73 67 62 70 70 68 64 64 70 74 73 75 74
89 89 91 98 98 98 98 98 99 100 100 100 100 99 94 93 92 96 94 99 94 89 98 95 94 90 82 78 84 84 76 71 70 73 72 69 73 66 64 71 70 70 70 69
82 92 98 97 97 98 99 99 99 99 100 100 98 97 94 92 95 94 95 92 92 94 99 97 91 85 74 84 86 86 82 75 74 74 74 76 76 80 74 70 67 64 67 66
91 89 99 99 96 99 98 99 99 99 98 100 96 96 88 97 95 94 95 98 94 90 96 90 90 90 88 87 87 86 80 79 82 81 81 84 81 77 84 74 67 69 70 66
98 88 96 83 94 97 88 95 99 98 98 99 98 97 92 89 93 98 99 99 97 84 92 93 90 79 85 87 86 82 77 74 75 76 77 79 78 76 84 77 74 72 67 66
92 95 95 86 94 99 85 83 89 89 99 100 100 99 83 92 99 99 94 92 84 87 93 98 99 95 89 87 84 82 79 76 74 77 76 82 84 78 72 78 76 70 67 64

GFSNW_925_rhum_006.txt.gz
RH
83 86 68 78 80 88 92 91 100 94 97 98 98 100 93 66 68 67 63 54 55 57 62 68 64 64 53 46 60 76 59 72 88 71 44 45 45 57 62 94 88 88 62 50
82 82 73 79 83 93 99 96 95 89 98 99 100 90 86 77 75 74 66 68 58 56 62 73 60 60 51 54 58 61 62 97 87 69 70 60 73 59 59 92 92 88 80 47
80 80 75 83 86 96 99 99 100 96 93 76 79 68 74 80 69 76 66 69 64 64 65 61 70 69 60 53 54 60 59 68 87 67 68 61 100 73 87 97 93 65 64 52
82 82 80 85 88 92 92 95 98 88 100 80 60 60 68 74 75 70 64 70 62 64 70 72 73 67 64 62 62 62 65 100 91 76 69 78 92 92 95 99 76 79 53 45
78 82 82 84 89 83 90 98 99 72 83 66 60 72 67 68 76 66 72 69 67 64 64 65 69 69 69 62 60 66 70 92 99 97 79 77 96 94 96 96 84 64 57 57
82 83 81 84 88 90 93 91 91 88 90 79 61 69 64 64 62 67 71 64 71 73 70 60 57 56 57 61 63 72 88 100 100 89 64 70 97 96 95 95 83 67 73 54
82 83 81 84 86 93 98 96 98 92 97 73 60 61 64 63 59 78 72 72 76 68 67 70 77 71 86 80 68 61 86 100 100 98 86 94 73 77 80 84 82 66 57 51
83 84 82 86 85 91 95 100 100 98 85 66 62 60 59 68 68 71 71 72 62 66 72 89 90 91 88 74 76 75 68 84 100 99 98 65 55 63 82 76 62 51 59 51
82 82 81 89 84 89 83 99 92 98 99 72 54 64 61 64 66 78 73 81 82 85 90 90 96 75 62 69 78 80 76 80 98 98 96 79 53 55 60 60 66 51 55 52
82 80 83 88 82 85 91 87 86 98 99 72 60 65 71 70 74 89 88 90 91 84 84 97 92 83 63 68 69 86 92 98 97 97 94 63 51 54 68 62 61 54 56 50
75 76 78 78 79 80 88 90 91 92 98 88 77 66 72 77 68 72 79 85 93 97 98 91 84 89 68 74 60 69 66 81 88 77 77 77 51 60 56 50 52 55 58 77
75 74 72 74 79 80 85 85 88 84 98 92 92 84 75 65 60 78 80 82 81 83 93 91 93 84 76 70 66 62 74 60 58 60 52 46 48 51 48 52 56 56 60 66
76 73 72 74 73 77 81 90 93 80 97 93 89 73 80 74 70 66 77 91 73 87 89 94 94 96 88 76 70 65 63 61 67 65 50 53 49 49 52 59 60 61 66 59
80 76 75 75 78 79 81 90 92 88 97 100 80 82 82 87 78 75 74 76 86 89 95 93 89 95 67 72 67 68 60 67 64 63 52 50 50 51 57 63 60 60 60 55
80 80 80 76 80 82 84 83 92 95 94 99 90 83 97 98 93 90 87 80 82 91 94 97 93 76 88 71 76 70 60 56 55 49 52 50 50 57 60 60 61 59 59 60
81 82 80 80 82 87 89 90 99 100 98 99 95 89 91 93 93 90 91 90 87 90 95 92 84 73 83 83 77 55 51 54 50 47 51 54 60 58 58 60 63 58 56 55
80 81 80 81 87 90 82 86 100 94 95 98 99 92 90 97 91 91 89 90 95 96 94 97 88 85 96 96 80 55 55 54 54 56 55 60 61 56 59 60 61 58 53 51
80 80 83 91 93 92 88 84 76 87 100 97 100 94 87 94 93 89 88 96 99 98 95 95 99 93 98 98 70 59 59 61 59 58 59 61 60 61 65 62 58 58 57 54
80 78 75 91 79 84 93 90 89 92 100 100 99 96 93 94 92 88 99 96 100 91 100 97 97 86 97 79 67 62 61 62 58 69 65 65 63 66 66 62 59 58 58 56
76 72 87 94 89 83 87 96 96 100 99 100 98 77 90 82 87 97 91 94 98 100 90 96 99 97 72 65 64 59 58 63 70 76 92 95 94 85 68 63 54 53 54 53
87 89 96 89 94 99 95 100 100 99 100 98 90 78 82 84 91 90 88 94 99 100 89 96 96 84 71 67 65 66 60 60 60 56 58 60 59 61 60 57 54 54 54 54
90 98 99 98 99 100 100 100 100 97 93 96 96 86 81 90 88 90 94 99 97 100 82 97 94 74 73 66 67 74 64 60 62 56 59 58 59 56 56 60 59 58 63 62
81 82 92 91 94 93 94 96 99 100 100 100 99 99 89 91 86 92 93 100 95 81 97 90 81 75 70 66 73 76 66 62 61 67 66 62 64 62 59 62 64 64 62 60
83 91 92 95 95 94 96 99 98 100 100 99 98 98 94 88 96 88 95 84 85 96 98 93 84 72 64 67 77 76 70 64 65 68 68 73 70 70 66 66 65 62 62 61
88 90 97 94 86 93 99 99 100 99 99 99 98 98 84 96 98 86 95 97 94 85 85 82 82 74 73 76 80 77 69 66 71 72 73 73 72 65 71 69 63 61 61 58
92 92 94 84 91 90 89 88 92 99 97 100 99 100 99 98 94 98 97 95 94 83 97 83 70 69 73 78 78 74 67 64 66 67 68 67 66 64 68 65 61 60 59 56
84 92 89 91 90 95 91 73 76 77 98 100 100 100 100 96 97 99 91 92 90 93 87 78 86 83 78 77 76 74 69 66 66 70 69 68 70 67 63 65 65 62 59 57

GFSNW_925_rhum_009.txt.gz
RH
84 86 76 85 89 98 95 85 99 99 82 98 97 100 95 70 56 60 52 44 41 44 46 50 47 49 45 40 44 60 48 62 80 64 42 39 44 58 58 90 68 80 68 58
81 81 80 85 91 98 99 85 94 91 98 99 100 95 90 60 70 68 54 54 44 40 46 56 47 47 42 41 48 51 52 78 82 77 57 44 54 48 47 62 81 92 88 53
80 81 82 87 93 95 94 96 100 97 96 83 68 95 93 79 71 61 54 54 46 47 49 50 52 56 55 44 46 62 49 61 83 62 69 52 88 72 65 86 96 69 62 52
81 82 83 86 86 94 90 97 94 77 94 81 77 70 73 80 74 58 50 55 49 47 54 54 56 52 56 54 54 52 56 100 80 66 58 64 70 72 72 98 94 96 61 48
80 84 84 85 85 86 89 97 97 82 69 51 50 57 59 62 63 55 56 53 50 48 49 50 60 54 53 56 56 59 64 88 94 92 68 66 80 66 80 91 91 96 94 84
81 84 83 85 86 91 94 89 86 97 87 57 51 55 54 57 56 63 57 54 55 59 58 54 54 51 49 51 56 64 76 97 97 80 54 60 88 84 95 95 84 89 94 74
81 81 85 87 85 92 97 97 98 94 94 55 51 52 53 54 58 67 64 58 60 66 55 60 65 64 64 66 69 65 81 95 95 99 84 92 54 57 67 81 69 59 59 60
81 81 86 88 82 89 94 97 98 97 72 53 52 50 58 52 54 64 68 68 61 61 65 69 73 89 89 73 78 79 62 75 95 98 79 56 58 50 75 91 71 52 68 60
75 78 80 81 82 84 83 93 82 96 99 58 45 50 50 57 58 63 62 72 68 68 82 82 97 91 55 66 86 73 66 69 93 81 94 82 48 48 58 71 67 50 60 71
76 74 74 75 78 82 83 92 82 97 97 64 60 54 55 48 52 82 85 83 85 81 84 88 100 94 56 63 63 80 94 96 94 91 98 62 39 46 59 67 59 50 61 63
79 75 73 73 76 78 81 80 88 84 96 87 66 53 55 65 59 73 76 82 83 87 92 99 97 98 62 62 48 63 68 80 82 82 92 78 42 46 59 51 46 48 54 77
82 79 74 73 74 76 80 76 81 98 95 88 83 78 77 67 54 54 72 75 70 73 90 93 93 97 66 57 61 48 63 47 52 52 50 38 40 45 42 46 50 48 53 70
80 79 78 76 72 74 79 77 78 88 95 90 94 70 69 77 73 74 66 75 73 69 79 95 94 97 86 89 60 55 50 44 57 58 41 42 40 39 45 50 52 51 54 55
84 79 78 72 78 76 80 80 76 88 90 100 84 78 72 87 78 78 71 68 76 82 93 96 94 93 69 68 63 63 55 58 55 53 45 40 45 46 49 52 51 58 53 50
79 82 78 81 80 78 82 78 78 79 85 99 91 75 94 95 85 76 74 66 70 88 97 97 92 85 76 60 67 65 48 51 58 47 44 46 46 49 49 51 54 54 54 55
80 80 85 84 79 80 81 78 99 98 91 98 97 80 86 89 85 79 76 74 83 94 93 93 88 72 82 89 72 43 36 36 36 41 44 46 50 51 49 52 53 52 53 53
86 81 81 82 84 85 82 77 100 98 98 97 99 93 90 90 85 88 90 88 94 90 95 97 87 83 97 88 75 45 42 43 42 44 48 53 53 52 52 53 53 51 50 49
84 82 87 94 96 92 85 79 88 86 99 95 100 90 86 88 89 86 84 91 93 97 94 92 93 94 92 93 64 54 49 44 50 50 48 53 50 53 56 54 52 53 52 50
85 76 80 93 80 69 92 94 84 95 100 100 98 98 91 88 85 85 95 89 94 89 98 94 97 92 95 70 64 57 51 58 54 56 56 56 57 58 59 55 52 52 53 51
72 85 80 91 84 89 92 98 98 99 98 99 95 69 88 80 80 84 83 87 92 100 78 83 100 95 66 54 51 51 55 52 62 75 90 99 96 80 60 57 49 49 50 48
86 80 86 87 93 100 96 100 100 100 100 94 86 63 70 75 82 78 81 90 98 100 84 85 86 77 59 60 54 54 58 54 56 50 51 58 56 58 58 54 50 49 47 48
89 95 96 96 100 100 100 100 100 98 100 91 83 76 66 82 82 85 86 98 96 99 74 91 93 70 70 62 58 60 63 58 55 52 53 53 53 52 52 51 51 48 48 52
90 82 96 90 96 95 92 92 97 100 100 100 99 98 82 84 83 89 89 100 96 75 95 88 76 72 64 54 59 68 64 58 56 59 57 56 58 55 54 54 50 53 52 51
80 90 90 96 94 87 93 97 98 100 100 98 98 98 94 83 97 83 98 85 80 94 94 90 88 77 63 58 66 73 68 61 61 63 63 69 67 64 58 57 56 52 52 53
83 90 91 88 84 92 98 100 100 99 98 98 99 99 82 98 100 81 94 96 94 82 82 85 83 73 65 66 70 70 67 65 69 70 71 70 70 63 67 64 57 55 56 53
95 90 94 82 90 91 88 90 94 95 87 100 100 100 100 100 98 97 91 90 92 88 99 88 74 72 68 67 69 69 64 60 62 62 63 64 62 64 64 61 56 55 54 52
82 86 80 82 86 87 77 62 62 63 90 100 100 100 88 100 99 98 88 94 94 93 91 80 79 83 75 71 74 73 68 61 62 64 63 62 62 62 57 57 57 55 54 52

GFSNW_925_rhum_012.txt.gz
RH
81 81 77 82 87 96 91 82 98 90 78 95 100 98 98 87 62 56 46 40 44 49 52 60 56 53 46 40 44 57 46 61 93 80 52 50 52 65 65 90 81 81 82 68
80 82 81 85 91 100 98 90 96 85 89 92 94 91 91 77 70 67 51 48 42 40 47 55 49 49 41 42 47 53 50 84 93 88 63 48 58 54 53 63 75 90 93 65
79 83 84 85 95 98 87 91 93 88 86 88 79 97 92 92 78 56 48 48 43 43 47 48 54 58 52 43 47 55 51 64 85 90 78 67 97 80 64 72 98 81 76 66
79 83 87 81 86 91 87 95 87 79 94 86 80 87 83 88 82 56 48 53 47 46 54 53 53 49 58 50 58 51 57 97 84 75 64 66 73 73 69 89 94 98 80 80
78 80 87 74 82 83 87 97 96 89 64 67 88 71 91 72 57 57 52 52 45 43 49 58 51 53 52 62 57 60 61 97 98 93 71 70 80 72 70 67 76 96 95 94
78 84 88 83 80 92 93 85 89 97 73 58 54 60 54 59 56 61 60 51 52 60 68 59 58 56 51 53 61 66 83 99 96 90 64 73 87 74 79 79 82 87 97 83
76 77 79 82 82 85 97 92 98 96 78 62 50 51 50 56 65 68 62 54 64 68 54 58 63 62 66 64 60 61 87 98 99 98 90 92 55 55 62 75 74 64 63 65
78 77 75 77 81 83 88 88 98 98 88 53 48 49 55 53 56 68 68 68 65 62 66 76 73 86 88 79 72 74 72 87 98 99 92 64 50 57 67 84 76 60 72 72
82 78 76 74 78 80 63 92 80 97 100 60 58 50 51 64 62 70 74 74 74 68 86 82 88 90 68 83 86 73 78 77 94 86 95 83 58 56 62 71 87 56 73 82
82 82 77 74 75 76 78 80 82 97 99 73 78 57 59 49 56 89 83 84 84 74 89 86 99 89 65 73 83 93 94 95 97 96 97 79 47 50 60 84 72 56 55 76
83 82 82 77 75 75 78 75 94 87 96 85 70 68 72 66 66 86 83 86 84 90 87 96 94 97 77 71 60 75 79 87 93 92 98 94 43 51 65 60 54 50 53 74
82 82 77 77 77 74 74 71 72 75 96 88 85 75 72 76 73 70 73 77 75 80 91 95 91 92 90 75 76 50 68 60 68 71 71 46 45 51 45 52 58 57 55 75
80 83 79 82 73 78 75 83 72 79 92 83 93 81 67 73 74 72 78 82 72 78 84 90 92 98 87 93 77 70 53 48 67 60 48 51 49 49 53 54 56 54 56 71
79 79 75 76 77 84 77 82 78 76 92 100 86 76 74 81 76 74 71 73 77 86 88 94 87 97 79 85 77 75 66 59 64 65 58 50 55 56 53 55 56 64 58 58
84 84 80 83 85 86 79 74 75 75 91 100 96 80 84 87 83 76 73 70 81 92 98 98 88 86 86 77 73 77 60 68 74 74 52 54 60 55 50 58 61 59 63 64
82 82 87 84 87 84 80 79 88 82 81 99 100 87 87 86 81 75 74 75 76 90 95 93 88 75 86 96 79 56 51 50 48 52 49 54 57 55 52 59 60 60 63 61
83 86 85 88 93 88 82 78 99 100 84 99 100 99 92 85 81 86 91 89 94 95 95 98 90 87 89 96 90 56 45 49 53 44 52 56 57 62 59 60 61 57 56 54
86 86 86 97 85 86 89 69 83 98 99 97 100 99 96 90 92 96 90 96 96 99 93 93 96 88 95 97 79 69 60 56 57 52 52 58 61 62 64 59 59 61 58 55
88 78 78 91 83 74 93 87 90 91 99 100 100 100 100 94 89 93 94 92 98 92 98 96 96 93 98 83 74 69 62 61 59 65 63 62 64 68 65 60 60 59 59 58
84 85 75 88 86 88 85 96 98 99 98 98 100 78 96 87 88 96 92 96 93 100 87 86 99 97 75 67 63 68 68 61 71 74 86 90 87 80 65 62 55 55 56 56
82 81 86 82 84 98 96 100 100 100 100 97 93 78 87 82 88 86 90 96 100 100 92 87 96 87 72 65 60 60 63 66 67 62 59 72 70 69 64 60 54 54 53 54
89 96 96 95 99 99 100 100 100 100 94 97 95 89 84 87 90 89 89 100 98 98 83 94 95 88 77 61 59 60 70 68 68 60 57 64 61 61 62 61 56 52 53 51
91 85 95 93 99 99 98 97 98 99 99 100 100 99 85 94 93 95 90 99 96 84 96 85 92 90 72 67 68 74 72 66 62 63 58 58 66 61 57 57 52 54 52 49
78 86 95 90 85 81 96 97 99 100 100 99 99 99 97 87 98 90 88 91 87 85 93 93 99 90 79 71 74 76 77 74 68 70 72 72 73 72 61 56 59 63 51 50
83 84 92 86 91 97 100 100 100 100 99 99 100 100 88 100 100 88 98 94 85 78 91 99 93 89 84 78 76 77 76 73 77 74 76 75 74 72 76 71 60 53 54 54
93 85 87 88 96 86 96 93 99 98 90 99 100 100 100 100 99 96 86 85 88 96 100 97 93 86 85 80 78 80 77 67 67 66 69 70 69 69 68 59 57 56 55 55
82 94 86 94 90 85 94 71 71 68 92 100 100 99 90 99 99 93 82 86 99 95 97 97 88 88 85 81 84 85 80 74 67 67 66 66 65 65 59 62 59 56 55 54

GFSNW_925_rhum_015.txt.gz
RH
80 83 85 82 99 85 71 85 98 82 90 98 99 100 98 90 81 75 67 47 52 62 76 72 68 67 54 46 47 62 48 71 96 80 62 57 61 71 75 92 81 92 94 69
78 81 89 81 97 97 91 96 94 82 89 100 99 96 88 85 83 67 54 54 46 50 58 69 56 56 46 47 48 60 50 76 92 81 73 59 69 66 64 70 81 84 90 65
76 83 89 82 95 94 77 94 93 87 92 92 91 98 92 92 75 67 54 51 44 50 52 51 58 70 51 48 54 56 50 76 81 85 81 73 88 76 67 72 98 82 76 64
75 78 84 83 78 81 80 97 88 80 96 88 86 87 91 83 80 59 52 55 50 52 60 58 63 66 61 52 58 53 66 92 90 80 76 77 79 76 73 83 80 97 69 73
78 77 79 84 77 74 83 95 99 89 87 83 85 84 86 79 70 75 58 56 60 64 66 63 62 59 67 68 64 63 66 87 96 98 79 80 87 75 73 75 75 74 74 80
81 80 78 80 84 79 93 85 91 97 82 81 83 74 72 66 63 63 67 61 76 83 78 69 68 58 57 58 65 68 83 98 96 92 73 82 92 79 70 76 77 77 96 76
82 82 78 77 81 82 94 87 98 97 94 79 58 55 54 73 70 73 70 71 79 71 60 62 66 67 68 63 62 65 92 95 97 98 90 89 62 56 65 77 76 76 71 70
84 82 80 76 77 80 76 91 93 98 98 83 56 56 59 64 71 72 76 79 76 70 69 83 82 85 85 79 71 75 74 85 98 97 99 71 57 68 74 88 77 61 71 84
82 84 84 79 76 77 74 98 82 97 100 87 80 68 56 73 75 71 87 77 76 70 91 86 89 96 73 96 90 76 78 77 94 98 98 89 60 54 65 73 87 58 67 80
86 86 81 82 80 76 73 80 83 94 99 81 79 85 71 52 72 87 81 80 80 76 91 92 94 86 72 91 93 98 94 94 97 94 97 82 59 53 68 80 62 59 55 71
81 80 79 77 76 79 74 67 75 87 98 90 70 71 90 94 81 88 83 86 86 93 92 92 90 94 81 80 75 89 88 93 97 98 99 92 50 69 74 58 58 54 54 76
76 78 77 80 71 72 78 77 73 72 95 88 81 77 70 74 76 89 84 84 84 86 94 92 89 87 84 91 93 62 89 74 83 78 76 51 48 53 51 56 62 58 57 74
88 84 77 86 74 74 81 79 77 78 97 89 91 87 61 65 70 73 86 87 76 82 84 90 90 94 84 89 93 80 60 53 64 67 58 56 53 56 55 55 58 57 70 75
74 81 79 82 79 82 84 86 74 82 92 100 87 76 78 79 77 75 72 74 81 87 87 93 91 92 86 89 83 86 74 65 67 75 65 60 58 57 55 57 64 63 71 76
81 84 77 83 83 85 84 84 81 70 88 100 99 88 74 84 82 78 73 76 85 92 98 97 96 86 88 81 82 93 71 75 79 81 58 58 60 56 53 61 65 65 68 69
80 84 89 85 87 91 96 90 97 90 76 99 100 92 93 89 85 82 80 81 82 88 91 93 89 75 85 98 95 61 58 59 57 59 51 58 60 57 55 63 65 65 67 65
84 84 85 86 90 97 94 87 98 100 84 98 100 99 94 86 84 88 90 86 93 91 94 98 92 89 88 96 84 65 65 59 56 52 55 60 62 65 62 63 64 62 62 60
88 88 89 85 81 75 85 70 72 94 100 99 99 99 97 90 98 98 91 98 98 98 94 93 97 90 91 98 80 78 69 70 70 70 60 60 67 67 67 64 61 63 62 59
88 85 76 94 86 84 92 95 91 84 99 100 100 100 100 94 92 96 98 94 99 93 98 95 94 91 98 84 85 79 69 74 66 70 67 68 69 72 68 63 61 60 62 60
80 78 74 94 82 86 91 98 98 100 99 100 100 93 100 93 91 99 96 99 97 100 93 93 99 93 79 68 64 60 64 71 77 70 78 87 85 82 71 65 56 56 58 58
77 84 80 79 83 94 97 100 100 100 100 98 94 93 91 89 89 92 91 99 100 100 94 88 92 94 76 69 65 63 65 75 77 76 72 69 70 75 70 65 58 60 58 59
82 95 88 93 99 99 100 98 99 100 98 97 97 94 91 93 90 90 92 98 99 98 85 94 86 93 84 76 72 73 73 74 73 68 74 66 70 70 66 63 66 62 61 55
82 86 92 95 98 97 99 97 99 100 99 100 99 99 92 91 89 96 94 94 92 86 95 85 92 92 83 79 76 76 73 74 73 71 66 59 67 64 62 61 58 55 55 58
90 92 95 95 95 92 88 98 99 99 100 99 99 100 97 94 98 90 90 87 86 85 92 91 98 95 90 82 76 77 80 75 82 79 79 74 80 81 73 67 58 59 66 71
92 92 97 94 90 98 99 100 99 100 99 99 99 100 94 99 100 93 96 92 88 78 89 98 98 95 92 87 80 81 83 78 75 78 80 78 81 81 85 76 68 68 80 62
92 92 98 90 96 95 98 94 98 97 93 99 100 100 100 100 94 97 86 82 87 95 98 98 97 92 92 88 82 84 83 78 72 70 71 72 73 77 79 80 74 64 56 56
90 97 88 95 96 95 99 86 77 72 96 100 99 99 96 98 100 96 89 92 100 99 92 98 91 92 94 89 88 87 88 83 79 76 70 70 70 66 62 66 62 58 57 55

GFSNW_925_rhum_018.txt.gz
RH
78 80 84 92 99 74 70 83 96 70 88 98 99 100 100 92 81 76 82 52 63 76 72 76 70 82 63 51 55 68 51 78 93 81 60 59 65 74 76 90 79 95 92 79
78 79 82 89 99 97 81 96 94 82 88 98 100 94 87 88 82 83 56 54 50 60 69 73 61 58 50 52 53 62 52 76 92 82 74 67 74 71 69 73 85 94 92 71
80 80 82 86 89 80 75 93 90 87 92 93 95 87 90 83 70 65 56 56 52 50 55 53 70 64 53 50 51 57 56 79 78 86 76 77 87 77 72 77 98 84 79 62
81 81 81 83 72 76 77 97 94 91 98 88 87 80 81 84 85 71 54 53 48 55 64 64 76 66 60 61 61 60 63 87 91 84 78 80 79 78 77 89 74 90 65 68
83 83 81 81 74 75 82 90 98 85 98 86 86 83 84 85 75 77 72 79 68 56 72 65 74 69 67 64 63 65 66 90 89 93 83 88 92 81 78 73 70 69 67 71
84 84 82 81 82 79 88 86 90 96 84 89 85 76 68 74 66 63 71 66 79 85 78 72 66 54 59 62 70 76 77 94 89 94 72 85 93 84 77 76 76 76 90 71
84 85 84 80 80 78 92 89 98 93 89 91 75 57 66 71 71 69 74 76 78 74 62 65 64 73 69 58 59 66 87 90 95 98 87 92 60 53 61 68 70 77 80 71
82 75 84 83 80 78 78 94 93 94 91 88 80 87 68 68 70 75 79 84 80 75 70 83 84 82 77 75 69 76 71 85 98 98 98 73 58 65 67 77 75 66 77 64
91 73 81 82 82 79 65 87 80 97 97 93 86 94 68 79 78 76 85 76 76 73 90 85 89 91 76 99 96 77 74 75 95 95 99 90 56 57 69 68 91 66 64 68
85 76 80 80 76 81 72 72 75 94 99 77 82 92 87 72 79 84 81 80 78 74 90 94 94 90 76 97 90 99 95 96 98 97 96 85 59 55 68 74 60 59 59 64
75 87 75 77 79 74 73 72 69 80 96 84 81 68 83 88 89 85 77 80 84 94 91 90 90 90 82 86 75 92 88 96 99 97 98 93 55 73 73 58 59 56 56 74
78 85 82 79 84 73 77 74 76 73 88 88 84 79 71 76 73 90 88 78 86 88 92 93 91 91 86 89 73 71 89 74 83 84 78 51 50 55 58 59 66 60 59 76
88 76 73 82 83 82 76 75 80 78 97 93 87 70 35 48 56 61 98 87 79 83 83 91 91 91 84 85 81 83 67 58 71 70 59 57 55 56 56 56 59 60 65 76
97 82 81 82 79 83 88 89 86 81 87 89 80 75 80 66 82 74 79 83 84 86 88 91 93 92 84 89 84 91 80 71 68 74 72 66 62 57 56 56 65 66 76 78
90 80 78 80 91 87 89 91 91 87 79 87 86 63 59 73 90 87 83 80 85 92 94 95 94 89 89 86 81 90 77 81 84 78 63 62 61 54 55 60 65 64 76 78
94 81 89 83 86 91 97 94 94 100 90 87 93 89 93 92 92 85 85 85 89 89 90 92 89 78 83 97 94 74 72 61 60 69 59 61 59 57 56 61 64 64 68 71
90 90 89 90 90 97 92 82 89 98 93 98 97 99 95 92 92 95 94 86 93 89 89 95 91 91 89 94 92 60 67 74 71 67 62 65 64 63 62 63 65 64 65 64
90 90 94 86 76 75 92 86 89 78 96 99 99 98 97 90 98 99 91 99 96 97 91 93 96 91 94 99 81 79 72 60 69 69 67 65 67 68 68 68 65 67 66 64
78 84 78 78 75 83 92 95 92 89 99 100 100 100 100 96 97 98 98 93 99 92 97 95 92 92 98 84 73 70 67 68 68 76 72 68 66 71 72 68 67 67 66 63
78 79 75 79 82 88 88 100 97 100 100 100 99 99 96 95 90 99 95 97 95 100 97 96 99 93 82 68 69 72 73 74 80 91 87 89 85 84 76 73 63 60 60 60
76 88 84 82 82 88 97 99 99 99 100 100 99 98 97 91 91 98 92 100 100 100 94 91 97 94 73 76 76 73 75 77 81 85 82 83 80 78 76 72 63 60 60 64
78 89 93 93 96 99 99 98 98 100 99 98 99 99 98 93 90 94 94 97 99 98 87 94 91 91 87 83 80 76 74 74 79 76 78 79 75 76 74 71 61 61 70 75
90 93 92 96 99 99 100 96 98 99 99 100 99 99 98 90 89 96 92 93 94 88 95 87 90 91 87 85 81 79 75 74 70 79 76 76 67 70 66 69 72 76 80 81
91 94 97 98 98 97 94 98 99 99 100 99 99 100 99 97 98 92 89 90 86 93 82 84 97 96 94 87 81 81 83 80 76 85 88 85 84 80 72 72 68 60 62 59
94 94 98 96 90 97 99 99 99 99 99 99 99 100 97 100 97 93 95 96 93 77 88 97 98 97 93 93 86 87 88 86 80 75 85 86 82 82 87 85 76 67 71 75
92 95 99 90 96 96 95 96 98 97 100 99 100 100 100 100 96 97 93 83 88 94 99 98 97 91 92 93 90 90 89 86 82 78 75 73 74 83 87 92 91 88 88 90
96 98 93 96 98 97 92 92 86 76 96 100 100 99 91 98 96 99 88 92 98 98 96 99 92 90 93 92 92 93 93 88 87 88 80 77 73 70 77 83 85 89 79 76

GFSNW_925_rhum_021.txt.gz
RH
84 83 85 89 97 69 63 84 90 68 82 97 99 100 98 89 83 77 78 58 70 71 73 80 73 77 66 54 60 65 55 77 96 80 62 61 66 74 77 84 78 96 94 82
84 85 84 87 94 97 77 93 94 74 88 96 98 86 87 89 84 83 72 56 56 63 69 77 66 68 52 57 58 64 57 80 93 86 73 69 73 74 72 76 82 92 93 74
85 85 84 85 87 88 77 93 93 90 93 93 92 86 90 83 70 75 54 58 56 56 60 57 72 63 60 56 54 58 57 75 76 84 73 80 89 79 76 77 98 87 79 70
86 85 85 84 78 76 80 95 98 96 99 88 89 79 85 88 88 71 59 54 53 57 69 69 76 65 62 62 61 63 61 87 90 85 78 78 75 74 79 88 72 90 66 70
86 88 85 83 81 74 83 93 88 85 95 90 89 84 85 82 77 78 73 65 64 56 69 63 79 69 65 62 62 66 66 95 90 91 82 88 95 86 83 78 75 74 71 74
87 86 87 83 82 78 90 89 85 94 84 90 85 76 74 77 68 68 78 72 79 86 80 73 58 54 57 56 69 77 73 92 90 97 74 86 93 84 80 80 76 72 85 62
93 79 86 84 83 78 93 92 99 88 90 93 85 80 70 73 73 69 78 76 74 74 64 64 65 73 65 62 61 66 83 86 90 99 84 93 58 58 64 69 66 71 70 67
85 84 80 83 85 80 71 89 97 97 87 81 89 87 80 69 70 77 79 86 80 79 70 83 77 78 68 74 66 72 67 83 99 98 93 78 58 73 76 73 71 67 77 73
75 86 79 72 79 84 62 76 76 97 98 93 82 96 82 80 78 77 86 79 76 76 89 83 89 92 75 97 95 77 73 73 93 90 94 92 54 63 67 67 76 61 70 68
83 80 86 76 73 83 74 71 72 84 94 82 84 97 96 81 80 82 85 80 78 72 90 92 94 93 77 96 96 100 100 99 96 90 96 84 60 53 71 73 65 54 60 65
94 81 88 83 77 73 72 70 70 76 89 80 80 77 84 86 92 86 78 80 84 94 88 92 93 91 88 89 74 92 91 98 99 98 98 94 64 75 73 60 61 58 60 62
98 88 76 76 84 82 80 74 74 78 91 86 74 65 67 80 76 86 91 80 86 89 90 91 92 94 88 88 90 77 91 80 90 84 76 54 60 60 58 62 68 62 62 67
93 99 89 78 80 85 85 81 75 79 99 88 89 76 44 56 40 52 89 88 78 87 81 90 91 85 85 97 90 85 73 61 75 75 63 65 58 56 59 56 58 60 65 73
96 99 84 79 80 78 88 88 87 93 93 98 79 60 67 68 57 63 60 76 88 85 88 90 92 87 80 86 80 85 79 78 74 74 72 73 62 62 54 55 58 65 74 76
86 97 92 87 87 89 86 88 84 91 97 95 87 65 45 44 44 84 80 76 94 91 92 93 93 90 89 91 84 90 74 83 88 87 68 72 67 62 55 60 61 64 78 81
92 98 93 92 88 89 94 98 96 97 100 100 97 74 86 84 77 96 90 93 96 92 92 94 91 78 82 98 96 74 71 65 68 75 71 69 70 70 59 60 60 62 74 78
97 96 92 92 94 92 90 80 77 89 100 93 91 94 82 78 95 98 95 97 98 92 89 94 91 91 86 94 92 69 76 69 64 73 77 79 69 69 61 60 62 65 66 70
97 89 95 90 87 91 89 83 89 87 93 98 98 96 100 85 97 99 96 99 88 97 92 95 96 95 94 99 85 66 62 64 61 64 66 74 74 66 66 68 68 67 68 66
74 78 81 87 90 83 88 87 94 98 99 99 99 98 100 98 97 98 95 91 98 94 96 95 90 92 99 84 72 73 72 80 79 79 83 79 74 70 70 69 70 69 70 67
59 79 87 75 79 87 98 99 100 100 100 100 100 100 98 94 90 100 94 93 97 100 94 97 99 96 81 72 72 72 77 84 89 97 92 88 88 86 75 77 70 68 67 66
68 89 91 82 83 86 96 100 100 100 96 100 100 99 99 93 92 97 92 99 100 100 95 97 99 96 76 77 76 79 82 82 83 83 87 88 88 88 85 80 72 66 64 63
75 89 89 94 94 100 100 96 97 100 99 98 100 98 99 98 92 95 97 99 99 98 88 93 83 94 88 88 87 84 82 82 79 74 85 82 83 87 87 81 73 64 61 64
89 98 97 98 98 99 97 97 97 99 95 100 99 100 99 93 95 97 93 92 95 89 96 88 92 93 90 92 89 84 78 78 74 75 88 85 87 72 73 70 64 66 69 71
92 82 95 97 98 98 94 98 100 96 100 98 98 99 99 97 99 94 85 94 87 99 94 83 99 94 93 91 87 87 88 84 82 77 90 94 91 87 75 73 75 77 81 85
93 95 99 98 89 97 98 99 98 95 99 99 99 100 97 100 92 92 96 99 90 84 89 98 96 97 91 92 90 92 94 89 85 81 79 77 84 85 87 84 82 80 82 88
95 98 100 91 97 96 97 97 96 97 99 99 100 100 100 100 97 97 94 91 90 90 99 98 95 88 90 93 93 93 96 92 86 85 83 78 79 79 88 94 95 92 88 91
96 99 93 98 98 97 96 84 90 95 100 99 100 98 89 99 98 99 91 92 93 99 98 99 92 88 90 92 90 92 95 95 93 92 89 89 80 72 79 90 92 97 97 93

GFSNW_925_rhum_024.txt.gz
RH
88 87 87 86 93 90 67 83 87 64 82 96 100 100 98 86 84 78 72 64 69 74 74 77 71 80 61 55 58 64 56 80 97 77 64 63 66 74 75 82 76 94 94 76
88 88 87 86 88 96 90 91 90 59 79 99 95 85 87 88 83 78 73 59 58 61 69 73 66 67 55 59 54 60 61 79 94 85 71 69 74 74 70 74 82 97 88 65
87 88 88 86 84 77 84 92 94 92 89 90 92 84 91 82 71 71 56 61 55 58 61 66 70 66 63 60 54 56 57 74 76 83 72 81 92 82 78 76 96 84 84 72
88 88 88 87 83 74 79 96 96 95 98 91 92 87 87 84 86 74 62 56 56 61 72 72 75 67 65 61 61 62 62 88 88 83 77 79 76 76 84 85 77 82 69 74
91 88 88 86 82 74 85 93 97 77 91 90 89 80 81 86 79 82 68 69 72 59 67 64 80 70 66 66 62 66 68 96 93 93 75 88 97 87 81 82 76 73 69 73
91 92 87 86 82 80 89 90 86 96 84 88 82 80 77 78 71 71 83 73 79 83 82 76 60 54 59 59 71 76 73 92 92 96 77 84 90 87 82 81 77 70 83 60
86 93 88 84 86 69 84 88 99 90 94 94 87 86 80 78 79 71 80 76 71 75 66 66 65 70 68 64 66 66 80 83 91 98 82 86 54 61 64 70 65 71 66 63
84 88 89 84 82 84 73 79 97 98 90 76 89 94 94 73 70 80 79 85 80 79 69 79 76 74 68 75 67 72 67 84 98 97 87 76 58 78 74 71 64 67 67 61
92 76 84 81 80 89 70 73 73 94 89 89 83 82 91 86 79 75 84 80 78 74 86 82 88 79 77 90 95 77 73 79 94 83 81 95 52 64 67 61 75 56 73 72
98 92 86 85 71 81 71 71 71 82 87 75 85 96 92 91 84 83 86 82 80 71 89 90 90 92 79 91 98 99 100 100 92 93 94 83 60 54 66 74 65 51 63 68
78 95 90 80 79 80 86 71 70 74 93 89 75 84 89 84 92 92 81 84 85 92 87 89 92 92 92 89 83 90 90 93 96 89 99 92 65 76 71 61 61 61 63 62
86 92 96 90 82 80 90 83 71 72 87 81 65 63 60 64 68 83 88 84 84 89 90 92 91 92 94 87 94 78 92 82 90 87 79 54 58 65 59 66 66 62 63 64
80 95 99 95 86 85 81 80 77 86 98 92 90 88 53 56 64 54 95 90 81 87 82 91 90 88 91 99 95 82 76 64 73 79 67 71 64 63 62 60 64 58 64 68
98 98 96 98 94 86 86 93 88 89 97 98 78 57 63 60 71 64 54 67 67 85 87 88 91 86 80 88 78 87 81 78 80 75 69 70 61 62 58 57 58 66 70 73
96 98 96 98 93 85 86 83 87 91 94 97 87 69 65 64 55 51 50 62 73 88 98 94 92 91 88 92 89 94 83 79 86 84 71 78 75 68 61 64 66 65 72 77
97 95 100 95 93 94 92 97 86 89 95 100 98 72 78 62 72 58 52 76 81 90 96 92 92 80 82 92 96 74 75 76 69 83 77 81 77 80 73 68 68 67 72 80
96 99 96 94 97 95 91 83 75 82 97 99 94 93 77 86 83 84 83 90 93 95 95 93 93 93 86 91 84 83 78 65 63 61 69 73 72 80 82 69 61 64 66 72
98 89 82 95 89 94 90 79 88 88 97 98 98 94 100 92 92 89 88 97 94 98 95 96 95 97 92 96 80 67 63 69 63 70 74 72 72 76 81 67 72 68 70 70
94 63 83 88 94 86 82 91 92 96 95 99 98 98 97 88 92 95 98 96 100 99 96 96 90 96 96 87 79 71 74 78 85 87 90 89 87 80 75 71 70 71 72 70
67 76 86 80 85 84 89 100 99 100 100 100 100 100 98 98 97 98 96 96 98 94 92 96 99 96 85 78 77 79 81 85 88 94 94 93 92 92 87 79 77 74 71 70
63 88 94 80 80 84 97 100 100 98 99 100 100 100 99 94 94 97 90 99 99 95 99 96 98 93 88 84 82 82 85 86 87 88 88 89 92 93 92 89 83 76 70 70
91 84 87 76 92 97 100 97 96 99 96 99 100 99 98 96 92 94 96 99 98 97 92 99 97 94 91 88 84 87 87 86 80 72 79 87 89 91 93 92 90 76 65 62
89 99 99 98 96 99 99 95 96 94 100 99 99 99 99 94 93 97 98 95 97 90 98 91 92 95 91 92 91 89 84 78 75 74 78 92 91 90 78 73 68 66 65 64
93 92 96 98 96 92 96 96 98 95 94 98 98 99 99 98 100 96 90 96 90 98 99 86 99 92 91 90 89 92 93 89 85 82 80 88 95 97 92 83 72 68 72 72
93 93 97 97 89 95 97 99 98 97 91 95 98 99 99 100 97 94 99 100 97 88 87 96 97 93 90 90 89 92 97 96 91 87 85 80 78 88 94 92 83 78 79 81
94 98 99 89 98 95 96 98 97 97 94 96 100 100 100 99 99 96 92 89 88 87 97 98 91 92 91 92 88 92 96 95 92 90 88 87 83 82 85 96 94 90 88 93
100 97 93 97 99 98 96 90 91 96 99 98 99 99 94 99 99 98 96 92 90 97 100 95 92 89 90 89 82 88 90 92 92 93 95 93 86 78 76 80 83 98 95 93

GFSNW_925_rhum_027.txt.gz
RH
90 88 88 89 88 96 74 80 86 54 73 94 98 99 98 84 85 76 63 66 70 77 74 75 72 76 62 55 56 64 60 80 92 77 66 63 65 73 67 76 75 88 82 54
92 89 88 89 87 100 92 90 88 54 73 96 96 80 83 87 82 76 68 61 61 61 70 74 66 65 57 58 53 63 61 77 94 84 74 70 74 75 67 71 79 96 73 48
92 90 88 88 85 86 85 92 89 91 92 90 86 91 91 84 72 68 57 62 56 58 64 67 72 67 68 59 51 59 56 72 72 71 68 80 89 82 71 74 87 79 76 61
91 93 88 87 78 76 78 95 96 92 98 89 93 88 85 83 87 76 61 59 56 61 73 73 74 69 70 60 64 62 60 87 86 76 68 81 78 79 82 84 74 78 60 70
93 93 90 86 76 76 82 93 97 86 91 90 90 78 81 83 79 83 68 68 73 58 67 62 79 71 70 70 65 65 68 95 92 87 76 87 95 84 81 79 72 74 71 71
93 91 90 86 82 75 83 83 88 96 86 91 86 84 77 77 76 77 79 72 74 79 81 77 64 59 61 62 72 76 71 93 89 88 76 82 93 84 83 78 78 67 81 60
94 84 90 84 87 66 84 89 99 91 94 93 93 90 92 83 83 72 80 76 69 74 69 67 64 70 71 68 69 64 78 83 90 93 78 86 51 62 67 71 67 70 65 61
95 86 89 89 83 75 71 71 91 94 82 78 88 89 96 89 74 79 78 86 80 79 66 77 77 73 66 76 78 71 62 80 98 95 84 69 62 76 76 75 66 63 64 56
96 91 87 94 88 76 70 71 67 88 87 81 78 76 78 98 85 79 82 82 81 73 85 81 86 90 74 93 94 78 79 74 81 84 87 86 53 67 66 64 81 60 65 65
87 85 93 88 83 86 82 70 68 78 94 82 72 91 86 85 92 91 85 84 83 74 88 88 90 89 75 94 89 97 100 100 97 91 88 81 58 57 66 76 68 51 65 69
92 95 93 99 88 84 88 82 73 73 88 84 70 82 92 87 88 95 84 87 86 90 88 86 88 91 93 90 82 74 82 95 83 76 88 94 63 72 70 60 59 59 63 63
92 96 96 99 96 88 88 88 77 72 83 84 63 60 56 53 65 76 82 96 86 88 89 92 91 92 95 90 84 82 94 80 88 79 77 57 61 59 61 67 64 61 63 61
93 96 91 98 99 97 84 82 84 95 100 83 87 89 64 69 68 64 89 86 88 90 84 89 90 87 91 97 85 86 79 73 81 80 67 74 67 61 64 61 65 59 61 64
99 95 97 96 97 96 89 90 91 93 93 99 77 58 64 45 59 69 69 62 69 75 91 91 92 89 84 92 79 85 82 80 81 84 74 66 67 67 58 59 60 64 68 73
99 98 95 97 99 94 92 92 92 92 91 95 90 71 66 66 59 73 70 65 62 78 99 99 93 90 90 93 90 94 87 84 92 92 73 72 73 70 71 72 78 74 71 71
100 97 95 100 89 96 95 94 83 88 96 99 96 74 75 63 62 70 66 61 76 96 100 95 92 81 80 96 95 75 78 77 74 82 80 84 83 80 77 74 74 69 69 76
95 96 99 88 97 94 88 83 74 87 87 98 97 91 72 87 81 81 79 64 83 96 99 98 95 95 87 92 95 76 82 72 61 63 70 78 73 71 78 82 83 68 66 70
94 95 83 96 88 92 93 85 92 92 97 97 98 95 92 90 88 69 90 91 88 98 96 98 96 98 94 97 82 76 66 68 67 74 75 73 76 77 79 78 74 71 73 72
87 67 69 98 94 87 86 93 93 100 94 99 97 98 95 86 94 93 94 92 99 95 97 98 89 99 92 82 86 75 74 72 75 86 88 89 89 90 82 80 72 75 76 74
72 74 86 94 86 82 83 99 99 100 100 100 99 99 98 98 97 98 98 98 99 100 98 96 93 93 88 82 83 81 80 81 85 90 89 94 95 94 92 88 88 81 78 73
74 85 93 78 74 82 94 100 100 98 96 99 97 100 99 94 100 98 96 99 100 99 100 96 100 87 93 84 83 84 85 85 87 89 88 87 88 96 98 94 92 90 83 77
97 92 89 89 92 96 100 98 97 98 95 100 100 100 99 95 96 94 95 100 98 97 94 98 98 92 92 86 88 87 88 87 82 74 75 85 89 91 95 95 90 87 82 70
90 99 99 96 96 99 97 95 95 98 100 100 99 98 99 95 95 96 96 95 88 93 99 94 95 95 93 92 92 89 89 85 76 77 76 81 93 95 94 84 71 69 68 65
92 93 96 96 96 95 94 94 97 96 97 91 95 99 99 98 100 96 99 97 92 96 97 91 92 93 94 90 88 92 96 92 88 87 86 82 83 96 99 100 96 88 68 67
91 92 86 96 88 96 95 98 96 95 88 88 94 98 100 100 100 98 99 98 93 86 84 93 99 92 88 86 84 92 95 94 91 89 87 85 82 78 81 95 92 84 80 76
94 95 99 88 98 95 96 98 98 95 96 96 98 99 99 99 100 99 94 92 87 87 96 97 92 89 91 87 82 88 92 88 86 89 91 88 87 86 81 84 88 95 91 90
100 98 92 98 99 97 95 92 90 89 98 99 99 99 98 99 99 98 97 91 90 94 100 97 90 92 92 87 81 84 80 78 88 93 99 98 90 82 82 85 80 82 99 97

GFSNW_925_rhum_030.txt.gz
RH
91 93 92 89 86 97 80 74 81 61 72 82 84 94 89 79 72 64 55 56 60 60 62 64 63 53 54 46 44 51 53 65 80 68 58 54 53 53 44 49 69 62 57 31
90 92 92 90 85 98 99 77 76 57 80 78 78 68 70 73 65 64 55 56 54 54 58 63 57 58 52 49 46 50 48 66 88 85 66 60 65 58 52 54 62 77 49 33
94 93 92 89 84 91 91 80 86 70 71 76 71 76 73 69 66 59 52 55 49 50 53 51 58 59 61 51 47 58 46 58 67 54 70 63 80 65 57 58 69 53 44 36
94 93 91 88 82 75 88 84 90 78 87 77 76 78 76 71 70 65 54 54 51 48 56 56 58 60 59 55 60 52 50 91 80 58 60 70 66 65 65 77 55 60 41 46
96 92 91 86 78 71 82 85 86 71 79 77 73 72 72 75 71 75 58 56 54 50 50 45 57 55 55 55 60 53 56 92 85 81 69 72 80 64 61 62 58 55 49 50
88 95 92 88 83 59 81 85 87 91 78 74 70 73 72 72 71 68 71 61 59 60 61 60 54 46 44 47 54 58 59 87 83 76 64 66 74 65 63 62 59 55 62 44
95 89 84 94 85 67 76 90 98 78 76 73 74 77 82 77 77 77 69 67 60 61 52 50 46 48 52 51 55 47 61 76 83 81 68 77 52 51 51 57 51 53 48 45
95 88 83 91 91 75 65 70 88 81 66 67 67 75 86 77 66 71 75 74 73 62 60 58 60 61 61 68 66 56 50 61 85 82 72 53 49 63 60 62 58 48 50 43
94 91 91 89 90 86 78 68 63 81 80 57 66 66 69 86 76 65 74 75 72 65 68 65 71 65 56 73 77 64 61 54 60 70 78 59 46 60 56 54 68 52 48 48
88 93 92 97 96 88 87 70 70 76 71 51 68 67 68 71 88 82 71 78 78 68 72 71 69 65 54 72 79 88 78 80 76 73 68 50 38 53 57 67 60 49 53 53
88 91 92 94 96 92 87 84 77 73 76 61 55 65 64 53 63 84 80 81 82 85 85 78 72 66 64 67 58 63 66 75 82 74 78 79 47 58 54 49 51 49 53 56
91 89 92 96 99 96 92 88 79 78 80 67 60 54 51 50 54 66 69 92 84 73 79 75 73 72 73 66 72 60 73 57 56 54 52 40 49 50 51 54 54 54 57 54
96 92 93 92 94 98 97 90 83 92 99 85 73 71 67 74 64 57 62 67 79 86 85 80 78 74 69 77 66 66 65 58 61 64 47 50 47 49 51 53 55 53 52 54
92 89 98 91 93 97 95 95 87 91 92 92 78 71 67 52 59 71 65 54 64 69 94 92 82 74 66 68 59 60 60 64 60 60 57 57 55 52 51 56 57 57 57 58
87 93 93 95 99 87 92 92 94 94 96 86 74 69 66 64 66 71 72 67 66 76 92 100 92 74 73 70 68 68 63 65 66 59 52 48 51 54 62 66 65 62 64 63
91 92 93 98 82 96 92 84 79 92 98 95 93 69 66 62 69 71 71 70 68 74 83 95 95 72 66 78 73 55 56 58 56 55 56 60 59 61 64 62 60 58 61 57
91 92 94 92 88 96 88 77 74 80 94 99 87 81 55 70 80 75 71 67 67 66 76 94 97 84 72 80 69 51 55 56 63 56 58 60 63 63 63 62 62 66 65 60
91 92 88 78 89 94 94 89 93 94 99 90 92 88 73 76 92 74 68 76 71 77 81 88 96 95 83 87 66 68 63 59 58 61 61 61 60 62 66 69 72 66 63 59
89 78 71 92 96 88 81 87 95 100 98 93 88 91 88 94 98 91 74 69 79 65 97 94 94 98 97 72 71 67 62 61 63 68 66 64 70 72 72 73 70 71 67 63
80 66 88 91 85 79 81 98 98 100 100 99 96 93 94 98 99 98 93 97 95 98 95 93 97 98 82 72 70 64 66 67 71 71 78 89 93 85 78 80 75 73 72 68
83 86 84 77 70 86 86 96 99 92 93 94 89 97 96 94 100 100 97 100 100 100 99 100 96 83 83 73 72 71 70 70 71 72 72 72 75 82 87 87 79 79 78 74
97 94 88 92 90 92 95 92 91 93 91 100 100 100 99 99 97 98 93 100 99 98 94 96 95 82 83 73 76 75 72 72 72 70 69 74 83 90 93 85 74 74 82 83
89 95 93 88 90 92 91 93 90 92 99 96 96 95 99 96 97 97 96 99 94 93 99 86 78 85 81 79 78 78 75 74 71 73 73 72 82 93 98 95 89 70 67 67
86 86 67 88 87 87 88 84 90 86 92 86 88 96 100 98 99 92 100 100 96 96 90 77 83 83 79 77 80 77 80 78 76 77 77 77 77 88 99 100 100 99 90 74
84 81 60 88 79 88 88 92 96 89 90 92 93 94 98 99 100 100 98 95 87 74 74 76 86 83 78 73 75 79 76 74 76 80 78 77 78 75 74 91 95 92 87 78
91 93 96 82 93 88 90 92 93 88 91 92 97 98 98 99 100 100 95 92 83 79 90 86 81 79 72 67 70 76 75 66 69 81 84 84 81 79 77 75 76 87 96 92
98 94 85 85 92 89 82 75 79 81 90 95 96 97 99 98 100 97 90 86 84 88 91 87 81 80 76 64 69 72 63 65 71 80 86 89 88 83 81 80 82 80 88 100

GFSNW_925_rhum_033.txt.gz
RH
96 93 93 90 88 85 86 70 81 71 84 69 61 74 76 76 58 51 47 47 48 47 48 50 48 46 46 40 38 45 47 58 79 66 52 47 46 45 42 51 63 46 48 35
96 94 92 90 87 88 98 64 57 72 74 70 56 57 58 59 52 52 45 48 47 45 47 54 50 47 45 43 41 42 44 64 88 78 60 53 59 50 46 45 54 69 47 36
95 94 92 90 85 86 90 67 86 55 51 58 48 54 53 56 59 49 45 46 42 45 46 40 51 52 52 44 42 53 40 49 68 58 72 52 67 54 51 55 68 45 36 34
95 95 93 90 80 74 84 66 82 72 75 59 61 63 61 56 57 54 46 48 44 41 47 44 48 49 52 48 57 45 44 91 77 49 54 62 60 54 55 71 54 50 32 30
94 95 96 93 68 68 70 79 92 68 60 60 60 64 60 62 58 60 48 50 43 40 42 38 45 46 46 47 49 47 48 86 77 83 58 61 69 56 51 53 52 44 39 40
96 90 85 93 75 60 56 67 74 79 66 59 57 58 62 64 61 60 57 52 46 47 45 44 42 36 35 39 47 51 53 82 87 72 57 59 69 57 54 51 48 44 50 37
96 95 94 93 89 74 60 70 87 77 59 55 60 64 67 66 67 69 56 55 54 54 42 40 38 39 41 42 42 40 53 70 77 81 68 81 52 44 41 46 45 44 39 35
96 95 96 88 90 83 76 77 64 61 52 39 48 61 67 62 56 62 65 63 61 46 52 52 57 56 53 54 48 46 40 50 71 78 63 45 35 42 52 53 52 42 44 39
88 89 96 98 92 90 78 84 82 60 60 49 55 52 52 69 59 57 62 64 61 59 58 55 61 60 47 61 62 52 47 44 58 61 68 57 46 49 43 44 62 42 39 40
92 90 95 88 88 88 86 83 75 69 63 35 52 48 61 58 67 69 60 67 71 63 62 65 58 54 43 56 63 70 67 60 70 62 62 47 33 53 48 69 63 48 44 46
90 86 87 89 87 90 93 83 77 69 69 58 50 44 48 39 45 63 72 71 74 79 77 66 60 52 48 47 46 54 59 64 64 57 66 72 38 54 57 49 46 46 48 50
86 90 89 92 94 94 91 88 82 82 81 64 63 59 54 48 44 55 56 80 73 75 72 57 53 51 50 50 56 42 58 45 48 47 48 35 37 38 44 46 48 49 52 51
90 90 88 81 92 92 99 98 93 92 93 71 60 61 61 64 67 57 52 50 69 83 84 88 74 67 47 57 53 52 47 40 54 49 40 40 38 43 44 47 50 49 48 50
87 89 85 82 86 91 92 89 84 87 82 92 61 62 62 58 64 64 54 48 55 58 86 97 86 74 45 49 46 47 44 51 56 50 43 49 44 38 38 49 52 53 52 54
87 86 87 91 97 86 96 94 94 94 86 87 77 67 61 60 59 60 59 57 58 63 82 97 100 68 62 57 55 54 49 51 57 52 37 38 38 42 47 54 56 54 55 57
85 87 83 92 87 90 94 72 75 86 93 95 82 58 57 54 57 61 62 61 62 64 70 76 74 86 92 67 57 39 36 39 38 42 43 44 48 51 51 56 54 54 54 54
86 91 93 91 83 96 82 78 86 82 89 87 84 78 49 53 70 70 66 60 68 68 77 65 66 76 99 86 60 41 39 40 47 50 53 57 53 54 57 54 52 58 57 56
89 93 87 68 92 96 89 91 92 93 98 98 89 83 69 68 85 71 60 68 70 65 60 54 61 60 92 99 63 46 47 48 53 53 52 54 53 51 51 56 59 61 60 54
91 79 74 88 94 79 91 86 93 100 99 95 91 92 95 94 99 83 69 64 74 53 70 61 53 74 99 85 65 59 56 55 53 58 57 55 56 58 63 65 65 64 61 59
77 70 72 83 82 74 71 99 100 100 100 100 94 94 94 98 98 99 94 77 96 79 63 63 83 88 80 78 65 56 57 58 58 63 73 86 93 79 69 73 70 69 68 65
82 81 78 83 73 89 79 93 100 97 95 95 89 97 96 86 100 100 98 100 98 100 98 93 100 96 79 74 66 63 60 58 60 60 62 62 65 72 80 85 77 70 69 72
88 93 91 95 80 87 94 94 96 97 96 100 99 83 83 99 97 100 100 100 100 99 100 100 96 82 75 67 67 66 62 62 63 62 63 64 71 80 89 92 82 73 64 72
94 85 95 84 85 88 82 84 82 85 90 84 87 92 78 95 98 99 99 100 95 90 100 79 74 82 74 72 69 69 65 65 64 67 69 66 70 86 94 95 95 95 78 66
80 83 62 86 83 78 80 76 83 82 90 85 81 82 87 94 100 100 100 94 93 91 90 77 79 76 68 67 68 66 69 68 68 71 70 71 72 76 86 96 99 100 97 96
89 83 70 75 67 84 86 95 90 83 84 87 86 90 93 98 100 100 100 98 87 67 72 82 85 76 70 68 68 66 64 64 68 70 68 70 72 70 69 75 74 85 88 87
93 93 90 72 84 84 85 91 89 81 82 82 94 98 98 96 99 100 99 94 88 82 98 88 74 72 62 59 65 65 58 51 56 69 73 74 74 74 72 70 74 75 85 97
97 90 77 78 84 81 68 56 60 72 81 85 91 93 97 94 98 96 84 88 94 97 91 82 76 74 62 56 62 62 52 53 56 64 70 79 77 62 57 64 85 88 80 81

GFSNW_925_rhum_036.txt.gz
RH
94 95 93 92 88 83 87 83 92 74 87 90 70 86 65 68 52 49 46 46 48 47 46 45 46 53 51 39 39 48 50 65 93 93 58 50 67 67 63 85 75 64 68 50
95 95 95 93 87 86 93 78 64 74 75 83 63 57 55 54 51 49 44 46 46 44 43 51 48 52 45 42 46 49 49 76 94 78 66 55 63 54 55 55 74 81 80 52
95 94 94 94 83 86 94 74 89 75 72 58 62 58 53 59 59 50 44 44 42 45 45 39 52 55 51 44 47 48 46 56 78 85 73 67 74 61 57 67 90 61 56 44
96 95 94 94 55 71 89 64 83 69 96 70 65 58 58 54 60 54 45 48 45 42 47 44 48 53 56 50 58 46 52 88 74 50 54 68 65 61 60 76 67 71 42 37
96 96 95 95 57 53 61 82 90 75 70 59 61 70 58 61 57 58 48 52 42 39 44 41 49 50 48 49 52 50 55 93 83 81 55 59 72 64 55 60 60 58 52 45
96 96 95 96 69 61 52 59 67 84 65 58 58 69 66 62 64 58 54 59 57 47 66 56 48 39 37 42 53 56 61 91 92 84 57 61 82 68 62 57 53 54 63 43
96 97 96 97 90 71 67 72 84 71 67 52 63 62 62 65 66 72 59 59 60 53 42 41 38 38 39 43 44 45 61 79 92 94 76 95 54 46 47 53 50 49 44 40
95 96 96 96 96 76 75 76 73 67 59 39 45 51 55 60 57 64 64 69 66 49 56 58 58 60 54 50 47 49 47 65 88 94 89 61 48 53 53 56 55 44 48 42
89 91 96 94 98 82 80 79 76 66 67 50 43 48 42 68 70 57 64 63 62 60 74 66 71 82 56 71 68 54 49 50 65 73 82 75 62 48 42 46 82 46 45 47
80 87 94 85 85 87 85 86 70 75 69 45 50 60 75 60 70 75 60 68 68 65 76 71 71 71 43 61 58 73 75 70 85 78 68 62 58 56 48 84 73 47 44 45
77 86 89 91 93 90 93 87 74 74 72 64 55 47 51 50 45 64 63 74 73 72 83 78 73 67 55 50 46 62 72 79 77 70 74 82 57 60 71 61 54 55 54 54
85 86 83 77 77 94 99 92 94 84 87 69 66 67 63 59 51 59 58 69 73 94 96 81 69 64 52 54 67 48 66 58 63 59 62 47 43 48 52 51 56 55 60 59
89 86 83 81 76 93 97 97 91 88 91 76 68 60 60 64 66 64 63 57 72 79 86 98 95 88 60 67 63 55 48 44 60 52 45 46 44 48 50 51 58 57 58 57
90 84 83 80 88 87 85 90 85 86 85 91 67 58 60 60 58 67 66 56 54 58 80 95 99 89 59 66 59 60 55 54 58 60 51 49 45 48 53 57 57 56 56 56
88 85 83 91 91 84 84 88 85 90 90 88 86 71 63 57 61 62 61 58 63 76 89 88 91 98 88 71 70 73 58 63 73 70 48 49 46 48 51 62 62 58 56 59
82 84 86 94 85 82 92 90 79 87 85 97 89 63 58 53 56 58 59 63 68 75 77 81 81 78 97 99 77 54 45 46 46 53 47 59 60 62 59 59 60 56 57 59
83 88 92 87 70 91 86 88 89 84 84 91 90 88 55 51 64 71 72 65 74 73 79 80 77 70 92 100 94 58 43 40 48 56 61 64 58 68 63 57 55 59 62 61
90 87 79 70 85 88 92 85 90 91 98 97 96 90 81 66 85 86 70 77 82 90 83 75 73 70 74 92 79 76 70 51 60 62 60 61 59 55 55 60 64 69 71 66
80 67 76 87 86 79 92 79 89 100 99 98 93 97 97 95 99 98 86 70 85 71 84 76 69 75 92 74 58 82 81 60 63 67 60 57 60 69 70 70 72 76 76 73
79 72 71 90 83 69 74 99 99 99 100 100 95 96 96 96 100 100 96 95 92 98 81 76 80 79 57 61 78 76 68 66 67 74 84 91 91 80 78 82 82 81 81 80
85 78 81 84 79 85 83 96 100 100 97 94 87 96 98 82 100 100 98 98 99 99 96 89 99 90 82 77 71 66 63 62 64 65 66 69 71 82 88 90 86 79 73 75
85 87 91 88 77 94 93 96 97 95 98 93 99 89 86 86 95 100 100 99 99 99 100 100 99 100 88 81 76 74 69 62 64 62 67 69 77 86 91 92 90 89 85 66
92 84 95 93 94 87 82 92 89 94 97 96 93 91 81 85 98 99 100 100 98 95 100 98 99 89 76 73 72 71 66 65 67 71 69 69 75 87 92 94 96 98 94 92
95 92 66 89 90 89 91 92 96 97 97 94 90 92 89 85 97 100 100 98 99 99 98 95 99 84 77 74 71 71 74 72 74 75 74 77 77 78 79 84 81 92 96 98
97 93 83 92 85 93 95 99 96 94 94 97 89 92 91 95 99 92 99 98 97 97 94 100 96 81 75 76 72 73 71 73 76 72 74 75 73 73 72 72 72 73 86 94
97 96 96 83 93 94 95 97 96 96 91 96 96 98 99 95 99 99 99 99 98 100 100 98 90 80 68 69 73 66 55 56 65 72 72 73 75 76 75 73 81 81 81 84
97 97 89 92 94 95 90 65 71 75 90 97 85 94 95 96 99 98 99 100 100 100 99 98 90 81 69 62 70 61 52 54 60 63 71 78 73 57 50 56 59 83 81 75

GFSNW_925_rhum_042.txt.gz
RH
96 96 94 95 91 91 80 92 95 85 85 99 97 92 71 65 59 54 60 53 54 56 53 60 71 71 65 68 62 83 63 91 100 98 84 72 74 85 66 91 90 84 83 62
94 96 96 96 89 80 88 98 91 86 91 96 83 65 67 64 62 57 55 54 51 49 51 66 64 62 53 61 58 68 61 88 98 98 90 84 96 88 72 68 78 82 78 53
95 96 97 80 65 55 81 92 87 84 94 88 78 70 62 71 59 58 50 51 47 50 48 54 66 65 55 50 50 49 51 75 77 81 70 84 98 89 82 80 92 72 81 51
98 97 95 63 45 47 74 93 91 83 92 76 76 72 65 65 66 62 51 53 51 53 54 55 69 65 60 54 51 52 56 80 72 62 68 71 73 77 80 94 69 83 56 60
96 97 96 65 51 28 61 93 90 91 92 82 74 78 81 75 74 69 68 64 68 59 73 64 63 62 62 61 57 56 70 92 75 75 61 65 70 71 75 78 78 78 61 67
96 96 96 90 65 48 69 79 80 97 74 61 75 77 75 76 78 64 69 73 68 70 66 62 61 50 51 51 63 68 74 88 88 83 68 66 76 70 70 70 64 67 72 48
94 84 96 95 85 66 66 83 90 85 76 57 58 48 52 56 71 78 71 79 66 66 72 61 51 51 57 57 57 63 80 80 88 95 75 89 53 49 51 59 60 56 54 48
90 94 96 95 82 77 76 72 82 91 72 62 43 51 54 69 76 74 77 79 76 80 69 69 71 76 58 57 58 63 66 82 93 94 96 69 56 58 63 67 60 52 56 52
85 89 88 94 82 75 76 81 73 88 79 74 62 59 75 84 90 81 78 69 66 72 88 81 81 91 68 75 65 60 60 60 80 92 94 89 52 50 45 50 74 51 52 54
81 81 81 94 78 79 78 83 79 75 91 75 68 72 71 63 59 71 72 62 80 73 90 89 86 82 62 81 83 80 77 75 88 88 83 74 50 48 50 71 61 61 53 51
80 76 78 91 85 83 77 86 87 78 94 88 66 62 67 72 72 79 70 80 83 87 87 87 82 79 67 64 63 75 74 84 90 85 94 88 52 58 69 60 58 60 56 57
90 80 78 87 93 86 83 83 87 78 90 84 79 71 71 71 65 73 75 70 88 94 96 95 98 92 70 72 79 64 73 67 78 77 74 48 53 54 53 57 59 57 60 64
90 75 75 75 93 91 91 89 83 94 94 84 72 67 56 62 61 62 74 76 75 79 85 95 92 97 91 88 83 65 57 59 64 62 51 55 48 54 58 58 56 57 60 64
86 73 74 81 90 80 84 88 90 88 94 93 77 62 66 58 63 63 67 68 65 72 84 82 90 93 90 94 84 82 67 60 65 68 58 58 54 56 58 59 61 62 60 59
73 72 77 86 79 78 73 73 86 83 79 91 84 68 61 56 63 68 71 72 71 80 87 96 85 88 94 87 92 77 66 69 75 74 56 54 51 49 62 70 69 68 67 65
72 74 77 78 70 87 93 91 84 86 84 98 90 69 64 58 56 62 65 70 74 81 86 89 86 77 93 95 87 68 42 44 76 85 77 69 63 64 67 71 73 69 67 61
75 78 71 70 78 69 79 84 92 91 85 93 94 96 69 53 59 79 80 70 81 82 87 92 85 78 87 90 99 50 44 41 42 54 78 76 70 72 74 72 70 64 64 66
72 66 70 79 78 75 78 85 92 93 88 90 95 91 84 79 93 94 80 87 88 88 89 88 94 82 80 93 71 60 56 55 50 70 86 84 72 72 74 73 71 73 76 77
66 73 78 84 75 78 76 74 90 92 91 98 96 99 97 87 91 92 96 86 97 83 96 90 78 78 93 70 64 63 59 83 89 91 91 89 78 81 81 80 82 82 84 84
75 73 75 91 79 78 84 86 90 92 89 98 94 98 98 91 94 95 100 97 95 99 86 82 86 85 65 70 96 86 72 88 88 96 98 98 98 90 84 89 90 90 88 82
75 82 92 81 84 79 89 83 92 90 91 90 80 96 90 84 96 95 92 99 98 99 95 87 97 96 99 88 98 97 91 84 90 89 93 95 89 87 92 95 92 90 90 80
73 74 83 79 83 93 89 100 90 90 92 91 88 94 93 93 91 100 98 98 100 96 98 97 96 99 97 96 98 100 99 99 88 87 90 86 90 94 93 90 90 92 93 94
74 74 83 83 89 62 59 63 76 82 93 96 98 96 92 89 91 98 98 99 96 99 99 99 99 92 96 98 78 92 99 97 100 100 99 99 96 90 92 90 86 90 91 93
90 76 54 79 83 82 92 86 86 88 98 98 97 90 99 92 98 94 100 82 100 98 97 97 86 88 97 97 90 75 78 94 100 100 97 98 98 83 78 77 76 78 90 97
98 79 68 79 85 95 99 97 95 92 98 99 96 82 93 96 97 94 98 98 98 96 94 92 86 97 98 97 98 79 63 68 76 91 99 97 99 97 79 82 81 80 80 80
93 93 82 93 88 89 98 100 98 96 94 98 90 90 90 92 99 96 93 94 94 90 95 92 94 95 94 98 98 98 66 59 68 71 86 90 81 71 60 59 59 83 82 80
92 94 94 98 97 96 96 93 88 87 90 94 97 98 90 92 92 98 96 97 91 94 95 96 92 93 94 98 97 96 92 61 93 88 91 97 96 92 53 49 53 72 76 81

GFSNW_925_rhum_045.txt.gz
RH
96 96 97 94 93 89 77 88 96 87 86 100 95 94 76 64 60 61 61 55 56 58 56 74 72 92 80 70 70 80 68 80 94 92 84 74 77 85 78 90 87 87 84 72
96 96 96 95 94 70 81 95 93 92 98 98 87 70 68 66 65 60 56 57 54 50 53 72 66 65 62 72 70 78 71 91 98 95 94 87 95 90 78 73 80 87 85 68
94 96 92 94 91 52 81 91 92 88 98 93 84 83 66 71 60 59 54 54 49 50 52 63 71 68 57 57 55 54 54 79 77 81 70 86 97 88 86 76 98 80 74 62
96 95 77 71 81 53 69 94 95 85 96 84 80 75 81 70 62 66 58 57 58 54 55 60 74 68 61 56 54 63 60 81 80 68 66 82 88 86 82 90 76 86 61 64
78 73 83 74 52 37 68 91 92 91 90 75 76 79 83 82 76 76 70 71 70 64 72 66 71 66 63 58 58 62 69 89 73 76 62 70 75 78 87 85 76 72 71 76
71 75 91 92 64 50 70 83 85 93 68 56 78 70 81 72 76 70 75 82 68 70 68 65 62 55 54 54 64 72 73 88 87 84 78 66 73 65 72 78 73 76 88 60
73 75 80 94 92 70 69 88 88 78 65 56 47 50 50 62 72 77 72 84 73 71 80 71 54 58 61 60 62 68 78 79 86 93 77 91 56 45 56 63 63 67 67 56
74 72 75 80 96 80 76 80 82 81 73 70 50 56 73 72 74 77 83 81 77 86 72 70 72 77 62 59 63 68 66 82 93 93 96 71 49 58 61 62 58 54 63 57
70 69 76 73 75 76 78 81 79 84 73 83 72 67 72 79 72 77 71 63 59 74 86 82 81 90 71 77 71 60 64 62 80 93 94 91 52 56 48 51 76 51 56 53
69 66 72 72 75 79 80 86 83 74 89 81 76 82 76 63 61 65 68 58 82 77 89 88 90 86 64 84 79 84 81 80 94 89 89 79 55 49 52 70 57 64 58 60
72 66 74 79 78 75 78 91 80 79 93 82 74 71 75 74 74 72 66 80 81 89 88 89 84 86 74 70 66 73 80 87 87 86 93 91 47 58 69 60 64 62 65 60
79 71 70 82 81 75 75 80 84 82 83 80 82 73 70 72 65 77 74 72 89 92 92 91 94 94 83 75 79 65 76 67 74 80 79 52 48 61 52 60 64 59 64 59
78 71 73 88 82 72 72 82 89 78 91 75 71 69 62 64 64 65 73 81 74 78 86 93 86 90 95 94 86 70 61 62 67 64 51 58 53 50 61 56 59 56 59 65
77 74 77 84 75 72 64 78 88 84 90 91 78 66 65 58 62 64 68 67 67 76 86 82 89 90 92 96 91 92 72 68 70 74 63 60 54 56 53 57 60 61 59 59
79 76 79 81 71 71 64 74 89 88 81 85 77 69 60 57 64 68 70 72 74 81 87 93 79 82 91 82 88 94 62 65 82 66 86 88 74 63 63 67 68 68 67 67
79 76 77 70 74 84 77 87 85 88 89 94 90 72 64 61 58 65 69 75 78 83 83 86 85 77 91 92 94 67 63 48 58 68 48 70 57 68 74 71 71 72 71 66
78 72 69 71 70 75 68 84 90 91 80 91 90 93 73 56 66 82 82 71 83 81 88 90 86 78 88 91 91 54 50 48 51 55 61 70 80 91 84 82 72 69 67 68
70 68 73 70 71 72 74 90 86 80 85 85 93 87 88 85 94 98 82 89 89 89 89 89 94 83 81 86 69 54 52 58 63 83 88 91 93 84 79 74 75 73 76 78
68 78 72 73 64 71 72 84 87 82 85 98 95 100 96 83 91 94 98 90 99 86 92 91 81 81 91 80 90 95 96 96 81 80 90 90 90 91 84 84 78 79 85 84
77 78 72 88 79 78 85 92 88 94 92 95 94 94 97 91 92 94 99 97 94 94 86 84 82 79 70 90 96 96 98 98 93 98 93 97 98 98 90 95 91 90 88 83
72 83 92 82 85 79 87 96 94 94 90 88 79 88 85 83 86 95 92 97 97 99 96 84 96 93 77 96 96 94 98 100 99 95 95 99 98 99 96 95 95 93 92 85
65 70 79 77 86 90 81 99 89 88 86 91 95 94 93 94 90 100 97 98 99 97 96 97 96 84 74 97 97 95 87 100 100 97 98 98 98 98 96 92 91 92 92 94
57 63 79 80 86 58 53 54 74 74 92 97 99 95 96 91 91 93 100 98 98 98 98 97 84 77 80 96 99 93 79 94 97 99 97 98 97 99 98 80 77 85 91 95
83 69 56 77 77 78 85 83 85 85 96 100 97 87 97 94 98 92 99 79 98 98 94 90 93 77 90 92 96 90 79 65 90 99 97 97 99 98 99 97 82 82 85 91
91 76 61 75 86 95 97 95 97 94 97 98 95 94 85 87 92 93 94 88 98 93 89 94 91 84 94 94 93 97 96 67 67 76 97 100 99 99 98 92 75 84 80 80
89 90 84 94 87 90 100 100 98 96 95 97 81 88 85 85 93 86 87 86 88 87 96 94 89 90 90 91 95 98 96 84 60 79 85 97 98 97 95 57 49 74 85 82
88 92 95 95 96 92 98 96 90 90 88 87 96 87 73 89 91 93 91 95 90 93 94 96 91 91 87 86 90 94 94 93 76 84 94 99 99 98 98 97 66 58 70 73

GFSNW_925_rhum_048.txt.gz
RH
97 96 95 96 95 54 76 88 95 89 88 100 95 98 80 64 64 65 64 58 58 64 87 92 87 90 77 70 75 77 69 81 95 99 86 80 77 78 75 89 85 89 85 74
96 96 96 87 64 41 82 92 97 95 97 93 89 75 68 67 65 65 59 58 56 51 61 76 69 68 65 71 70 74 75 89 96 98 90 88 93 90 81 76 83 90 90 71
79 83 75 59 41 54 79 91 93 89 98 93 90 84 77 71 62 61 57 57 52 50 64 70 73 70 65 62 59 62 58 82 78 85 71 80 96 94 88 77 94 77 76 67
65 75 59 52 42 50 65 93 96 88 94 91 84 77 82 76 63 67 68 63 66 56 61 66 77 69 65 60 66 73 64 85 80 70 64 89 88 83 87 94 85 87 62 66
65 77 65 51 45 37 68 86 89 91 86 74 80 82 89 86 79 75 80 85 76 65 73 72 73 69 66 67 60 76 69 89 73 76 64 79 85 79 87 81 80 85 76 75
70 75 73 61 52 44 71 86 88 88 65 65 77 63 72 67 77 76 80 84 68 77 80 77 70 63 59 57 67 76 74 88 88 86 78 69 80 69 72 82 80 76 92 66
69 76 76 67 61 56 65 91 85 74 64 56 50 56 54 74 78 78 74 82 70 78 84 77 60 63 65 62 69 70 78 78 85 89 77 89 56 46 55 67 60 72 74 65
66 72 72 71 66 69 69 85 82 72 74 72 58 66 73 71 73 76 85 76 64 67 73 70 72 79 64 61 63 69 66 81 95 92 95 68 46 58 62 64 58 55 65 61
65 68 68 71 67 67 71 85 79 79 74 87 80 72 73 75 71 75 66 57 59 74 83 79 80 89 72 80 73 65 64 64 78 96 94 87 48 56 51 53 72 49 58 63
65 70 70 69 65 65 63 87 77 72 93 84 78 84 79 66 64 68 67 58 84 79 86 88 90 88 65 83 78 83 83 81 94 94 94 80 58 54 53 69 58 59 65 68
70 75 72 67 67 64 61 90 80 74 91 82 80 75 80 74 76 74 69 82 79 91 92 91 87 88 79 75 68 77 83 89 89 89 91 91 50 59 63 56 64 64 68 67
75 78 77 71 68 61 61 79 81 76 80 82 80 72 73 75 67 78 74 76 86 94 89 87 86 95 89 83 80 67 79 69 69 78 75 55 49 61 57 61 69 66 66 69
77 85 78 76 67 58 54 82 74 67 86 75 72 72 64 63 65 68 73 81 75 82 87 91 84 86 92 96 88 77 65 64 68 66 54 65 63 59 61 69 68 66 67 66
81 96 76 74 67 62 54 73 80 77 85 88 76 64 65 60 63 66 68 70 70 78 83 81 88 91 90 97 94 96 81 80 81 80 69 71 61 63 64 54 70 72 72 62
93 91 81 74 66 65 60 67 77 73 70 84 76 70 64 60 65 70 71 72 75 82 88 90 80 85 86 86 86 91 66 72 87 91 80 78 69 58 48 66 82 79 79 70
86 89 80 77 65 64 75 88 77 74 74 86 86 73 66 62 60 65 69 78 83 87 85 88 86 76 83 82 79 65 63 50 50 60 52 58 57 56 61 88 79 79 80 79
89 79 76 88 87 81 73 75 76 74 68 86 91 92 74 71 78 85 84 76 90 87 91 90 85 77 88 91 86 55 58 63 81 89 80 82 72 88 88 91 78 80 76 69
84 80 65 70 68 73 80 97 86 77 74 80 90 85 88 86 94 97 83 91 89 89 93 88 89 81 80 80 65 74 81 89 93 89 90 85 84 90 85 83 86 83 82 79
85 77 72 67 61 72 79 88 82 77 69 94 96 98 96 83 91 92 99 91 96 90 92 89 81 81 95 86 90 97 98 99 99 96 96 84 79 82 94 97 93 91 88 85
84 79 63 83 86 85 89 81 87 92 95 94 97 92 97 84 91 92 98 97 94 98 87 86 92 87 77 76 83 96 95 90 97 97 96 97 97 97 96 97 94 96 95 87
74 79 90 87 89 78 85 96 91 93 87 92 92 95 95 85 96 98 93 100 98 98 97 94 95 96 75 82 86 88 91 80 85 96 99 99 99 98 98 97 95 97 98 96
64 71 82 80 82 84 72 98 86 82 72 94 97 94 93 91 94 99 93 92 98 97 97 98 98 85 68 83 89 88 95 90 84 91 96 97 96 96 98 100 100 98 100 100
56 63 77 76 84 56 44 53 76 74 92 97 96 88 96 90 93 97 99 100 98 98 98 96 86 78 71 88 88 89 93 85 76 82 96 98 98 98 99 99 99 97 91 97
80 71 60 72 72 74 80 75 82 85 94 99 94 94 96 97 98 91 96 82 89 96 98 89 94 75 74 90 90 91 90 93 83 76 92 99 100 98 99 99 98 91 94 89
83 72 53 78 86 98 97 98 97 97 95 98 95 96 82 86 85 87 72 72 88 94 88 91 89 78 87 90 87 90 91 94 94 66 76 94 98 98 98 98 90 83 96 94
86 85 81 92 87 92 99 99 99 96 98 94 94 94 86 80 79 81 85 80 80 87 95 93 89 83 87 88 85 86 88 93 95 82 70 80 91 99 98 97 98 74 91 96
80 87 91 92 94 86 95 97 91 90 89 89 96 81 71 80 90 92 80 88 92 91 91 96 84 87 88 84 85 86 87 89 90 93 84 88 97 98 99 98 98 92 84 90

GFSNW_925_rhum_051.txt.gz
RH
84 97 90 87 82 67 79 86 95 93 89 99 94 98 83 66 66 69 67 60 67 88 81 65 85 87 83 70 75 75 68 82 94 99 85 76 78 74 69 82 82 84 78 65
73 81 67 58 46 53 72 95 97 97 93 89 92 80 72 70 65 64 60 59 55 61 88 93 72 78 69 73 68 74 71 86 96 98 86 83 90 89 76 74 80 90 80 62
66 75 53 48 39 65 70 92 97 90 98 93 97 86 81 74 64 66 59 62 54 54 69 72 76 75 73 65 65 64 63 80 76 81 70 85 97 96 85 77 94 81 69 60
70 62 50 48 39 73 64 93 91 86 97 92 85 82 84 77 72 64 75 66 78 61 67 72 79 70 70 68 76 72 67 87 80 69 63 82 80 80 90 94 83 85 59 62
70 56 52 50 43 54 63 91 94 93 84 73 81 82 86 86 84 84 79 82 78 76 82 77 75 71 72 80 68 88 70 96 73 78 69 80 88 84 88 88 87 84 78 76
65 60 56 50 46 44 70 90 92 78 68 69 77 62 67 69 79 72 84 88 69 88 91 88 79 69 63 63 74 83 81 85 84 80 76 69 76 68 76 80 81 76 87 64
65 65 62 55 46 42 53 80 75 72 67 60 60 60 58 76 81 81 81 78 71 85 79 84 62 67 69 68 77 70 80 77 83 87 72 76 47 47 54 68 63 71 76 66
69 70 68 62 61 45 51 75 70 68 80 66 66 68 72 69 70 80 85 69 58 66 72 70 72 78 64 66 67 70 67 78 93 90 93 64 51 58 59 60 57 53 62 58
66 67 72 65 64 54 53 76 70 69 76 91 85 74 75 74 76 78 63 53 63 71 83 75 78 91 74 83 76 67 64 63 75 94 94 83 47 53 52 51 72 48 59 67
64 71 69 69 65 52 49 82 68 68 94 84 75 81 78 68 66 76 67 62 85 75 82 87 90 88 67 85 82 82 82 82 94 95 92 78 58 54 56 68 63 60 65 72
69 71 69 70 66 58 57 88 71 62 94 86 82 78 83 72 74 81 68 81 82 90 94 89 92 88 82 77 69 78 82 90 93 90 88 88 53 56 69 70 72 73 71 72
74 75 75 67 62 60 55 79 70 59 82 83 77 72 78 74 71 81 80 83 85 97 92 86 84 94 88 90 78 67 78 70 71 76 71 57 63 60 68 70 72 71 78 74
70 80 77 62 53 51 52 70 56 53 87 80 77 76 65 63 66 68 73 84 78 84 90 91 83 84 87 95 89 87 72 75 78 72 68 74 61 65 61 54 52 56 73 78
78 95 76 63 55 52 48 52 59 54 79 88 77 65 68 66 66 68 69 71 74 79 83 80 89 90 90 92 89 94 87 76 83 77 78 56 59 51 54 56 56 78 77 73
93 94 80 66 56 56 52 57 66 61 67 86 81 72 65 63 65 72 70 70 79 87 90 92 83 85 81 86 86 83 74 67 75 77 64 62 62 58 61 66 75 86 88 84
83 87 82 70 60 64 64 76 67 66 62 86 91 74 70 62 66 68 76 77 88 90 87 92 85 76 85 83 73 64 66 60 56 76 74 86 83 72 65 82 88 90 88 86
82 84 91 80 67 77 76 75 81 68 60 82 93 93 73 88 84 87 84 80 92 88 92 94 90 80 87 90 77 55 65 79 83 78 87 87 77 87 80 81 85 81 82 84
82 92 99 97 77 79 79 83 74 66 63 76 86 84 85 80 93 93 88 94 89 94 94 91 92 91 89 82 60 69 76 95 89 82 85 91 89 90 74 82 92 95 85 87
98 96 79 69 66 75 82 83 79 68 65 92 94 87 77 81 89 92 98 92 96 93 92 90 86 94 95 74 78 78 88 98 96 87 87 82 87 92 95 91 96 97 95 90
82 72 69 86 90 88 90 79 80 91 94 93 96 90 97 88 92 93 97 95 96 99 93 93 95 94 74 72 73 81 88 91 86 89 92 96 96 96 96 96 96 97 97 97
81 81 93 93 90 78 81 92 86 89 80 94 96 95 95 87 93 98 91 98 98 98 94 99 99 98 81 77 86 87 88 95 94 86 79 81 96 97 96 96 99 97 98 99
70 76 83 77 78 82 65 94 83 76 70 96 96 95 93 89 95 85 91 86 95 99 97 99 100 90 73 74 86 87 89 94 93 81 76 78 88 98 97 97 98 98 99 99
62 66 74 74 81 53 41 58 77 78 96 96 97 85 95 91 94 98 88 90 96 93 98 95 91 78 66 71 88 89 84 88 93 91 78 77 86 97 99 98 99 98 98 98
78 74 64 68 67 65 74 74 83 88 95 96 93 94 93 96 98 91 75 79 94 97 97 94 94 77 69 80 87 90 86 87 93 95 92 79 84 95 94 97 99 99 90 96
76 72 55 78 90 98 96 98 97 96 94 96 96 96 90 92 81 80 77 67 86 91 91 91 89 75 82 85 85 86 89 90 93 89 94 86 78 88 90 92 98 98 84 88
83 85 81 89 89 100 99 98 99 94 98 95 92 97 96 82 72 76 81 94 91 86 94 91 88 73 76 79 82 83 84 88 89 88 90 91 85 84 90 96 97 99 99 97
77 89 84 87 87 89 94 95 89 91 90 89 95 76 69 78 86 89 77 89 88 91 91 94 79 74 81 84 83 82 80 83 79 80 84 88 91 96 100 98 94 98 99 97

GFSNW_925_rhum_054.txt.gz
RH
45 44 51 70 58 77 89 81 88 92 88 94 81 94 74 65 64 65 66 81 70 62 52 48 63 64 69 59 58 58 56 62 89 98 77 59 54 49 46 57 69 58 53 34
44 47 48 54 46 69 82 78 90 95 98 84 73 67 67 66 59 59 56 58 82 78 75 72 71 71 62 63 58 57 53 72 96 100 86 72 71 61 52 51 61 68 59 40
43 50 49 49 43 48 80 77 94 94 95 87 82 76 71 68 62 62 55 53 47 62 63 60 73 75 69 62 58 63 53 60 67 59 66 62 77 67 63 59 73 54 51 43
47 50 51 46 40 69 75 68 74 76 90 82 73 75 76 68 66 56 58 59 60 51 62 65 69 68 73 67 70 60 55 87 77 56 60 68 66 64 67 86 64 65 48 41
50 52 53 46 42 75 64 65 75 74 66 63 73 73 74 73 76 74 67 65 66 54 60 64 65 66 69 73 70 73 61 90 70 76 62 68 72 62 63 64 61 62 61 62
50 58 53 45 44 54 66 87 85 59 60 60 69 64 62 70 73 68 72 69 61 73 83 78 69 57 51 53 69 82 78 77 80 73 63 60 63 50 52 56 60 60 66 45
55 61 53 46 45 44 48 77 71 50 56 54 56 56 60 71 74 75 68 62 61 72 60 72 49 49 51 51 58 54 66 67 72 77 62 63 44 40 44 48 46 44 46 46
60 64 53 52 40 47 49 59 54 46 54 51 58 61 64 64 66 76 70 56 54 59 60 56 60 61 59 61 59 54 49 55 75 73 61 47 54 52 50 51 55 46 52 49
71 64 58 54 45 50 49 62 49 49 48 64 69 56 61 82 72 72 60 46 58 67 64 59 68 69 62 71 69 58 54 50 54 65 75 62 42 42 45 46 59 56 57 60
72 67 64 57 49 47 49 67 58 57 62 71 62 56 56 55 57 66 57 59 68 63 69 72 71 70 60 67 64 69 67 69 74 70 69 50 51 48 48 65 69 57 53 54
70 66 63 57 53 58 55 72 60 60 65 74 74 71 60 56 52 68 57 70 69 70 78 72 73 65 65 64 61 64 64 66 66 66 69 69 48 53 61 63 44 42 42 46
68 69 64 56 54 55 51 78 59 54 62 69 77 80 79 74 66 56 69 75 79 77 78 72 73 80 74 71 61 58 72 64 63 61 61 58 44 57 49 49 54 51 52 53
69 73 61 57 56 52 49 58 54 54 69 67 61 64 68 66 69 69 51 65 67 70 72 74 70 75 74 69 72 74 66 58 64 55 62 54 45 55 45 49 59 57 60 68
92 76 56 51 52 51 48 52 55 56 67 69 69 67 70 69 69 70 71 66 71 68 65 62 74 72 74 82 76 66 61 47 56 48 44 52 52 48 54 62 60 60 68 73
96 73 61 51 49 51 49 51 58 55 69 73 71 70 67 65 72 74 71 65 62 62 64 68 70 69 63 63 62 58 50 70 78 66 56 66 66 66 69 69 66 66 72 75
86 71 57 56 59 52 53 74 60 57 59 82 78 73 68 74 70 70 69 71 69 68 64 72 71 68 72 59 48 52 53 59 69 78 67 76 76 72 68 70 79 74 76 75
80 74 62 60 64 61 76 73 72 56 53 74 87 84 66 90 84 78 71 75 75 68 75 74 68 65 72 69 57 55 61 68 76 76 81 90 84 93 83 85 86 85 83 79
93 97 76 66 68 72 76 77 66 57 54 65 85 77 72 76 81 79 81 77 72 77 76 76 74 73 73 73 59 53 63 71 82 75 73 76 73 78 82 86 87 89 91 95
95 94 70 64 65 79 85 77 69 57 58 80 74 70 72 68 77 83 87 77 78 77 73 72 73 77 85 61 59 63 67 77 81 73 72 67 68 78 87 86 96 96 97 96
78 70 72 86 96 87 84 67 71 81 82 78 85 83 78 75 76 79 82 86 82 89 75 76 80 74 62 58 59 67 73 74 80 89 88 78 81 74 80 88 88 94 95 97
68 78 90 97 92 73 70 78 74 66 71 80 86 82 78 78 81 81 79 92 87 91 88 82 84 76 63 60 68 68 67 69 75 80 79 76 69 70 80 85 91 90 88 94
62 79 82 76 69 72 64 83 72 62 70 91 80 85 77 82 83 81 85 88 89 93 89 90 96 75 61 58 62 66 68 69 68 70 73 73 73 68 75 84 87 94 93 93
65 66 76 69 69 52 41 52 70 79 93 93 92 84 81 83 82 89 80 92 83 88 93 83 75 62 53 53 60 66 78 77 75 70 71 75 79 80 79 81 85 93 92 86
76 73 60 67 54 51 56 57 76 82 89 87 80 87 86 87 89 83 86 69 90 91 89 86 74 66 58 59 62 68 59 61 73 84 82 82 86 85 84 89 87 92 91 87
70 71 58 72 87 92 88 93 94 89 84 86 88 86 77 84 76 71 69 70 81 77 84 76 72 63 64 60 55 57 60 62 65 67 73 79 85 89 87 83 87 97 99 94
82 83 83 85 84 99 94 94 96 86 86 79 77 88 87 82 76 74 77 85 88 75 83 74 62 56 58 58 58 62 65 67 66 65 64 64 69 74 85 92 90 98 100 100
71 85 76 79 81 84 84 71 74 87 78 79 81 70 64 78 85 84 71 84 75 82 77 70 69 64 62 65 66 66 68 68 68 66 67 70 69 74 92 86 79 91 98 100

GFSNW_925_rhum_057.txt.gz
RH
45 44 52 56 66 77 83 70 78 92 90 93 65 83 66 65 60 62 78 73 62 41 36 42 48 59 58 49 50 60 48 57 75 70 66 53 48 43 42 52 62 43 45 35
42 44 48 48 52 78 73 69 70 96 88 88 64 60 59 56 56 56 56 71 67 59 49 54 55 58 54 54 51 59 48 66 97 92 62 53 58 48 44 39 55 60 53 33
43 44 48 44 47 74 76 64 86 86 86 75 62 58 57 60 55 53 48 47 54 55 54 53 62 64 61 54 52 61 49 50 60 62 60 45 60 50 49 50 69 50 45 36
47 46 48 43 45 40 72 58 57 58 88 71 61 62 57 53 57 50 46 49 49 48 56 57 63 63 65 60 64 52 49 80 74 50 56 60 59 49 48 67 57 58 40 38
55 50 47 43 44 61 66 52 55 60 55 56 60 69 61 54 63 58 53 52 50 44 49 56 59 62 64 65 58 56 53 84 67 82 53 58 64 52 50 51 52 52 47 47
79 51 47 43 53 69 51 61 63 51 59 57 53 54 57 61 59 61 58 51 50 61 71 60 51 46 48 49 58 62 62 69 82 74 54 52 58 44 45 49 46 48 52 38
58 57 46 43 49 60 46 57 51 46 57 52 50 52 56 62 65 63 58 51 52 62 52 51 40 42 44 46 51 51 65 68 68 75 59 67 44 37 40 44 40 40 41 44
57 58 49 43 46 54 54 68 48 39 50 48 54 54 60 61 63 66 59 54 52 54 56 52 58 56 53 53 49 46 44 50 65 71 53 39 51 46 45 48 62 52 54 51
57 59 54 45 42 50 65 68 50 39 47 54 48 56 56 61 62 60 56 42 51 61 56 54 67 72 58 64 63 50 48 44 49 54 60 51 49 43 42 43 58 53 50 49
58 55 54 47 50 52 67 66 55 43 54 57 49 53 59 58 59 55 51 53 56 54 58 64 58 61 49 66 76 68 62 59 69 66 62 46 49 46 44 67 65 46 41 41
63 56 56 52 43 47 64 77 59 48 56 66 58 55 49 50 47 54 54 59 60 60 70 70 64 56 51 53 52 55 60 62 61 54 67 65 42 49 58 55 48 49 48 48
86 55 57 48 47 47 62 70 66 59 53 67 68 69 70 65 61 49 60 64 66 66 67 60 64 66 60 51 57 50 62 52 54 53 57 48 40 44 45 45 51 53 55 52
75 63 59 50 52 52 55 68 60 53 55 57 51 61 66 66 69 68 53 58 60 61 63 58 60 65 62 54 52 58 58 47 57 51 52 49 39 40 43 46 58 56 54 56
86 83 60 55 52 50 49 59 58 64 46 58 69 64 61 68 68 67 62 58 60 54 53 57 63 62 65 60 61 58 52 42 48 40 32 44 42 42 52 63 61 58 55 60
96 87 52 51 49 49 45 48 53 56 63 60 66 59 64 63 65 61 58 53 51 49 58 58 58 56 54 48 46 42 39 48 51 47 58 59 55 55 62 68 66 67 74 72
94 58 55 51 49 43 52 58 54 54 69 72 72 65 68 65 62 60 59 58 55 54 53 60 59 59 65 55 42 44 44 51 57 69 73 75 67 64 63 73 76 77 83 80
86 59 57 53 52 49 74 77 76 49 63 64 83 79 65 78 72 67 62 62 63 57 64 63 56 58 65 61 52 39 48 54 58 65 72 73 65 70 63 69 73 76 80 85
89 58 54 50 48 62 73 68 57 46 57 57 92 86 69 68 71 74 66 64 62 67 66 67 65 66 66 73 51 47 48 53 56 62 59 62 59 56 55 65 77 83 82 80
73 54 49 45 60 68 82 62 54 45 67 85 78 81 75 63 73 74 75 66 70 66 66 62 68 66 82 55 46 45 51 59 61 61 64 61 58 59 59 57 67 77 86 87
51 46 63 82 92 73 69 63 66 75 69 65 78 76 78 66 68 72 74 78 71 84 67 68 71 65 51 47 46 48 51 53 55 70 78 75 81 69 62 57 59 68 74 81
52 71 90 100 88 72 63 80 76 56 74 65 72 72 74 69 76 72 70 83 80 87 81 80 75 65 50 44 46 49 48 48 49 51 54 56 57 60 62 61 59 66 73 80
62 79 82 77 72 79 71 77 73 69 68 75 67 71 64 74 69 67 80 79 84 86 81 85 88 71 50 44 51 46 46 49 50 48 48 49 53 56 62 65 68 72 76 81
54 65 84 77 68 63 61 60 70 77 82 85 76 82 69 76 72 79 74 84 75 80 85 74 72 52 41 41 43 44 55 66 69 60 58 62 65 69 70 69 70 69 72 73
80 84 59 79 65 57 64 62 82 78 80 78 71 79 76 74 79 77 83 62 78 82 78 72 60 53 43 41 41 43 41 46 61 70 74 79 82 82 79 82 79 77 75 75
83 91 61 73 83 84 88 90 84 80 70 74 78 77 66 77 79 64 69 70 75 67 67 76 64 47 44 44 44 46 46 47 51 52 58 67 70 76 73 65 62 72 74 78
93 84 81 77 84 92 87 89 94 79 72 71 69 78 75 80 72 74 77 76 78 69 84 65 45 46 47 50 49 51 52 54 55 53 52 52 52 56 62 66 66 70 75 80
86 88 70 84 73 84 76 61 64 68 71 79 74 64 70 73 80 76 60 77 71 77 74 65 59 64 62 55 54 57 60 61 62 60 61 63 63 69 78 80 70 67 71 80

GFSNW_925_rhum_060.txt.gz
RH
99 90 95 85 76 69 88 73 94 87 83 96 85 83 61 65 65 67 70 74 65 44 38 44 50 71 59 50 53 58 56 63 93 90 76 55 59 54 48 82 74 62 65 48
98 82 95 58 56 74 79 78 79 88 85 96 74 61 60 53 57 62 71 67 63 56 43 56 53 61 53 52 56 62 50 76 96 89 65 58 65 53 50 52 66 73 81 52
98 83 95 48 45 70 77 72 85 82 86 76 84 61 57 62 55 51 46 55 56 53 48 52 58 68 57 54 53 60 60 58 78 90 70 60 67 56 52 59 86 66 64 48
97 88 95 47 44 78 91 73 70 64 93 80 67 61 51 56 59 49 45 50 49 48 57 56 56 60 62 59 63 54 58 80 75 55 58 68 61 56 54 71 66 70 54 47
98 88 90 50 43 77 89 70 67 64 60 55 61 63 57 53 61 62 51 51 48 44 60 62 62 60 58 60 58 55 57 90 72 84 52 56 65 56 50 51 55 56 55 56
98 87 92 52 45 65 72 59 58 61 61 60 60 62 57 58 61 61 56 49 56 68 73 56 53 48 50 51 58 60 63 82 90 77 53 54 70 51 55 52 47 48 62 48
94 96 66 50 42 51 50 51 53 64 68 58 54 52 55 63 62 64 56 53 58 64 52 53 43 45 48 50 54 52 67 72 90 88 72 84 49 42 41 44 47 51 47 58
90 84 54 46 44 58 53 55 60 59 60 55 52 56 62 68 61 62 60 57 55 54 57 61 66 63 58 56 51 47 48 68 85 94 83 54 57 50 49 54 70 59 60 54
96 92 52 45 55 72 59 58 50 62 57 63 49 60 61 72 68 64 57 48 52 60 65 64 75 75 58 69 68 49 49 49 66 64 74 62 60 51 45 44 85 52 48 49
98 89 52 44 52 82 57 54 51 52 66 64 59 65 68 62 58 63 57 55 62 57 72 75 68 77 52 73 74 72 67 64 78 78 79 64 49 47 46 76 77 51 52 54
98 87 53 42 49 58 54 59 56 54 69 73 59 58 60 58 55 66 60 68 66 69 77 76 72 67 59 59 56 56 71 74 76 72 84 80 48 50 64 63 54 58 61 63
87 97 57 49 56 62 50 60 59 50 72 75 64 64 65 65 61 66 66 67 69 75 70 68 70 70 65 60 71 52 71 71 80 66 74 52 42 44 50 58 67 70 70 66
98 97 78 49 55 60 53 63 51 49 68 69 62 68 63 66 67 63 70 67 62 67 72 72 71 68 75 70 72 59 61 50 66 56 59 50 45 55 61 67 72 68 66 64
96 94 70 57 59 54 48 58 58 53 66 78 78 60 62 63 65 63 58 61 59 58 66 73 75 74 71 74 70 70 60 48 55 51 66 53 56 61 69 68 64 65 70 73
97 96 84 58 64 58 52 54 60 58 71 82 80 62 63 62 60 56 53 51 55 63 84 85 78 66 66 57 55 55 47 53 62 75 77 79 70 72 63 68 70 70 75 80
95 94 69 70 51 43 42 80 56 51 48 88 92 69 67 62 60 58 59 58 63 68 72 76 70 62 81 72 59 51 57 57 62 71 70 78 73 65 62 68 71 72 78 79
99 83 70 53 52 48 84 82 57 56 56 85 95 94 72 75 73 71 72 63 74 74 77 76 69 71 78 77 74 53 52 58 62 69 71 70 65 76 64 61 64 70 74 76
97 75 57 49 43 56 62 57 46 40 55 85 95 94 84 67 69 76 70 73 74 82 80 78 76 77 79 92 60 55 53 55 62 62 60 65 64 61 60 61 60 71 74 73
72 51 44 46 57 76 55 46 41 39 59 92 99 95 95 71 76 74 77 76 88 78 80 77 78 82 95 73 59 51 61 61 62 62 64 67 67 74 75 67 66 69 74 74
51 43 61 90 96 65 61 57 76 88 83 91 95 93 96 80 74 72 75 81 75 81 84 81 85 84 63 53 55 58 58 55 54 66 79 72 84 76 70 67 67 68 69 70
50 86 97 98 80 69 73 88 85 85 89 81 86 89 94 77 85 80 78 76 78 82 94 76 76 88 67 56 57 54 52 48 49 49 52 53 58 63 67 67 64 67 70 72
59 76 80 73 77 89 71 90 86 79 84 85 89 83 82 90 75 84 79 79 83 83 88 84 83 85 57 57 54 53 56 56 59 56 57 54 54 58 67 72 74 74 74 75
53 66 78 79 80 79 58 69 84 94 93 95 91 94 90 88 70 74 77 90 92 89 91 78 89 66 49 46 47 46 46 52 62 62 60 63 67 69 73 78 72 71 74 74
87 72 52 70 76 80 89 91 94 96 92 89 90 92 93 81 86 73 88 80 75 77 90 88 91 64 48 45 46 48 49 49 61 64 61 67 74 78 70 70 65 74 80 69
81 82 66 86 94 96 96 96 93 94 87 90 92 92 83 92 90 75 83 82 86 87 87 94 92 61 52 51 51 56 59 60 61 56 58 57 57 63 62 54 60 64 68 69
87 86 86 86 88 96 96 93 94 92 86 92 92 90 90 92 91 86 88 86 89 87 96 93 65 53 63 66 64 61 59 62 62 61 60 59 59 59 59 59 66 64 70 72
85 96 78 91 84 90 92 76 80 74 89 96 93 75 82 90 93 85 79 90 91 96 94 93 71 69 71 67 62 62 64 67 67 67 67 67 64 66 75 83 66 65 67 67

GFSNW_925_rhum_063.txt.gz
RH
100 98 97 76 96 80 97 86 98 81 90 97 93 92 73 55 67 67 73 77 73 68 43 58 73 82 68 53 58 61 64 76 92 86 80 69 65 60 54 82 70 73 74 53
100 98 97 86 93 90 88 95 97 85 84 97 80 66 67 60 64 68 73 70 65 60 62 64 66 69 58 55 63 70 60 78 96 95 74 62 71 59 53 61 70 78 73 53
100 98 96 86 94 78 76 83 98 96 94 88 91 75 74 72 56 59 54 64 64 54 59 54 64 73 59 55 59 61 59 70 74 84 74 73 76 62 58 68 86 66 69 47
100 100 92 72 84 75 91 85 87 72 95 96 87 69 66 72 70 56 53 56 67 54 63 59 69 61 68 62 60 57 66 79 72 62 64 64 62 60 63 71 65 72 57 54
100 99 88 67 79 83 99 91 86 78 85 75 78 69 64 67 72 65 59 58 61 61 74 74 66 58 55 60 63 60 66 88 70 85 56 59 66 61 58 61 62 62 58 58
100 97 89 77 92 98 90 70 63 75 79 79 78 77 60 70 70 62 63 59 75 82 73 58 55 55 58 57 68 71 72 82 92 86 58 57 69 61 56 55 51 57 70 64
100 97 89 83 89 86 61 54 69 78 85 77 75 63 67 72 64 71 63 63 70 66 55 56 50 55 57 59 56 57 75 78 92 89 71 76 52 44 45 66 67 65 67 61
99 100 85 90 86 77 57 55 66 75 84 72 59 63 79 74 70 67 66 63 62 60 62 69 73 71 62 63 62 56 65 80 88 91 90 60 58 53 53 59 76 60 63 56
99 100 89 95 71 59 69 59 54 72 72 77 70 73 76 87 81 71 60 53 58 64 75 74 80 87 67 80 71 54 54 58 75 79 81 71 61 54 50 48 90 55 58 61
99 96 92 96 69 72 58 55 54 59 83 80 70 78 78 66 73 82 64 60 65 63 83 82 80 85 60 82 81 77 75 73 80 83 87 72 55 53 52 72 79 68 69 69
99 97 90 94 87 90 58 58 59 59 92 86 76 74 74 67 73 80 66 70 70 80 77 82 83 77 67 69 72 70 76 82 84 84 90 91 50 55 68 69 69 77 76 75
99 91 92 72 87 93 57 61 58 55 83 81 66 68 68 68 68 76 76 73 79 83 80 79 82 78 77 72 82 58 76 70 80 74 78 56 57 79 77 75 79 77 79 78
95 91 93 95 91 64 50 55 51 53 85 82 77 75 62 63 63 61 78 76 69 74 79 83 82 77 84 79 78 70 66 55 75 67 63 62 78 78 75 74 75 71 70 72
96 94 92 95 83 56 52 50 53 46 79 91 84 62 63 64 59 57 58 64 62 67 78 84 85 83 77 82 76 77 73 53 59 63 69 74 83 79 73 73 70 72 71 76
92 86 94 94 70 58 50 56 61 57 65 95 90 70 63 60 57 55 54 57 68 80 86 91 81 79 70 68 63 66 59 60 64 61 78 75 77 75 68 69 72 74 79 86
93 93 91 79 60 54 42 60 49 47 49 90 97 74 78 71 64 63 67 66 76 82 83 85 81 70 81 76 73 54 68 70 68 87 77 83 78 68 65 67 68 72 78 80
91 80 79 68 56 53 73 64 52 52 44 88 98 98 79 75 76 80 84 71 83 83 85 83 81 80 86 86 80 59 64 71 80 77 70 73 70 74 70 62 64 65 68 72
92 92 76 60 50 50 56 58 58 53 64 84 94 97 88 68 78 86 80 84 86 86 88 84 82 82 86 93 70 65 68 73 77 74 68 70 68 66 72 71 68 73 74 75
80 71 54 56 52 60 48 45 46 46 45 96 93 95 95 74 80 78 86 86 94 85 86 84 83 89 96 72 70 68 66 66 70 67 66 68 71 77 78 76 74 76 79 78
65 63 67 81 87 66 56 58 66 86 89 92 97 96 95 86 70 71 82 77 90 93 87 83 85 89 71 64 70 70 67 64 59 62 73 68 84 71 70 70 71 74 78 77
57 88 98 91 73 65 72 83 72 89 87 90 93 91 97 84 91 84 80 76 80 83 94 89 84 90 77 66 66 63 59 54 53 52 53 56 62 67 69 72 70 71 71 74
57 70 72 68 76 84 65 90 81 80 82 93 91 90 91 91 83 89 77 84 78 79 87 80 81 86 62 62 57 57 59 54 56 57 62 61 61 61 69 75 76 72 64 67
53 64 76 70 77 62 42 63 81 96 97 98 94 97 95 87 76 80 87 91 98 91 97 85 89 75 58 56 54 50 49 48 57 58 55 56 61 59 68 78 70 69 70 68
75 66 51 59 61 75 85 77 86 94 94 89 92 96 92 88 89 85 87 88 84 89 97 93 92 72 58 54 51 51 50 55 66 66 58 64 68 67 61 63 61 65 75 68
78 70 45 87 96 98 99 98 95 98 90 92 92 94 84 96 89 83 86 88 94 90 88 92 92 70 62 56 55 58 64 69 71 66 67 65 63 67 66 55 56 60 66 70
85 86 91 90 92 99 97 95 90 96 90 94 88 92 91 96 93 89 91 87 90 82 95 95 80 62 65 68 70 70 66 68 68 67 65 65 67 69 70 71 75 70 70 74
86 97 87 94 90 95 95 91 90 86 88 88 89 69 74 91 95 90 88 88 85 94 97 96 74 69 71 71 66 60 59 64 64 64 61 64 66 74 82 86 68 69 70 70

GFSNW_925_rhum_066.txt.gz
RH
89 91 99 100 90 91 89 91 97 89 90 98 95 93 74 61 70 67 74 76 75 64 49 67 84 81 70 56 60 69 67 81 95 91 75 74 67 61 60 78 67 78 71 54
89 97 100 99 81 97 95 94 94 89 88 97 90 69 68 60 74 79 80 74 66 64 63 78 73 72 61 57 66 70 59 82 97 85 70 63 69 60 56 62 72 78 70 54
84 96 100 99 89 86 72 92 97 97 96 90 89 80 76 75 60 64 67 65 64 62 62 61 72 75 64 58 58 59 59 76 73 83 72 74 79 67 60 65 84 70 68 50
89 99 98 91 100 88 70 83 90 73 94 95 95 73 76 76 72 57 53 59 67 59 65 65 74 67 71 65 62 57 65 79 73 67 67 66 64 66 68 70 63 68 52 55
98 100 89 94 95 100 92 94 94 83 92 84 96 81 78 73 75 63 62 60 56 59 69 66 73 63 62 67 65 63 71 91 70 86 61 63 66 61 62 64 63 59 60 64
98 99 100 85 93 99 98 83 72 77 85 90 88 78 66 74 72 66 64 64 77 76 68 61 56 57 64 64 69 74 75 83 88 89 69 58 69 57 58 59 60 60 70 68
95 97 96 88 97 94 68 65 74 81 91 83 77 70 70 76 66 74 67 64 69 66 57 52 55 61 63 62 62 66 77 81 89 88 67 80 52 50 59 73 72 68 65 61
99 100 95 94 98 93 58 65 70 79 92 80 67 76 83 75 71 69 68 66 66 64 61 72 75 79 67 64 62 59 70 83 92 87 88 62 56 60 58 62 80 63 64 66
97 100 95 93 91 99 79 60 58 73 80 82 78 77 70 84 81 73 64 59 64 70 76 78 82 94 76 85 70 57 62 70 75 83 83 80 61 56 53 51 84 72 71 74
94 81 99 88 94 99 85 58 61 60 86 88 81 82 80 77 80 85 68 66 67 67 86 83 85 86 63 89 87 77 76 78 82 86 88 75 57 52 55 69 64 74 72 74
87 96 98 86 96 96 65 61 62 60 93 85 80 78 72 71 76 82 71 72 73 85 80 85 84 79 70 76 73 75 79 87 88 86 90 95 51 55 68 74 78 77 77 78
99 99 93 86 86 92 49 59 58 56 82 83 69 67 69 69 69 79 83 74 81 84 85 85 87 82 80 79 88 64 78 72 81 78 79 70 81 74 76 74 79 77 77 78
99 99 91 85 91 82 56 54 54 55 84 78 78 76 62 60 62 62 79 82 74 78 81 86 84 76 84 82 80 74 69 62 75 72 72 87 86 80 76 75 77 73 74 79
94 88 82 93 98 86 56 48 50 50 78 88 86 66 65 60 55 57 61 67 66 73 81 87 87 81 81 84 76 78 77 63 68 80 90 88 85 78 79 75 71 72 74 78
98 85 89 93 85 58 49 49 59 46 62 93 90 72 69 62 55 55 54 59 72 83 86 89 81 84 72 73 68 74 64 65 68 70 77 75 85 81 73 69 71 73 80 85
90 82 84 92 70 55 47 59 53 46 47 90 97 80 80 73 68 66 71 73 84 88 82 87 84 75 75 73 67 57 72 73 71 86 80 82 83 76 68 70 68 69 78 79
90 80 79 77 65 53 64 62 54 47 47 90 98 98 79 75 78 83 85 77 89 83 89 85 82 81 88 86 77 63 73 84 84 79 78 80 71 77 68 65 68 68 68 69
89 82 75 82 60 55 60 72 64 56 58 81 96 99 88 69 86 87 88 86 86 90 90 86 84 82 87 91 74 75 84 85 81 75 69 69 68 67 68 71 74 75 78 76
96 80 77 67 52 57 52 54 48 45 45 93 93 94 98 78 83 86 85 88 93 87 87 88 84 92 94 67 72 78 78 71 77 72 68 68 66 68 70 72 73 72 78 78
69 71 68 76 80 60 57 54 59 85 88 92 98 97 95 87 81 80 88 86 95 96 88 84 84 91 75 73 73 72 72 70 68 56 61 59 85 64 64 67 70 76 81 78
71 82 95 95 67 64 72 81 72 85 82 91 95 94 98 86 91 85 82 90 88 88 92 90 93 94 79 71 71 67 64 60 55 53 54 56 62 69 71 72 70 74 74 74
61 74 74 62 74 81 62 88 80 75 83 94 93 93 94 94 83 91 85 91 88 88 88 80 89 88 74 73 67 65 65 55 53 55 58 59 61 62 69 75 76 73 68 65
58 65 74 74 76 48 39 46 78 98 99 99 98 98 94 88 80 88 88 95 97 87 83 91 88 79 71 65 61 59 58 53 52 54 55 57 60 58 65 70 62 66 70 63
77 69 55 62 62 67 73 77 86 92 95 91 94 98 93 88 90 88 88 89 79 97 100 93 91 82 66 62 57 53 48 54 69 70 63 65 68 67 63 63 63 68 75 70
82 69 39 81 89 98 100 98 98 98 86 91 94 93 85 96 93 85 91 89 98 91 86 89 92 77 66 62 59 60 61 68 72 67 72 70 67 71 69 63 68 70 68 69
86 86 90 92 96 100 98 93 90 97 90 92 86 93 88 96 91 85 89 80 79 74 91 93 85 72 67 64 68 70 68 68 67 66 64 62 63 69 74 72 64 60 67 74
84 97 89 94 96 97 96 87 85 87 77 84 85 58 61 92 94 89 88 83 78 86 96 97 77 68 71 76 70 64 60 60 58 57 56 60 59 69 73 82 64 68 69 72

GFSNW_925_rhum_069.txt.gz
RH
80 90 83 100 94 96 93 94 97 94 83 98 92 97 77 66 77 68 75 71 74 61 54 74 85 81 76 61 63 74 69 83 87 89 72 73 73 63 61 76 70 80 70 58
81 97 92 100 94 97 96 98 97 97 89 99 96 73 72 66 76 80 79 75 70 66 61 80 76 76 66 63 67 69 60 85 92 76 64 64 72 62 62 67 74 78 75 63
82 95 96 99 98 99 93 96 97 99 99 93 85 79 82 79 68 73 72 66 65 64 64 71 74 77 72 61 64 67 61 78 71 85 68 72 78 68 62 67 82 73 67 62
78 98 86 96 88 94 99 81 87 75 97 99 93 78 74 80 79 60 68 67 64 60 67 71 74 70 70 66 69 65 63 82 78 73 70 68 68 69 67 73 59 66 57 60
80 99 91 79 80 86 99 97 92 83 82 90 92 85 81 75 73 64 64 66 61 60 66 63 73 65 68 69 67 69 73 94 72 85 64 63 68 64 65 66 62 61 63 65
84 98 92 96 99 87 99 91 75 81 82 96 94 87 80 73 73 67 64 64 75 74 68 62 59 63 69 66 67 77 75 84 86 89 71 58 71 57 61 64 76 67 77 65
94 89 99 80 83 100 87 78 80 84 95 91 89 74 68 80 67 75 72 66 68 68 62 58 56 62 66 64 66 70 77 84 87 89 68 75 52 56 59 76 70 67 64 62
94 86 91 93 93 100 81 72 77 83 97 84 75 75 82 73 73 72 73 72 70 66 58 73 75 80 66 67 68 76 73 82 92 83 86 61 60 65 67 68 74 63 65 66
92 98 100 99 99 92 76 67 72 76 80 86 84 77 73 83 82 76 70 66 68 69 80 76 82 92 76 83 70 61 65 70 79 84 85 81 56 60 54 56 78 72 68 72
94 98 92 96 98 92 100 62 63 66 91 92 84 80 76 75 80 87 76 70 68 68 85 84 84 87 70 88 84 78 77 80 83 84 89 74 57 51 54 67 60 76 73 74
97 96 76 89 88 98 98 63 58 63 96 89 82 78 71 76 77 82 75 73 72 86 81 83 86 80 78 79 74 75 80 86 86 86 89 85 54 57 68 70 80 78 76 76
98 95 89 87 93 97 85 55 59 58 85 83 72 69 70 71 69 82 84 74 81 84 87 87 88 84 82 82 88 71 77 71 78 79 78 76 82 70 76 75 80 78 78 80
98 99 97 92 93 79 57 52 54 55 83 80 75 76 62 59 62 64 80 84 78 80 82 88 86 75 82 84 82 74 70 68 77 73 75 84 83 79 77 74 77 77 77 79
99 94 94 88 79 68 54 50 51 51 79 87 83 69 68 62 59 60 64 71 72 78 85 86 86 78 83 85 76 78 77 66 76 82 87 83 83 80 78 78 73 73 74 78
99 86 83 83 95 75 64 49 52 47 63 91 88 73 72 70 61 59 58 61 75 80 85 90 83 88 77 77 74 79 69 72 76 78 73 76 79 83 77 73 71 72 75 78
91 80 98 90 80 79 54 62 54 48 50 87 94 83 80 74 69 69 75 77 86 87 81 89 87 78 73 74 70 56 72 75 69 72 79 80 83 82 70 70 70 71 74 80
87 78 88 74 68 60 60 67 58 48 48 88 96 96 80 75 77 83 83 80 91 82 89 86 81 80 85 82 72 61 77 83 84 82 80 83 73 81 73 67 66 71 72 70
88 87 80 73 69 59 63 78 60 49 51 80 98 97 88 70 86 84 92 86 84 92 91 88 82 82 88 90 73 72 86 84 76 72 66 65 74 70 66 70 74 73 78 75
89 75 68 61 55 59 65 64 54 45 44 87 93 97 100 79 90 89 85 87 90 88 88 89 85 90 93 62 74 87 89 77 76 73 67 69 63 61 62 64 68 72 76 77
70 70 76 75 73 66 55 48 57 82 86 91 98 95 93 87 90 91 88 89 94 94 91 87 86 89 75 74 73 77 79 74 78 65 67 61 81 58 58 61 66 73 79 79
76 86 93 90 73 66 76 83 66 84 82 88 95 91 98 86 92 95 84 95 94 95 88 90 95 94 83 74 80 77 74 70 59 49 51 54 61 67 72 72 67 70 73 80
67 71 72 66 73 81 60 78 86 72 77 95 92 96 93 94 83 90 85 92 91 89 88 81 93 84 77 78 71 71 71 65 58 54 55 57 60 62 69 73 73 69 65 67
63 76 74 77 76 43 46 45 78 98 98 99 99 98 92 88 81 89 88 95 96 82 85 94 90 78 78 77 73 70 64 54 51 50 54 56 60 61 67 70 63 65 69 64
81 72 51 61 60 70 70 74 84 92 95 93 97 100 92 90 92 89 88 86 77 94 100 94 90 80 76 73 64 59 59 57 72 72 64 67 68 66 60 62 64 72 77 70
75 72 48 80 81 95 99 97 98 98 81 91 95 92 83 96 95 86 82 88 100 92 80 86 89 76 75 69 64 63 61 64 68 63 69 68 66 70 68 60 66 69 68 67
86 87 91 94 96 100 98 97 98 98 88 90 84 85 83 97 91 87 91 79 76 70 91 90 88 78 71 65 64 66 66 68 66 64 64 62 62 65 67 68 66 58 63 69
85 96 90 95 95 93 93 86 81 87 76 75 81 54 62 91 91 81 85 77 74 84 88 97 85 72 69 69 70 68 64 63 59 58 55 56 55 61 71 81 64 66 71 70

GFSNW_925_rhum_072.txt.gz
RH
89 82 85 95 100 86 86 92 100 99 87 97 90 94 85 71 79 69 77 68 71 63 61 81 88 86 78 68 65 75 71 81 96 90 74 74 77 66 58 79 69 78 69 61
89 87 84 93 99 89 89 97 98 100 97 98 96 86 75 70 74 77 76 74 69 69 66 85 79 80 68 65 67 67 62 84 91 76 65 63 72 65 67 67 74 77 76 66
89 89 87 94 99 95 87 96 99 98 98 91 86 86 83 81 69 79 71 66 66 65 68 72 83 81 72 63 69 68 62 79 69 80 64 71 77 69 62 64 79 75 64 68
89 89 94 96 98 87 85 96 98 88 98 96 95 76 78 84 83 66 70 70 65 61 73 67 80 77 71 63 70 67 65 85 81 75 73 70 71 72 67 73 60 63 64 67
91 85 96 99 94 86 90 95 95 80 68 90 90 81 77 79 77 72 70 70 68 59 67 60 65 71 70 74 67 73 74 94 72 83 67 64 71 67 72 65 63 62 63 62
91 83 96 92 99 99 99 99 83 75 77 95 91 84 76 75 71 72 66 68 72 69 67 62 69 76 78 73 69 78 76 83 86 86 72 59 70 58 64 71 75 67 75 63
91 88 97 99 92 99 93 97 81 82 85 93 89 80 71 80 67 78 75 66 68 69 62 62 58 64 67 67 76 73 77 82 87 89 68 79 54 64 60 69 71 68 67 66
87 96 100 99 77 95 85 80 80 85 83 88 78 80 86 77 76 77 76 78 74 66 62 73 77 82 70 71 75 78 72 80 92 84 86 60 60 72 73 66 67 65 66 67
96 99 80 94 86 90 71 71 73 87 88 84 94 78 73 84 82 80 77 68 70 67 80 75 81 92 75 84 72 62 67 73 80 83 82 72 56 62 56 56 72 70 66 69
92 96 92 99 99 94 87 64 65 73 95 94 90 80 80 76 82 90 79 71 69 67 83 85 85 89 72 86 85 79 81 83 84 85 88 72 56 54 55 66 59 74 71 73
80 100 97 90 94 80 86 63 64 68 96 88 80 77 76 75 79 82 76 74 73 84 81 82 86 81 81 79 73 75 80 87 87 88 88 79 67 58 63 66 78 77 75 77
97 95 85 92 89 92 83 56 57 61 85 83 73 72 71 75 72 86 84 73 80 83 87 87 89 82 84 82 82 73 77 71 77 77 76 73 80 75 74 76 80 77 75 80
98 99 90 87 87 96 81 54 54 56 84 81 72 77 64 64 66 66 79 85 80 82 83 89 86 75 81 86 84 76 72 73 78 71 74 76 82 80 76 74 77 78 79 80
100 98 97 94 90 77 67 48 51 54 80 83 78 70 71 71 62 64 67 73 75 82 85 86 86 76 84 84 78 80 77 72 78 78 77 84 84 82 78 80 77 77 76 77
100 87 85 96 81 57 48 47 50 48 63 90 83 72 71 70 62 61 60 64 76 80 83 90 81 90 80 82 80 85 78 75 80 78 69 71 69 84 80 79 73 70 72 71
100 92 80 87 72 61 46 66 56 50 51 86 86 82 78 70 65 69 77 79 86 85 81 89 89 80 74 79 79 58 65 75 66 65 77 78 81 82 73 69 68 69 71 75
99 90 92 89 79 64 58 65 64 54 49 85 93 95 79 75 74 84 82 79 90 83 89 83 80 83 82 78 67 54 80 81 85 83 83 82 79 81 76 68 66 71 72 70
95 90 77 66 63 56 61 68 59 48 54 82 97 96 89 70 83 77 92 83 82 91 91 89 79 85 88 88 71 71 85 84 79 80 66 64 76 74 71 70 72 69 75 74
89 73 62 56 51 61 69 62 50 45 45 91 93 95 95 80 92 89 84 86 87 89 88 90 84 86 87 58 65 84 91 81 75 75 70 72 64 63 58 58 60 65 68 71
68 57 55 78 70 66 58 52 55 79 87 91 95 95 98 87 91 92 87 87 92 92 91 89 90 91 74 74 72 76 86 76 82 70 73 68 79 58 50 55 62 71 76 74
67 83 93 89 78 61 72 82 68 77 77 89 95 92 99 85 92 95 85 96 96 95 88 92 95 94 83 74 76 79 81 80 72 46 46 50 52 59 65 66 65 66 69 76
62 68 68 66 72 82 56 76 83 77 64 96 95 95 90 94 85 89 86 93 91 90 92 90 96 84 73 80 78 77 77 71 64 55 52 53 57 61 67 72 73 69 67 69
58 66 75 75 76 50 51 45 71 93 96 98 99 99 94 92 82 90 88 94 94 77 85 94 89 75 76 81 77 75 73 63 54 53 51 53 58 61 66 70 64 68 70 60
82 74 58 68 70 73 69 68 83 91 95 94 96 99 90 87 92 88 89 78 76 95 100 85 87 75 74 83 75 73 70 63 78 71 62 65 68 65 59 62 64 70 73 64
75 74 56 82 78 90 95 98 98 98 84 91 93 92 82 97 96 84 82 91 100 89 72 82 87 69 79 81 71 66 61 63 66 61 67 64 62 66 63 56 62 68 70 69
84 92 83 91 97 97 99 100 100 99 90 85 87 88 84 92 89 90 86 72 67 66 90 90 88 77 79 73 67 64 62 66 66 63 62 60 61 64 64 64 61 60 66 71
87 93 93 95 97 95 96 92 89 88 77 73 88 52 58 91 86 72 83 75 72 82 88 94 87 76 74 70 65 66 67 66 62 60 56 57 58 64 70 78 67 74 82 80

GFSNW_925_rhum_075.txt.gz
RH
92 91 91 88 92 97 81 94 99 100 94 98 90 98 84 73 79 70 75 70 69 62 66 86 90 86 81 74 67 76 72 80 94 91 74 75 80 68 57 71 67 69 68 62
94 93 95 89 98 90 88 98 98 100 92 100 98 85 79 72 75 73 70 77 68 66 73 85 82 82 69 68 71 68 62 83 91 79 64 62 74 68 68 67 69 72 68 65
90 91 91 81 99 82 85 96 99 98 98 89 87 96 80 82 70 78 68 74 67 65 73 73 85 82 72 67 73 67 61 82 70 82 68 71 74 71 65 62 70 66 60 70
92 93 87 93 94 84 82 98 100 94 99 95 94 88 76 84 82 76 69 71 64 64 73 67 85 78 70 62 71 69 67 86 81 75 74 73 73 72 67 70 59 58 57 67
93 94 85 95 94 87 86 97 99 94 76 87 96 85 76 82 76 75 74 79 68 60 65 60 70 71 70 78 69 75 74 92 73 83 65 65 74 72 70 65 63 61 64 59
92 92 84 92 93 98 91 99 89 82 84 91 95 82 75 75 75 76 72 72 72 74 70 62 70 78 81 78 72 76 76 82 86 86 71 58 71 64 71 72 74 65 62 62
95 92 86 99 98 94 88 91 83 74 96 86 85 75 74 73 75 82 77 70 69 71 67 65 59 66 70 73 81 75 76 79 85 88 69 79 56 68 63 66 70 69 68 74
94 78 100 92 94 82 78 70 77 77 85 88 80 77 81 74 78 82 85 84 78 67 62 74 77 80 66 74 76 78 73 77 88 82 85 56 60 68 67 64 64 66 70 72
87 84 99 96 99 80 76 62 76 76 87 89 92 80 74 83 84 85 81 70 71 67 78 73 79 89 77 83 74 62 67 74 75 79 78 61 54 61 57 57 61 66 67 72
90 95 99 99 92 79 64 65 70 72 92 88 86 83 80 78 83 92 81 72 68 65 82 84 84 89 74 83 84 82 84 85 84 86 84 69 56 56 56 62 52 72 70 74
88 98 92 84 75 82 60 67 66 68 96 84 79 80 81 75 79 84 76 74 73 83 80 80 86 82 82 79 73 76 80 86 86 86 84 66 64 61 61 62 77 75 75 76
92 100 95 93 85 81 67 56 60 60 86 81 73 74 75 78 75 87 84 73 79 83 88 88 88 80 85 82 75 75 77 72 75 75 72 66 70 70 72 76 77 77 73 79
94 97 95 91 85 70 74 53 54 56 82 84 72 76 66 69 70 70 78 85 80 81 83 88 86 76 82 83 84 77 72 75 78 71 70 77 77 79 76 74 72 76 74 80
95 96 94 92 83 72 78 51 52 54 75 85 76 70 72 71 65 67 68 75 78 83 84 86 85 75 84 85 77 82 77 76 78 79 71 77 81 83 78 78 77 79 77 78
97 93 92 91 86 80 73 47 48 48 65 88 77 69 70 67 63 64 63 64 76 81 84 90 79 90 83 86 84 89 83 77 80 77 67 68 64 76 81 82 78 78 77 71
99 96 93 80 55 50 46 62 55 50 56 87 87 80 76 68 63 66 76 77 84 85 80 88 90 82 75 82 84 64 75 73 66 62 71 76 84 82 78 73 71 70 74 74
98 93 96 79 65 57 55 61 61 53 51 83 91 92 76 74 70 82 81 78 90 81 87 82 81 87 85 78 70 45 66 71 78 78 82 80 81 81 78 68 66 68 70 71
91 90 89 82 73 55 60 63 52 45 55 80 96 95 87 72 81 73 91 79 79 90 91 88 77 85 88 89 71 65 82 85 86 88 67 64 75 80 78 71 70 64 66 66
83 79 66 62 53 62 66 56 46 42 48 89 92 93 91 82 92 89 84 84 82 89 86 88 83 82 83 57 54 76 90 80 77 78 72 74 70 71 61 56 54 56 60 63
69 62 60 78 67 66 59 50 56 76 85 90 93 96 98 87 92 90 86 88 93 91 88 90 95 93 73 71 66 69 86 77 80 70 72 68 78 58 47 48 57 65 72 73
62 77 89 84 77 57 70 78 65 75 64 87 94 94 97 86 90 94 86 94 96 92 87 93 95 94 81 74 76 77 85 81 73 47 44 53 51 52 58 62 62 67 70 72
66 67 72 69 69 80 59 76 78 77 55 97 96 94 88 92 87 89 89 91 90 83 92 89 97 83 71 78 76 81 85 82 69 54 51 52 53 58 64 70 70 68 65 58
59 68 75 76 77 58 56 49 67 92 92 98 99 98 92 91 86 92 88 92 89 89 91 95 85 71 74 81 81 79 76 66 58 56 51 49 54 58 63 67 61 61 62 55
85 75 52 69 76 77 73 71 81 86 96 96 95 98 88 87 92 85 89 80 82 99 100 78 86 72 70 84 79 76 74 66 79 69 61 61 63 62 58 60 58 65 70 66
82 79 69 84 79 96 94 97 99 98 88 86 94 92 78 97 96 82 88 92 100 86 65 79 86 68 79 86 80 75 73 68 63 60 64 61 59 64 60 50 59 66 68 72
84 85 76 90 94 98 98 100 100 99 86 92 86 89 86 90 91 93 85 67 62 63 89 89 86 78 81 81 74 70 61 62 64 65 63 61 61 62 63 64 63 67 77 83
90 91 90 93 96 90 96 93 94 90 77 77 84 57 50 86 85 72 82 70 70 84 90 95 88 78 81 78 69 64 65 68 65 60 57 58 59 65 72 82 77 83 83 84

GFSNW_925_rhum_078.txt.gz
RH
92 95 96 83 96 92 84 90 99 97 97 99 98 86 74 65 65 63 60 56 52 52 60 69 70 77 79 58 60 64 58 59 81 71 58 60 66 54 43 45 55 54 42 51
87 94 86 96 91 88 91 98 97 99 90 98 95 78 73 62 63 62 60 63 56 51 63 70 69 72 60 59 62 59 52 63 80 67 54 54 56 52 48 46 47 54 46 52
90 94 66 99 89 87 85 94 100 98 95 88 62 94 68 65 65 64 60 64 53 54 60 62 73 68 61 58 63 65 50 58 66 59 68 63 58 54 50 46 53 40 43 57
95 94 72 99 84 83 79 96 99 92 100 93 83 87 63 64 65 66 57 56 51 51 61 63 69 64 57 55 60 54 51 78 73 58 59 61 61 61 54 60 47 44 44 44
94 95 93 92 91 91 89 97 94 88 72 77 97 79 61 63 71 67 60 57 55 48 53 52 62 57 56 64 52 57 54 79 65 75 49 54 62 61 57 53 52 48 44 50
94 92 87 97 92 84 91 96 91 69 75 76 93 79 64 65 62 64 62 52 53 60 63 55 56 53 57 59 58 57 58 67 75 75 53 50 50 56 59 61 57 49 45 54
94 88 98 95 83 76 81 85 73 60 80 64 94 74 62 68 69 66 67 58 55 63 52 50 45 46 48 48 52 52 56 61 70 75 56 63 48 54 58 55 58 56 55 61
91 80 92 94 83 74 65 70 71 58 77 71 79 69 68 63 64 74 77 72 63 51 51 54 58 56 53 57 55 51 48 50 62 61 56 47 51 57 55 54 52 54 55 58
75 96 86 94 76 66 56 67 71 61 61 83 84 72 61 61 66 70 72 63 62 56 52 51 63 62 66 66 61 53 51 47 47 53 54 41 46 53 51 55 45 53 52 55
92 95 95 94 79 70 55 66 63 64 75 76 78 74 72 66 66 72 69 65 60 56 56 59 61 66 64 59 64 67 63 61 62 60 57 48 45 51 51 52 44 53 51 52
97 90 92 89 76 64 55 70 64 65 69 73 72 72 71 64 64 60 66 62 58 59 61 59 65 58 63 61 62 63 62 61 61 63 64 50 50 55 53 48 57 53 55 55
100 89 81 78 80 67 55 66 60 59 64 69 72 76 79 80 72 67 67 61 66 62 58 62 61 60 64 61 52 63 62 54 49 52 44 49 52 54 56 54 51 59 57 57
98 90 84 89 84 72 56 55 56 57 64 66 63 66 70 73 74 71 61 67 66 66 67 58 60 61 57 56 57 61 60 59 57 56 52 54 54 57 59 58 57 58 58 58
93 95 88 84 82 80 69 49 51 56 61 66 67 66 70 68 68 69 71 70 71 65 61 60 60 57 66 58 58 58 55 62 58 57 53 57 54 58 56 61 62 64 64 62
94 91 92 92 87 81 73 49 51 51 62 68 66 67 66 66 64 67 67 63 60 60 64 65 61 66 64 63 65 62 57 53 53 43 50 50 52 57 58 63 64 62 61 57
95 92 92 86 78 73 61 56 52 51 53 73 75 71 66 67 66 65 65 66 62 60 59 67 68 70 64 63 55 44 53 55 52 47 56 58 67 68 66 65 63 58 59 60
98 85 86 60 59 55 56 57 61 51 49 68 82 77 64 73 67 69 61 66 66 58 66 64 62 72 72 62 55 40 44 54 58 58 64 66 70 65 66 61 61 63 63 62
92 86 84 74 69 54 59 58 52 48 54 66 92 85 68 70 64 61 72 57 58 69 68 68 59 68 70 67 49 51 60 68 70 69 60 58 65 68 70 67 63 53 45 43
85 87 78 74 61 58 64 50 47 42 46 82 79 85 82 71 77 72 67 64 60 73 66 66 69 60 68 47 42 53 67 65 65 73 65 65 62 63 60 52 44 42 41 46
70 60 57 75 68 65 59 53 59 70 73 74 75 81 83 71 75 74 70 73 68 77 69 75 76 64 54 53 49 49 61 64 68 69 67 64 62 52 42 40 45 49 51 54
59 71 76 77 75 56 59 67 64 58 57 71 81 81 83 75 76 71 72 82 83 79 77 79 75 67 60 62 64 63 63 62 58 45 41 46 46 43 44 46 51 55 56 55
61 64 72 72 64 70 60 70 62 67 56 81 84 82 75 79 75 72 79 80 84 78 78 85 74 63 59 67 69 70 70 66 59 48 45 47 47 50 54 54 56 59 59 61
60 61 71 71 70 63 68 61 68 76 79 90 92 90 80 84 76 78 75 82 79 75 87 74 60 54 62 68 70 76 79 74 59 52 51 49 51 58 61 59 64 65 63 61
81 79 65 76 78 76 73 65 71 70 84 90 82 90 77 76 76 74 80 73 72 96 87 64 61 60 56 68 67 66 65 64 71 64 58 62 62 63 59 63 68 66 62 63
84 78 77 80 70 87 89 91 90 90 82 80 82 83 70 83 87 72 81 91 96 74 61 60 65 59 64 70 68 62 59 56 53 55 63 64 62 64 65 63 67 70 71 74
80 83 78 73 86 86 92 95 94 91 79 76 74 82 82 81 82 92 89 72 64 63 76 67 61 62 70 71 68 62 58 55 52 58 60 58 60 62 69 65 69 77 83 86
98 87 75 76 85 86 79 79 77 80 68 76 77 67 59 82 84 79 69 74 64 70 70 72 73 72 75 73 66 63 59 61 64 60 59 63 65 68 74 76 76 85 84 84

GFSNW_925_rhum_081.txt.gz
RH
97 90 98 84 82 74 86 66 98 100 90 99 98 100 71 47 54 48 49 44 41 43 48 55 57 77 78 52 52 55 50 54 70 61 48 49 54 41 36 47 51 43 43 58
86 94 95 94 90 77 84 95 99 93 97 99 99 71 58 48 48 52 51 50 46 43 51 62 55 58 51 51 54 54 44 52 76 60 50 43 45 40 36 36 41 45 46 54
89 95 90 86 88 71 91 87 100 97 92 83 64 57 46 55 54 55 51 51 42 44 51 46 58 58 54 50 52 62 49 50 62 65 70 56 52 43 35 43 53 32 42 52
93 95 80 86 72 81 83 83 94 91 99 66 70 54 42 50 58 52 45 45 41 42 54 50 55 48 48 46 53 47 44 68 67 48 49 52 50 48 41 51 36 41 39 42
94 86 85 85 77 75 84 80 76 65 69 76 68 58 44 51 57 56 48 46 40 37 49 43 53 41 42 50 38 45 44 72 60 70 43 47 55 49 45 45 40 37 37 43
95 95 91 77 72 80 76 82 72 53 62 70 59 47 45 52 50 54 45 40 45 58 56 45 42 41 41 45 47 46 49 59 74 68 45 45 46 51 52 53 48 45 41 46
95 99 90 71 69 72 72 79 54 42 58 58 72 52 49 56 52 57 56 48 48 55 41 38 37 38 39 39 40 40 46 52 66 71 53 60 44 44 49 49 50 48 50 48
98 92 80 70 72 63 68 70 56 41 66 60 54 52 55 53 54 64 64 59 46 43 46 47 50 47 48 47 46 42 38 39 49 57 43 39 41 46 47 49 45 45 48 49
96 86 80 70 68 54 63 75 75 45 53 74 69 55 46 47 52 57 59 50 50 51 42 41 49 52 52 51 46 43 43 39 42 40 46 34 41 45 44 46 42 44 46 49
94 90 79 82 74 63 61 74 66 53 66 65 64 59 61 53 51 55 56 54 51 49 44 45 47 52 52 47 48 52 50 47 50 45 47 40 40 45 45 49 48 44 44 46
89 94 88 77 63 56 60 73 64 62 59 66 62 62 60 56 52 49 54 56 52 45 47 46 49 43 46 48 46 47 50 49 46 49 53 50 40 50 50 45 46 44 46 46
80 82 77 74 73 52 62 61 58 62 57 63 65 68 70 72 67 60 54 54 52 49 44 46 45 45 47 46 38 49 48 47 43 43 41 40 39 43 47 45 44 49 48 49
81 80 77 77 81 77 52 65 60 60 55 59 56 58 63 71 72 72 60 53 56 54 58 45 48 49 45 41 40 47 47 46 48 48 38 42 42 41 46 48 48 50 50 50
87 85 84 79 80 76 72 57 53 64 50 55 62 62 60 68 68 72 67 64 59 54 51 49 47 47 51 44 48 48 45 52 47 46 38 44 44 44 44 49 52 54 54 53
94 94 92 89 82 76 71 50 52 54 63 60 59 58 62 61 60 60 62 57 53 52 57 57 51 52 54 51 55 50 45 42 48 34 41 42 48 48 47 52 57 54 54 52
92 87 87 84 82 74 65 52 51 50 61 66 69 59 55 58 57 55 54 56 52 52 56 56 56 61 61 60 45 33 38 41 42 40 46 49 54 56 54 54 56 53 51 50
97 91 77 63 64 60 58 61 68 47 50 62 80 75 56 62 58 54 50 52 54 53 58 58 54 62 69 62 51 36 35 42 47 47 50 56 58 55 57 55 54 58 54 49
92 92 69 60 55 51 59 56 51 44 57 62 100 91 64 61 56 56 56 49 51 58 56 56 54 58 62 68 44 41 41 44 52 52 52 50 53 58 60 59 57 50 40 34
90 92 72 62 59 58 73 49 45 41 55 88 84 97 90 60 63 60 58 52 62 60 60 55 60 54 73 48 39 40 48 53 51 60 56 54 52 54 58 52 42 37 34 37
87 66 56 70 74 60 56 56 58 68 65 67 73 72 82 63 62 63 61 59 60 85 59 63 68 60 47 41 36 35 43 53 60 70 72 63 59 55 41 37 36 39 41 43
67 61 68 75 66 60 52 76 75 61 71 61 67 75 77 66 74 65 61 85 76 81 77 70 67 59 46 47 47 44 45 51 54 44 42 44 44 40 36 38 41 44 45 45
66 64 68 68 58 69 76 84 67 69 67 70 73 72 66 71 67 65 71 82 78 79 71 78 74 60 55 56 57 56 51 52 50 39 38 37 38 42 46 45 46 50 52 55
55 63 88 68 77 77 74 70 73 74 66 81 81 84 71 75 69 72 72 85 80 66 81 74 64 58 52 56 62 71 67 64 53 44 42 42 46 53 54 52 56 57 54 52
78 93 71 85 82 71 72 62 78 71 74 80 73 80 70 66 74 66 80 62 64 82 86 69 68 59 53 57 61 68 75 74 75 70 53 61 63 61 59 63 62 60 57 58
94 85 82 83 65 76 78 82 83 77 69 75 75 75 60 77 81 62 76 83 88 74 69 75 76 60 61 62 64 60 62 58 55 56 66 66 60 63 64 64 67 66 64 64
93 91 84 66 76 84 83 85 83 80 72 69 68 78 80 78 74 83 86 73 74 75 85 72 54 56 63 64 63 58 54 50 46 46 53 54 55 57 65 66 68 73 76 78
100 94 71 68 81 80 67 57 53 66 70 79 76 77 68 77 79 76 66 80 80 83 73 66 64 68 72 68 65 60 55 52 53 55 53 58 65 63 70 72 65 81 82 86

GFSNW_925_rhum_084.txt.gz
RH
86 92 99 99 84 66 68 74 97 99 82 99 99 100 84 45 49 44 48 43 50 57 51 72 69 78 80 51 54 56 50 65 80 59 48 47 59 45 41 77 61 64 72 77
86 90 84 83 90 74 67 96 98 84 88 100 100 88 54 54 48 53 48 49 46 43 54 83 62 60 49 49 53 61 54 62 91 68 59 50 47 41 45 43 64 58 79 80
89 92 92 79 76 69 75 88 99 95 92 90 93 57 53 61 54 52 45 47 42 45 51 48 56 62 52 48 51 65 62 59 72 89 74 61 60 49 45 59 79 62 64 69
92 87 89 80 76 71 73 80 88 85 99 74 57 43 49 59 57 46 42 43 41 43 51 54 55 50 56 45 48 52 52 72 70 49 50 53 54 53 52 56 43 62 59 60
95 91 94 76 75 80 80 78 84 79 66 68 50 48 54 55 57 54 46 49 48 48 56 51 53 43 52 56 41 46 47 75 65 62 46 51 59 56 55 56 51 44 49 55
99 90 86 77 78 77 67 73 64 58 64 60 47 50 52 59 51 53 53 50 58 66 59 46 41 41 42 43 50 51 54 74 89 78 48 47 64 56 58 55 55 55 61 51
100 79 77 70 68 73 67 73 63 57 66 61 53 49 56 63 59 62 58 52 54 55 45 48 35 39 42 44 44 43 48 60 86 88 68 75 48 45 49 53 50 50 55 50
94 80 76 62 60 51 60 68 74 57 65 53 49 49 56 56 59 64 67 58 52 50 54 54 55 53 50 48 47 49 46 50 71 85 65 43 46 49 53 62 55 48 54 52
98 80 70 71 70 56 61 62 71 70 66 76 65 54 46 54 59 61 59 49 50 54 56 48 54 68 50 53 46 41 45 44 59 58 58 45 48 49 44 47 64 48 48 53
90 78 80 64 55 56 64 59 70 74 77 67 66 68 70 58 54 66 57 53 55 52 61 58 64 66 51 59 51 57 59 58 63 58 64 52 49 48 46 57 64 46 46 51
92 82 74 70 55 55 59 60 64 68 74 72 62 61 68 64 64 63 62 64 64 64 58 60 57 57 55 57 46 51 59 68 61 59 62 67 48 50 52 54 49 47 48 51
93 78 72 76 80 60 61 64 57 57 73 74 63 66 68 70 69 79 59 61 58 70 66 58 55 57 54 51 54 50 61 57 63 53 60 47 45 52 51 50 52 51 51 54
85 78 75 76 78 74 48 58 60 59 72 70 67 62 63 67 68 68 77 68 68 61 67 70 64 63 57 57 53 47 48 49 64 56 45 48 47 44 48 49 50 52 55 57
79 80 77 79 76 74 61 50 51 66 64 73 72 59 60 62 64 67 66 66 63 62 66 69 66 62 58 62 60 60 58 58 56 56 48 49 47 44 50 55 55 56 59 57
97 71 80 79 81 71 67 50 55 58 75 79 72 57 58 58 58 60 65 66 62 70 77 83 75 67 67 63 68 75 61 61 68 58 50 52 58 53 51 56 62 57 58 58
100 96 70 73 72 68 62 78 59 46 68 91 90 64 55 56 56 54 54 60 62 68 74 74 71 66 75 85 72 44 47 44 51 53 52 61 61 59 55 56 61 58 54 55
98 96 81 71 66 62 60 73 58 46 55 82 92 94 62 59 58 60 62 56 67 70 75 77 69 76 82 85 85 44 46 50 53 55 58 62 61 67 62 62 60 56 53 49
89 90 64 60 53 55 60 48 45 39 61 77 98 98 77 61 70 71 65 68 68 72 74 71 72 75 81 91 69 42 41 52 57 57 54 60 65 66 66 60 60 58 48 39
89 91 68 62 61 63 61 46 45 42 57 99 98 99 98 69 75 74 71 68 87 76 81 72 70 80 88 68 58 54 54 60 62 68 61 60 64 68 72 66 51 40 38 42
89 78 66 85 68 55 49 61 70 88 82 86 96 90 94 84 77 78 79 74 90 91 83 80 88 87 61 57 46 46 56 60 70 80 79 67 64 68 60 49 41 43 46 48
66 72 80 67 58 62 62 90 86 85 85 82 85 92 92 76 93 90 75 97 94 95 92 87 93 89 66 54 47 47 58 67 69 54 60 66 64 59 44 44 45 47 48 52
68 69 66 63 73 90 72 88 86 80 85 81 88 82 81 82 81 86 81 94 91 93 88 94 96 85 62 61 59 58 64 67 52 44 46 42 45 46 49 49 51 53 53 53
54 67 87 94 86 89 82 79 87 90 88 92 92 92 83 83 85 86 86 96 94 80 95 94 81 72 68 71 74 70 70 63 51 49 44 44 51 49 51 56 55 54 55 53
94 87 74 82 91 89 88 88 93 91 92 93 90 92 90 80 91 80 93 76 72 92 98 82 88 73 70 73 76 82 84 73 72 70 57 64 63 61 56 54 56 59 62 61
93 94 86 90 85 93 95 95 93 93 88 91 90 94 77 92 90 79 87 86 97 90 81 84 96 71 75 77 78 80 85 80 76 67 72 70 62 60 62 62 62 63 66 66
90 99 97 84 92 97 96 97 96 93 87 91 92 90 92 93 93 90 91 88 82 74 88 94 76 74 76 79 75 74 68 66 61 58 58 62 61 63 65 60 61 67 70 75
97 98 90 89 93 94 95 89 79 79 89 95 94 86 72 89 95 94 84 87 81 94 94 92 70 75 80 78 71 68 60 56 53 56 54 57 59 58 64 78 68 71 71 73

GFSNW_925_rhum_087.txt.gz
RH
82 85 97 97 66 62 66 83 94 92 81 97 99 100 96 83 62 52 50 53 59 60 74 87 77 85 85 66 58 74 71 71 89 60 50 51 60 66 51 78 65 78 84 96
87 85 96 86 73 61 69 98 98 82 80 98 100 94 74 63 58 58 54 52 49 48 73 74 69 66 52 51 57 63 59 71 91 76 60 57 58 51 53 54 68 77 89 96
92 92 96 78 74 77 73 95 98 92 93 94 95 73 59 66 54 54 47 49 45 49 57 58 64 66 54 50 53 57 62 67 76 90 74 67 65 61 57 61 82 79 81 90
96 96 85 71 70 75 79 86 92 82 99 94 97 57 63 68 69 57 45 49 46 47 63 59 59 54 57 51 48 54 60 72 70 54 54 58 63 67 66 70 54 70 78 79
98 91 69 72 68 73 75 90 92 90 86 76 61 58 68 68 65 65 68 71 66 63 70 62 62 53 56 58 53 49 59 72 74 68 52 52 57 64 66 66 63 61 61 62
86 70 68 65 71 67 75 74 70 75 75 73 65 67 69 67 54 60 61 62 68 69 65 62 63 45 47 46 51 59 60 79 91 77 57 52 64 60 63 63 63 58 67 57
86 73 62 57 51 60 68 72 78 77 79 70 66 66 68 74 71 68 66 64 63 57 56 56 48 42 46 50 53 51 55 67 92 84 70 70 52 48 51 54 56 60 61 65
77 73 71 63 57 49 55 67 80 83 76 70 59 62 67 66 67 69 70 62 56 62 62 62 62 64 53 50 48 50 54 62 75 79 77 47 49 52 55 56 61 54 58 61
79 74 58 52 50 51 54 63 71 87 74 78 74 72 58 68 71 71 60 54 56 56 70 59 56 72 57 58 55 46 50 54 69 66 62 51 47 52 47 50 70 50 56 60
79 73 72 63 56 57 55 61 66 72 88 80 75 81 77 70 70 78 66 59 64 56 72 67 70 73 53 66 59 54 68 68 68 69 69 58 49 51 48 54 50 49 51 58
82 68 74 75 72 60 56 60 63 64 88 80 67 68 79 74 78 76 69 68 69 76 70 70 68 68 62 62 50 52 66 74 73 68 68 54 52 53 55 53 52 51 51 53
90 63 66 69 71 53 56 54 62 57 75 76 64 64 65 69 72 83 77 69 71 78 79 74 71 65 66 59 59 55 55 59 64 59 61 50 54 53 53 56 58 54 54 57
88 72 54 61 67 65 50 55 61 64 82 80 74 67 61 64 65 67 80 81 76 73 74 82 75 69 70 67 68 53 53 57 60 54 46 50 50 54 57 52 56 60 62 62
94 88 69 52 57 62 52 53 61 69 79 80 75 59 61 59 63 66 66 70 70 71 80 80 79 74 65 71 64 68 60 60 63 66 55 48 48 53 56 60 63 69 64 61
99 97 95 72 57 55 57 49 49 57 78 82 79 61 57 57 58 61 67 71 75 83 81 87 80 81 73 79 76 87 70 68 69 63 54 54 58 58 55 67 66 68 67 61
97 100 96 83 71 62 53 75 57 42 56 92 90 71 60 57 56 56 56 63 70 79 81 83 81 72 74 89 89 62 61 58 54 54 56 62 66 64 57 67 70 64 63 58
83 90 85 68 65 61 53 61 44 42 55 86 94 97 71 59 60 69 72 64 76 76 83 80 81 80 81 90 92 57 53 58 57 58 62 63 64 69 67 68 64 59 55 52
75 86 67 61 56 57 59 49 42 38 55 90 98 94 82 64 80 79 76 77 80 79 81 79 76 80 85 92 76 55 51 64 62 64 61 64 73 73 71 66 64 62 58 47
85 87 63 65 65 67 65 53 48 44 53 92 98 91 90 77 82 84 80 80 88 83 82 83 76 84 90 67 63 65 55 60 63 70 66 74 74 78 77 72 64 50 44 46
97 82 68 88 68 60 53 64 69 87 86 92 93 93 87 87 86 83 85 86 93 90 83 83 87 87 67 60 64 57 58 61 73 77 77 72 72 81 80 67 51 45 48 50
73 75 84 70 59 59 73 86 78 86 78 86 88 95 90 82 90 91 84 97 97 90 87 83 90 91 79 60 62 54 65 73 70 60 64 68 67 73 66 50 48 49 49 53
66 68 65 64 78 89 68 83 87 81 78 85 88 83 87 82 86 90 85 90 92 87 92 96 96 82 71 64 54 66 79 78 65 58 69 63 60 52 49 51 53 52 52 52
57 65 78 89 84 82 76 75 84 92 92 95 93 88 82 81 87 90 88 92 94 83 97 92 84 75 71 71 69 72 75 62 55 50 47 49 54 48 49 56 55 54 54 56
85 79 73 83 87 89 86 86 85 86 93 94 94 94 92 88 90 88 82 80 77 92 100 80 84 72 71 80 79 82 78 66 69 67 58 62 61 60 54 51 54 56 60 62
82 88 82 90 82 95 96 97 91 92 93 92 91 93 84 95 91 85 86 89 93 88 72 81 89 76 76 83 86 86 80 72 69 68 75 71 64 62 63 58 60 61 64 63
91 98 100 92 91 94 97 96 96 97 92 94 92 93 96 92 92 93 89 83 77 67 88 87 88 72 78 81 83 86 84 76 69 62 61 64 62 61 62 62 60 65 67 71
99 98 94 91 94 87 92 87 87 88 88 91 95 85 70 85 98 98 88 86 78 85 90 96 81 72 77 80 79 79 77 73 66 60 61 62 59 61 62 72 67 69 70 74

GFSNW_925_rhum_090.txt.gz
RH
89 89 84 82 63 59 58 75 94 77 80 95 99 99 97 85 82 73 76 56 57 73 87 90 84 83 86 69 68 82 82 77 93 63 52 52 60 70 58 76 65 85 84 95
89 87 72 69 60 59 66 96 96 74 81 95 97 86 89 79 61 58 54 52 49 58 74 78 72 69 57 62 60 63 57 74 91 70 52 56 66 60 62 61 72 83 85 86
90 82 71 66 70 75 67 91 94 91 93 91 92 87 63 67 58 53 48 51 48 52 63 61 67 66 56 52 53 56 61 70 76 84 74 69 72 70 66 61 84 80 88 93
83 76 73 73 67 66 70 90 91 82 97 87 98 92 67 71 76 59 62 61 64 50 65 61 63 55 54 51 52 54 56 68 70 57 58 56 62 71 72 76 61 66 84 86
73 62 61 65 70 63 71 84 86 93 89 81 66 70 74 72 69 70 67 72 70 70 74 74 68 63 58 58 53 54 64 69 74 67 51 52 51 65 69 71 67 73 67 66
69 66 62 54 54 66 73 81 81 76 76 69 72 76 70 69 56 64 68 67 64 68 68 66 65 65 53 49 53 57 64 80 90 69 65 61 54 55 64 64 65 60 66 58
72 66 59 51 48 52 64 76 79 77 76 72 72 66 69 75 72 66 65 64 58 54 62 60 55 47 48 49 51 56 62 74 91 80 67 53 43 49 52 56 61 60 66 70
68 58 51 48 47 50 50 64 75 81 77 82 67 67 68 63 68 68 63 57 55 65 59 60 62 65 53 48 48 51 57 71 77 76 76 46 48 50 56 58 60 56 65 67
71 61 64 52 52 53 52 62 71 80 74 72 77 78 67 71 73 68 58 55 57 59 71 59 57 64 58 58 57 45 56 63 70 73 60 50 41 52 50 49 63 55 59 65
78 65 59 58 53 53 56 63 68 64 83 80 73 79 77 74 74 75 75 67 65 59 71 67 70 75 55 66 60 51 68 71 68 73 72 58 48 54 48 55 34 53 58 62
84 77 63 58 50 50 51 63 64 65 84 78 68 69 76 75 80 74 71 71 69 77 71 72 71 74 65 61 56 51 56 73 76 74 71 54 56 57 52 44 56 54 58 58
85 90 81 65 51 45 48 55 58 56 70 71 65 63 63 68 69 80 80 73 75 81 82 79 80 70 74 64 56 55 67 59 62 61 58 44 59 46 52 58 59 55 59 60
86 80 87 80 61 43 44 50 58 63 81 79 76 71 62 66 65 66 80 83 77 76 78 85 82 74 75 71 73 56 54 62 67 55 40 56 52 55 57 55 58 60 61 63
99 84 85 86 75 55 42 46 52 62 82 80 75 59 62 60 63 66 65 70 72 77 86 84 83 80 71 75 66 73 60 64 65 68 58 55 52 61 62 62 66 67 64 62
98 100 95 89 82 68 50 42 45 56 68 81 79 67 59 58 59 62 69 74 79 86 83 89 82 84 81 82 82 90 74 70 65 59 49 50 52 60 64 72 73 72 69 64
91 98 98 92 75 69 70 72 55 43 62 90 86 74 62 58 57 59 60 70 75 84 84 85 87 76 75 87 90 66 66 66 57 49 56 59 62 62 62 69 73 73 71 64
74 86 87 69 63 66 63 63 44 40 55 84 84 92 75 61 62 73 76 70 81 81 85 88 84 82 85 90 91 55 60 61 62 59 67 64 66 65 70 71 68 62 60 56
68 79 78 64 59 59 60 54 44 42 58 83 94 91 80 68 79 79 83 80 85 82 82 86 81 82 89 94 75 66 54 60 63 69 60 60 74 77 75 70 66 66 62 52
81 84 72 63 65 68 71 61 54 48 55 85 96 82 77 79 84 87 83 84 88 85 86 86 81 84 89 68 63 60 67 66 66 74 78 81 77 80 78 74 72 66 53 48
94 85 69 84 69 64 57 63 72 85 84 93 92 94 92 85 89 85 88 89 94 91 82 86 94 90 71 65 66 58 58 62 75 75 80 79 82 86 84 78 66 50 47 51
88 79 87 68 60 61 74 84 78 83 80 85 84 94 92 86 89 90 88 94 96 92 83 87 90 89 79 67 69 66 65 67 71 58 59 71 71 82 83 67 52 48 50 52
68 66 63 63 77 86 70 85 86 87 79 89 90 89 86 87 88 90 88 88 91 90 91 96 95 79 67 74 65 68 74 77 71 62 69 68 68 70 64 53 54 52 51 53
58 64 81 83 84 81 81 74 86 94 91 96 96 94 83 86 88 93 87 90 94 84 95 91 81 68 68 75 70 74 78 70 61 60 62 58 58 51 48 56 52 53 53 56
84 79 74 81 91 92 85 81 83 82 92 96 92 96 93 89 91 87 81 76 79 93 100 73 82 63 70 77 76 77 76 65 71 71 60 64 62 58 51 50 53 52 57 61
83 88 84 90 83 94 94 96 93 95 92 92 91 94 82 96 91 88 87 91 93 86 72 78 78 67 76 76 82 81 80 68 64 64 72 70 64 64 64 56 55 57 60 60
92 98 99 90 93 95 99 97 91 96 92 96 90 95 93 90 92 93 92 84 76 66 86 82 82 69 70 79 84 85 81 71 65 62 61 63 65 64 59 65 60 62 61 65
100 99 92 88 89 89 92 81 79 89 88 89 93 83 70 88 98 98 85 84 76 79 83 91 84 73 69 77 84 87 87 80 69 63 60 60 57 58 67 73 68 66 69 72

GFSNW_925_rhum_093.txt.gz
RH
85 79 68 71 62 58 58 77 89 56 75 93 90 99 96 83 77 70 75 64 60 73 84 85 86 88 81 71 80 91 84 82 95 67 52 54 60 68 70 82 72 84 78 91
77 74 65 60 59 63 63 93 94 60 75 95 96 81 86 84 68 64 58 54 51 63 80 81 76 72 60 71 69 69 63 77 92 58 50 56 67 64 66 68 74 82 83 77
68 68 67 61 56 70 65 87 87 87 94 90 90 93 74 70 60 58 54 59 50 57 66 65 69 66 56 56 56 55 59 73 76 83 74 69 72 70 71 64 85 81 86 90
63 64 65 63 60 63 68 92 90 85 96 86 92 87 70 73 78 67 64 62 74 60 66 62 67 60 56 53 55 60 58 67 73 60 62 58 58 71 76 82 73 66 75 78
66 56 52 53 53 58 69 82 81 89 88 85 66 76 73 72 69 72 68 71 69 68 74 72 69 69 58 58 54 56 66 66 72 71 57 62 58 55 67 71 67 71 69 66
66 54 46 44 54 54 72 85 83 78 75 75 74 81 75 72 62 65 67 69 62 64 64 67 67 68 67 56 55 60 67 79 89 69 68 62 52 47 63 64 65 61 65 57
81 55 46 42 41 48 54 70 80 75 77 80 81 74 72 77 78 66 62 62 57 55 66 66 64 67 60 52 52 59 65 77 90 83 63 61 36 51 54 60 63 62 65 68
86 76 53 42 41 39 48 68 73 79 78 84 70 76 73 67 68 73 67 58 57 68 60 58 58 62 46 46 49 53 60 74 78 78 77 46 44 50 61 62 57 61 66 68
78 85 70 55 44 43 41 57 65 72 74 66 74 79 75 77 78 64 55 57 60 59 67 61 56 59 58 52 58 53 62 68 71 75 61 42 36 53 53 48 48 60 66 71
76 78 82 67 56 48 45 56 59 60 77 79 76 76 74 76 77 78 75 73 75 61 72 67 70 78 58 62 61 50 63 72 73 76 79 59 45 55 49 40 29 58 64 67
89 68 78 79 66 60 53 59 57 56 82 78 73 69 74 79 82 77 71 71 70 78 74 74 75 77 70 71 57 52 52 69 77 77 74 53 59 58 48 39 58 54 60 61
77 71 70 78 74 55 60 55 56 54 65 68 65 63 60 63 68 80 81 72 77 83 84 84 85 74 79 68 63 51 68 59 56 64 57 43 62 43 52 59 59 56 58 60
80 77 72 74 71 52 54 56 64 60 80 81 78 76 60 65 64 64 79 85 78 81 81 86 86 84 79 77 77 60 57 65 70 57 39 58 56 56 56 62 56 57 59 66
83 98 83 80 75 59 46 49 58 67 77 79 73 63 63 60 62 66 65 70 75 79 88 86 87 83 73 80 66 74 58 67 68 72 62 59 57 61 62 61 65 65 65 65
91 97 96 89 84 70 57 45 46 56 70 78 77 70 61 61 62 67 71 73 82 89 89 93 88 85 84 87 87 94 76 69 64 59 50 47 43 53 65 72 72 72 69 65
82 97 94 93 83 71 68 74 62 46 70 89 87 73 67 62 62 63 73 80 82 86 88 87 88 82 76 88 90 67 72 68 57 48 48 58 61 60 66 69 73 74 70 65
76 84 98 75 64 66 69 68 52 44 57 84 82 89 78 64 65 76 80 74 84 84 86 92 87 83 86 92 89 52 57 63 63 57 64 62 67 64 70 71 73 70 65 62
76 84 91 70 63 62 64 58 49 46 59 80 90 87 78 70 81 81 87 84 86 86 84 88 88 85 92 97 79 71 63 61 62 68 66 60 71 79 78 75 70 69 66 56
89 91 89 70 67 68 64 66 56 51 53 83 94 83 77 80 87 89 86 87 90 86 90 88 84 89 94 75 68 61 57 61 57 74 74 77 74 81 81 75 73 71 65 53
98 96 76 87 71 67 60 67 71 86 80 93 91 93 92 86 90 87 89 91 94 93 85 88 97 93 71 69 68 71 68 66 79 77 82 81 80 84 83 78 74 68 56 50
99 88 91 74 64 63 74 85 84 85 83 88 85 93 92 86 89 89 89 94 96 93 85 90 93 90 76 64 72 72 69 75 73 64 59 73 73 81 83 80 69 50 48 53
83 74 66 64 76 87 75 88 85 91 78 93 93 94 86 91 89 91 91 90 92 89 91 96 99 80 62 66 68 70 81 77 78 62 63 72 68 78 80 70 56 50 48 51
68 64 80 86 85 83 92 88 87 99 93 97 97 97 86 91 89 93 88 93 95 85 96 93 84 66 60 64 76 70 77 75 72 68 68 66 71 71 63 58 49 51 54 53
80 80 80 85 94 94 86 85 86 85 94 93 91 98 89 90 93 87 84 77 81 96 100 76 80 56 48 70 78 76 76 73 75 76 69 71 69 63 50 47 51 52 55 57
80 84 85 90 81 94 95 95 95 97 92 94 91 94 82 98 92 90 87 92 96 89 77 79 77 47 65 70 75 81 80 76 69 70 78 74 66 66 64 55 52 49 54 58
89 98 99 89 93 92 96 99 90 97 90 95 90 95 91 88 90 96 90 85 83 72 86 82 72 58 64 65 75 83 83 79 68 62 62 64 67 68 62 59 57 57 56 56
100 99 94 91 93 92 90 84 76 91 88 86 94 83 70 90 97 95 85 85 77 80 81 91 74 60 55 65 74 83 85 82 71 64 62 60 59 60 65 83 66 62 61 60

GFSNW_925_rhum_099.txt.gz
RH
77 74 67 59 60 64 49 70 87 49 52 89 95 94 88 77 74 69 69 60 68 74 80 78 84 82 75 70 82 90 80 83 98 73 59 57 63 67 74 87 76 83 82 76
67 68 66 60 56 68 59 84 82 45 47 92 98 76 82 80 73 73 64 62 63 68 78 77 80 76 60 77 83 80 82 84 91 55 49 55 64 64 66 75 78 80 80 70
65 59 60 62 60 66 57 83 84 86 92 90 83 83 80 70 64 67 66 67 59 64 71 70 72 67 59 76 76 64 66 78 76 76 59 70 75 63 70 78 83 73 77 79
65 59 57 65 65 60 56 89 88 85 88 82 81 78 76 75 82 70 66 65 75 67 65 61 66 63 60 60 57 69 66 76 79 75 73 71 73 65 62 78 70 64 59 84
63 60 58 60 68 60 59 80 84 88 87 81 72 82 83 83 76 72 70 69 68 66 69 67 68 72 60 59 57 62 71 76 77 85 66 67 71 66 64 73 73 77 77 76
76 62 57 57 58 64 65 87 81 69 78 78 77 85 77 76 76 63 66 68 67 60 62 65 68 68 69 64 61 65 70 79 87 76 61 64 63 61 63 66 68 63 74 56
75 76 60 54 55 59 65 68 69 67 73 81 80 74 73 69 71 68 61 62 62 52 69 72 74 78 82 77 70 69 70 75 89 89 62 44 32 51 53 60 61 70 67 65
73 73 77 60 53 56 59 71 69 72 71 79 70 70 71 67 67 68 67 59 60 71 56 58 54 56 48 58 59 72 70 75 78 79 78 41 35 45 60 60 42 64 71 67
78 71 72 76 60 52 55 65 70 68 71 62 58 72 73 72 74 68 56 56 65 57 66 59 48 47 52 50 53 71 72 72 73 79 61 36 21 48 54 44 43 45 67 72
77 76 69 72 72 55 56 61 68 66 68 73 74 76 72 78 81 78 74 66 67 60 70 63 66 71 62 64 59 49 62 74 80 79 78 60 42 56 52 37 20 55 68 72
72 77 72 72 71 57 57 59 61 67 79 73 77 68 75 85 84 72 59 61 65 75 65 70 73 80 72 76 65 53 51 68 79 82 80 54 58 59 44 36 52 55 66 68
62 75 83 75 73 66 54 58 63 62 72 71 64 63 61 61 63 81 82 65 71 76 76 81 84 80 86 70 58 60 63 51 45 57 51 39 63 46 51 48 52 56 58 63
50 66 91 90 78 75 59 54 65 66 83 80 74 71 62 63 63 61 75 85 82 82 83 86 85 83 83 81 86 65 59 66 66 55 41 58 53 52 63 60 57 50 56 60
53 60 86 95 96 85 74 60 55 72 80 84 74 66 67 64 64 66 67 73 82 83 89 85 87 84 71 76 67 71 53 69 68 74 60 56 53 59 55 63 64 57 61 65
65 61 82 96 95 90 78 70 66 54 76 86 84 68 69 68 70 70 70 71 83 89 89 93 89 88 84 87 91 97 75 66 60 54 47 42 41 41 56 66 67 71 71 69
81 59 69 91 95 85 69 78 70 50 63 91 87 73 74 74 74 76 81 82 88 89 90 91 90 84 82 91 94 71 78 69 57 48 47 54 53 61 60 62 70 72 75 68
82 56 71 93 85 68 70 77 58 47 56 81 84 86 80 70 72 84 87 85 89 88 89 96 89 86 90 94 86 57 62 66 67 68 62 66 63 60 59 65 67 71 70 67
81 61 74 97 89 74 67 64 70 58 56 79 88 82 74 74 86 86 92 91 91 90 89 92 94 91 95 97 76 67 56 60 70 72 75 66 65 66 70 75 84 79 78 73
71 72 93 97 87 79 71 76 73 63 61 84 93 86 76 84 92 92 91 90 96 90 94 94 90 92 98 79 75 70 69 66 53 59 66 75 81 75 77 81 82 78 80 74
78 98 98 96 77 75 74 78 80 88 84 92 92 91 85 88 94 94 93 94 95 96 88 93 98 91 74 68 72 68 65 68 66 70 77 79 82 82 81 85 80 79 79 70
100 99 98 83 80 70 76 90 91 90 90 87 89 85 92 88 90 91 89 95 96 99 89 97 95 95 83 69 69 72 72 73 78 76 71 66 70 75 81 83 82 78 73 67
86 82 78 73 76 90 85 93 90 93 86 91 91 89 85 92 91 91 98 94 97 99 94 100 98 86 69 66 55 53 62 68 77 80 82 81 72 74 79 81 83 77 66 57
93 86 84 89 87 95 100 98 97 97 92 97 98 98 89 96 92 95 93 98 96 89 99 96 85 69 63 58 58 60 67 76 80 74 80 72 65 70 77 81 74 69 60 52
100 99 98 94 96 95 90 89 88 86 94 95 94 98 92 90 96 89 92 84 86 100 100 89 86 67 56 48 64 72 64 68 82 87 76 73 78 80 76 74 68 61 57 54
100 99 95 96 82 93 94 95 88 91 87 88 90 94 84 96 95 91 87 95 99 91 81 83 83 60 47 50 56 64 73 74 74 73 82 86 80 80 71 70 64 56 51 54
99 99 100 90 92 94 98 96 92 93 84 86 88 92 93 86 91 98 92 85 82 74 88 85 74 48 49 54 54 60 72 76 75 70 67 67 73 76 70 63 59 53 49 52
99 98 94 92 94 91 92 80 81 86 79 88 90 89 73 90 97 95 85 84 79 80 84 91 75 50 48 54 54 59 73 80 78 73 66 62 59 63 69 79 62 55 51 48

GFSNW_925_rhum_102.txt.gz
RH
62 56 60 62 64 37 38 62 87 47 47 80 84 89 75 70 64 62 59 53 58 60 64 64 66 64 62 56 65 69 68 70 84 60 51 49 54 55 52 68 70 61 61 55
65 55 54 61 68 64 49 71 73 44 48 83 80 67 68 64 61 62 55 58 59 61 65 65 64 64 54 61 66 63 66 71 75 54 51 52 56 54 52 58 62 67 63 47
59 60 54 56 61 65 54 60 89 67 72 74 64 63 65 64 60 59 57 56 52 57 58 58 61 58 59 63 62 67 61 64 62 48 44 51 57 53 55 60 70 50 48 46
58 56 57 52 54 55 55 61 78 76 76 58 64 60 65 65 67 55 52 52 59 58 54 52 55 54 50 62 61 62 59 72 65 54 49 54 56 53 50 67 54 54 39 53
71 51 51 52 48 48 64 56 66 71 65 65 59 60 67 68 65 63 55 54 57 53 52 54 52 57 49 48 49 57 60 73 63 78 51 56 60 50 48 47 50 58 51 53
73 65 48 48 50 48 67 88 74 49 68 60 51 62 62 64 68 59 58 58 56 51 54 54 52 51 53 53 53 52 58 63 69 61 46 44 46 38 43 44 47 45 52 36
79 68 61 47 45 53 60 79 65 45 49 54 55 64 65 60 62 63 55 57 56 55 56 59 60 62 63 62 59 54 56 60 70 75 48 46 28 42 44 42 42 45 46 44
78 77 67 61 48 46 56 69 70 51 46 58 60 64 60 58 57 60 61 52 54 57 49 48 42 43 47 51 57 59 54 54 60 63 48 27 29 35 43 42 27 32 42 42
75 75 70 67 60 50 51 62 66 61 47 42 51 56 61 51 52 53 51 52 59 51 50 46 42 31 40 38 44 56 59 57 56 57 50 22 17 39 43 42 32 32 43 41
57 78 73 68 69 52 54 59 64 62 57 53 57 52 53 61 62 53 56 55 61 53 49 43 43 42 51 43 42 50 57 58 64 57 51 33 27 46 43 33 16 32 45 44
50 70 79 72 68 62 55 61 60 67 62 57 65 60 62 70 64 51 52 56 57 58 49 48 45 52 46 56 45 39 37 44 50 54 58 52 41 54 37 25 31 41 50 49
71 59 85 91 74 71 51 59 61 61 65 60 60 61 58 57 56 55 69 54 58 54 48 56 56 53 59 46 32 47 44 32 28 37 29 31 42 36 34 32 36 43 45 48
86 54 74 94 90 81 68 51 57 67 68 62 64 59 62 64 64 60 58 67 65 70 65 55 59 59 53 49 51 50 42 43 41 40 27 36 32 29 39 40 40 40 43 44
85 74 65 95 96 87 83 71 60 64 73 74 60 63 66 64 65 67 68 69 78 71 69 64 61 58 52 48 45 46 29 47 40 42 34 32 32 35 33 35 42 45 45 47
82 87 59 87 96 96 87 78 71 58 70 70 67 68 73 70 69 72 71 73 70 70 76 76 70 62 64 60 68 63 43 40 41 34 26 27 27 33 45 46 46 48 48 54
83 84 64 71 99 98 83 73 67 53 67 75 72 70 72 79 80 78 76 74 72 72 71 70 68 71 64 69 64 46 48 40 31 31 34 34 37 43 46 47 46 50 53 51
87 84 68 65 92 82 77 74 64 49 59 70 79 78 72 72 74 78 75 82 74 72 74 79 72 71 78 76 61 39 43 45 44 44 48 49 50 45 51 54 55 62 61 59
92 90 65 74 93 95 80 71 69 67 59 74 88 84 64 73 75 75 79 76 76 76 72 77 79 77 79 86 57 52 50 47 49 47 50 46 54 57 55 63 66 65 62 58
100 84 72 87 100 88 77 80 80 74 67 86 84 83 78 76 79 77 81 75 84 75 79 77 78 75 95 69 57 55 55 58 54 55 57 57 62 59 61 63 66 65 62 60
99 84 96 98 84 80 81 79 78 81 80 81 86 79 78 77 82 82 81 81 78 91 72 79 89 80 63 57 56 56 54 56 57 64 69 68 72 67 62 66 61 62 62 61
94 98 97 85 85 77 73 84 88 83 89 80 80 80 79 76 82 78 76 88 86 93 81 87 83 81 68 58 57 55 56 55 56 54 55 54 57 63 64 67 66 66 66 64
90 89 84 78 76 84 89 91 84 92 87 80 82 76 72 80 79 76 90 85 90 96 80 95 94 75 62 58 57 57 54 54 53 58 59 61 62 64 67 68 68 70 70 66
97 96 97 97 90 97 100 98 96 94 82 87 88 88 78 89 84 83 82 99 94 77 92 86 70 59 53 49 49 50 61 65 69 68 72 73 70 68 71 71 73 73 73 65
99 100 98 95 97 92 88 83 82 75 80 86 81 88 82 81 86 79 91 75 79 96 99 84 74 61 50 48 48 53 53 67 78 79 72 75 77 74 70 71 69 73 66 62
100 100 96 97 81 84 83 88 78 81 77 78 78 84 73 86 89 84 83 92 97 82 77 72 70 55 48 38 46 47 56 61 64 68 78 81 75 77 73 68 71 70 64 60
100 100 100 90 89 89 90 90 83 84 79 78 77 81 85 83 82 93 93 82 81 74 85 72 57 46 42 42 44 47 53 57 59 60 62 64 70 72 70 64 70 69 63 59
99 98 95 86 86 84 77 69 68 79 77 84 85 90 78 85 86 89 78 84 75 80 78 73 64 52 44 48 47 48 55 62 65 65 64 63 62 64 70 75 68 68 63 57

GFSNW_925_rhum_105.txt.gz
RH
54 47 48 50 49 38 55 46 82 54 71 70 60 82 65 64 55 50 49 45 47 47 51 53 51 52 52 49 54 56 54 56 65 51 46 46 48 50 43 59 61 54 54 52
62 48 46 46 47 50 61 43 49 47 47 79 68 52 57 53 51 54 49 52 50 51 52 53 49 51 48 50 56 54 52 59 69 52 48 46 54 45 44 45 53 63 56 42
64 51 44 43 43 44 59 44 85 50 48 57 48 50 53 56 52 49 46 48 45 46 46 45 50 50 54 52 54 65 57 53 56 55 44 43 45 44 45 50 66 45 41 31
66 56 45 40 40 43 57 48 63 60 61 47 46 47 50 52 55 45 42 43 47 47 41 41 43 45 46 56 62 56 53 62 58 50 41 39 42 44 41 56 54 50 30 36
66 62 51 41 36 43 54 45 48 51 45 49 41 44 51 52 54 49 44 42 43 38 41 45 44 44 39 38 45 47 50 64 55 76 40 44 49 41 40 40 40 42 39 40
66 62 61 49 39 44 52 62 54 45 57 42 38 40 46 51 54 52 46 46 45 41 45 45 42 42 42 42 42 43 48 56 61 59 38 37 38 30 34 36 33 34 39 28
74 63 60 57 48 47 60 66 56 41 35 40 41 47 49 47 49 51 45 46 46 47 46 44 52 49 48 46 47 44 47 52 57 76 48 51 26 32 36 31 30 29 32 29
65 76 62 58 52 49 66 70 54 45 34 40 41 47 46 44 44 51 51 43 45 44 45 40 35 40 44 46 49 50 46 48 56 65 41 27 20 29 37 40 26 25 32 29
49 71 76 69 62 51 67 64 62 47 42 35 41 41 46 41 34 36 42 45 48 47 40 37 37 25 30 32 42 45 49 49 54 44 47 24 20 29 33 34 30 20 25 25
65 56 78 75 71 61 60 68 62 61 47 40 41 37 41 46 44 39 41 42 50 48 38 35 31 32 40 34 33 54 55 54 63 55 53 34 23 34 36 33 23 24 29 30
80 50 67 86 80 73 56 63 58 72 52 44 51 47 49 54 48 37 44 46 53 48 46 37 32 38 32 40 28 29 32 40 47 43 47 58 34 44 32 24 27 32 36 35
82 76 46 81 87 85 72 66 56 61 66 53 58 51 51 47 42 45 52 48 44 41 40 38 37 38 36 31 25 31 38 23 22 28 30 27 34 24 27 29 30 33 35 36
84 85 57 57 87 88 85 75 58 75 64 54 62 54 57 62 59 56 46 48 51 55 55 45 42 50 36 36 34 29 29 26 35 28 20 23 23 24 27 33 34 31 34 35
85 84 83 56 82 90 90 90 77 74 66 72 51 57 60 64 68 65 59 58 65 58 56 54 52 48 37 37 31 38 25 35 33 30 26 25 24 24 24 26 28 34 35 36
90 86 85 63 62 78 84 89 87 75 72 72 60 56 67 71 70 69 68 62 57 58 67 69 64 47 54 43 48 53 32 34 37 30 23 22 22 28 34 37 38 38 40 40
91 89 87 74 59 75 86 68 70 62 66 74 73 66 64 73 71 68 66 63 60 60 63 62 55 58 52 57 47 31 32 29 26 26 30 28 28 34 35 41 38 40 43 42
97 91 91 76 64 85 76 70 68 52 56 63 81 72 68 69 70 70 70 71 65 65 66 68 58 63 69 67 53 26 32 32 33 31 34 43 41 41 43 43 44 50 52 47
100 96 94 74 73 85 87 87 79 72 70 66 98 88 60 67 68 69 67 70 70 69 67 68 72 66 72 78 49 38 32 36 37 37 38 40 40 47 48 48 52 58 59 56
100 100 89 75 98 88 85 80 83 79 74 88 88 91 91 70 70 69 74 68 81 66 79 70 71 68 92 66 55 46 42 48 47 49 46 44 50 49 48 50 54 59 54 55
100 91 83 92 92 85 83 90 79 79 73 76 89 71 83 69 71 74 71 72 77 88 70 70 82 78 56 48 48 46 44 46 49 59 66 66 68 64 51 52 53 55 56 59
90 94 94 87 83 81 71 85 89 79 92 76 77 77 72 65 79 72 67 88 81 92 82 83 78 76 57 47 47 45 42 44 46 48 49 51 52 52 51 55 58 61 63 67
89 89 89 80 82 89 97 94 84 92 86 71 77 71 65 68 67 70 80 86 85 94 77 87 91 70 56 51 52 46 45 47 52 51 53 47 50 51 57 60 63 66 66 65
94 94 100 100 92 100 96 96 93 90 78 82 78 84 65 74 75 72 78 94 91 69 84 79 70 57 48 41 41 46 54 55 56 59 61 63 64 63 64 68 68 68 69 68
99 100 100 99 97 92 84 76 83 73 76 81 73 80 74 67 81 69 92 68 70 87 97 78 67 56 51 42 45 45 39 60 77 81 70 73 85 78 68 67 66 67 68 67
100 100 98 97 81 84 85 95 82 77 68 74 77 80 65 83 86 74 82 83 93 76 73 73 74 55 48 40 39 42 44 50 58 63 78 84 79 79 73 64 64 70 69 65
100 100 99 92 95 97 89 89 87 80 73 73 76 86 86 84 82 86 88 76 78 78 88 75 57 48 43 40 39 42 41 50 54 54 55 62 70 72 70 63 62 68 69 64
100 99 90 84 80 77 73 65 60 68 76 86 88 96 86 82 83 81 69 80 81 86 81 74 59 56 52 46 43 44 47 50 57 57 57 57 57 63 68 74 59 60 65 66

GFSNW_925_rhum_108.txt.gz
RH
54 44 40 37 40 42 56 55 95 63 62 86 68 93 62 64 52 47 47 46 50 51 46 47 51 56 56 51 52 54 58 66 81 65 52 47 50 57 54 76 78 73 66 76
58 47 39 37 34 38 48 58 60 50 62 93 83 56 57 53 50 52 48 52 49 48 50 57 50 53 48 51 54 65 57 68 85 59 53 47 57 53 53 47 67 81 81 68
61 50 41 37 38 36 52 58 91 69 58 60 51 53 52 57 52 47 43 46 44 44 45 42 52 55 55 53 54 61 61 60 68 82 55 45 54 50 52 56 90 73 66 52
68 56 44 37 41 48 54 61 74 65 85 56 49 46 48 50 53 43 41 43 44 45 42 40 46 44 55 58 65 60 59 72 61 62 56 52 51 49 50 61 61 69 45 46
68 61 52 39 38 49 51 66 63 58 49 46 52 44 51 51 51 52 43 42 41 39 42 47 44 42 41 40 57 54 56 75 62 86 54 49 57 50 46 45 49 55 54 55
71 66 61 50 37 46 51 54 50 53 53 43 44 50 50 52 56 51 46 50 50 41 54 52 52 52 49 46 43 50 52 68 76 81 55 58 62 43 43 45 42 43 54 42
55 68 64 59 47 52 62 65 59 57 47 42 47 44 47 46 48 60 45 45 48 55 45 47 49 57 53 51 50 49 53 58 70 92 71 73 37 33 39 38 36 39 36 34
47 68 63 64 59 51 64 68 70 58 55 41 43 45 43 42 46 53 50 43 48 47 50 56 47 54 50 53 52 54 54 59 78 89 72 49 30 40 39 43 36 34 33 33
71 53 75 63 61 56 68 62 62 66 60 45 37 42 40 48 37 48 48 47 46 51 54 47 46 39 33 46 58 44 52 57 74 65 63 52 28 31 32 33 41 29 28 32
79 56 66 80 64 58 57 72 61 76 69 46 39 46 48 46 50 50 44 45 60 50 56 55 47 52 41 46 40 71 75 76 87 86 78 60 32 37 36 31 30 26 29 30
80 78 49 76 80 64 55 69 57 71 82 66 48 45 50 56 56 47 54 59 64 61 62 48 46 51 44 45 34 48 61 73 78 70 69 73 42 45 37 31 32 33 37 35
84 82 71 49 78 80 70 66 61 57 77 72 56 49 46 52 57 61 54 60 48 53 58 54 48 54 45 42 45 31 43 34 39 50 56 37 45 36 39 33 36 36 36 42
87 82 81 61 61 68 81 81 72 74 81 75 70 63 56 53 52 55 69 60 62 59 70 70 61 67 51 55 51 34 33 30 45 34 26 24 35 39 38 38 42 38 38 43
92 87 84 82 56 63 70 94 88 77 74 89 67 56 59 59 60 62 62 62 61 61 69 73 74 67 47 54 47 44 39 36 42 44 32 29 26 26 30 32 35 37 37 42
98 92 88 83 69 56 73 97 98 86 81 91 84 56 69 67 67 67 66 65 67 72 80 87 85 67 60 64 65 57 41 34 43 34 31 31 30 30 34 37 39 44 44 48
100 97 87 86 77 56 82 90 76 61 70 90 96 70 64 71 70 68 67 68 73 76 79 84 76 66 64 82 76 47 44 32 29 33 30 31 33 34 38 42 44 44 47 52
100 100 91 88 79 61 84 89 76 60 62 83 92 94 71 69 70 72 76 71 79 81 84 87 78 78 76 91 68 38 37 38 37 33 32 42 41 44 45 46 46 49 55 57
100 100 97 92 79 72 85 87 84 86 75 74 98 97 77 69 81 85 73 84 82 87 89 82 83 81 88 97 66 56 47 41 44 42 42 43 45 46 48 49 56 60 68 67
99 100 99 84 89 88 90 81 81 84 82 100 100 99 96 76 81 82 84 80 86 80 92 86 86 90 97 78 68 62 57 53 54 50 55 53 52 56 56 57 61 68 70 68
100 97 82 85 90 83 84 89 90 93 91 92 99 91 96 84 83 86 84 85 86 84 84 82 91 88 68 59 56 53 56 57 55 58 63 60 67 69 64 62 60 63 66 68
95 91 93 88 81 82 83 94 92 91 98 91 92 92 93 78 93 92 82 97 85 91 93 94 93 92 75 54 56 52 56 56 57 58 60 55 59 65 64 60 58 66 67 72
94 89 86 80 86 99 98 98 96 94 89 88 91 86 85 82 81 90 88 96 91 94 91 90 94 83 65 57 56 58 54 50 53 57 60 60 58 57 62 65 68 68 67 68
91 94 100 99 98 100 98 96 93 92 93 93 90 93 83 84 86 89 90 99 92 78 95 93 86 75 62 62 48 46 48 55 60 61 60 63 67 65 63 70 66 66 69 69
100 100 98 98 98 96 91 90 94 92 94 94 89 92 89 80 90 83 100 82 78 95 94 90 88 72 65 59 51 54 47 48 73 84 79 74 86 82 71 67 65 65 68 66
100 100 98 95 89 95 96 99 92 91 84 89 90 95 83 95 98 88 92 90 95 92 88 88 88 66 58 48 41 42 45 49 57 60 74 87 78 84 76 63 64 64 64 67
100 99 98 95 99 97 97 96 97 92 86 90 94 92 96 95 95 98 95 92 90 80 89 87 78 58 54 50 44 42 44 45 53 56 56 59 65 74 71 64 64 64 64 67
100 98 91 92 94 94 95 91 86 77 90 96 98 99 91 97 98 97 87 90 82 88 91 91 72 61 59 57 52 47 45 46 47 51 52 54 53 58 63 77 56 58 53 58

GFSNW_925_rhum_111.txt.gz
RH
55 48 45 50 41 47 54 73 79 64 66 85 89 91 69 61 55 51 51 54 60 54 49 50 64 68 63 54 60 65 61 72 93 74 61 57 63 68 68 85 83 74 82 78
56 49 40 44 46 44 55 72 74 73 78 87 91 62 59 59 58 54 54 56 52 50 54 63 57 64 54 55 58 66 62 77 89 73 61 53 60 62 61 59 73 81 89 75
51 50 41 38 51 47 55 79 78 83 74 76 58 60 57 61 52 50 46 48 50 50 49 46 59 67 58 56 59 59 63 74 74 80 62 59 69 62 64 66 94 78 84 70
53 48 45 36 46 47 50 76 77 70 82 60 62 53 55 54 61 50 43 45 48 50 48 46 52 55 60 60 68 62 68 81 69 68 68 65 64 59 58 76 64 75 56 59
62 50 47 39 39 46 47 73 73 72 62 53 50 52 55 60 56 56 51 51 48 44 52 54 58 52 50 62 68 63 65 74 71 84 63 66 72 64 58 54 59 59 56 56
63 60 49 43 37 43 57 60 55 65 60 55 54 58 57 58 56 53 48 52 54 50 56 54 54 59 60 55 61 66 72 78 80 74 71 69 53 52 52 52 52 50 64 48
48 68 56 50 45 52 66 68 71 72 57 53 54 47 49 48 50 59 51 47 52 52 50 54 56 61 66 62 60 57 62 65 80 90 75 58 27 32 39 47 43 42 43 44
51 58 68 55 52 55 54 62 80 75 70 52 49 48 48 45 48 55 53 48 52 55 54 60 53 63 56 60 60 62 62 70 79 86 85 56 35 41 38 42 32 40 41 37
74 47 66 69 57 54 63 56 60 83 69 53 38 47 45 58 54 56 51 48 50 54 66 58 51 48 37 53 63 50 58 66 80 82 74 60 26 29 34 30 31 26 40 40
75 71 42 62 68 61 61 59 57 78 84 71 43 50 56 54 56 58 50 51 61 56 70 64 57 59 41 40 48 74 80 80 90 92 92 76 48 33 36 20 14 27 30 33
82 76 68 46 62 68 59 68 57 63 87 83 50 46 53 60 61 53 52 50 64 73 65 62 58 56 49 48 45 70 75 89 94 89 93 81 43 44 32 24 34 30 34 34
84 81 75 62 52 56 70 67 68 64 75 67 64 55 50 48 50 66 62 53 61 68 70 65 64 55 58 54 44 37 49 53 66 69 66 41 48 35 40 34 33 34 36 40
86 85 79 78 56 52 61 82 82 75 90 85 78 66 58 58 56 53 59 70 61 68 74 79 72 71 66 62 64 42 34 37 41 33 29 33 31 37 44 41 40 39 40 41
99 90 84 77 77 52 58 84 95 84 88 92 76 60 58 58 56 59 62 65 65 70 81 79 82 76 62 66 51 54 46 38 43 46 33 32 30 31 32 35 43 46 45 41
97 100 95 85 80 64 60 93 97 90 83 87 90 70 68 65 64 66 66 66 74 83 82 85 90 85 69 72 76 59 48 39 46 39 26 31 31 32 33 33 35 38 40 42
98 99 97 92 84 74 78 92 65 67 76 90 95 75 70 70 70 70 71 74 80 86 88 90 89 74 68 89 91 63 52 41 35 33 30 35 36 34 36 36 40 42 45 50
99 99 99 94 88 79 70 90 77 74 69 88 93 91 77 71 73 80 84 78 87 87 87 92 88 82 78 92 94 45 47 46 46 45 43 44 42 43 42 45 44 48 52 57
95 99 100 97 90 82 90 86 79 83 80 82 99 96 85 72 87 89 86 90 88 89 91 89 86 85 89 97 74 70 65 63 61 56 52 47 45 46 48 49 56 56 62 66
97 99 100 94 84 90 90 83 79 86 82 97 99 100 91 77 86 88 88 87 93 85 96 91 89 92 98 82 75 72 68 69 64 61 57 55 57 60 59 59 61 66 68 68
100 99 88 89 90 85 86 91 91 94 93 96 99 95 95 87 88 90 92 90 84 96 87 85 92 90 72 64 60 60 62 65 68 79 66 58 61 64 63 64 65 65 67 69
96 91 95 89 82 82 87 94 91 94 99 96 95 96 93 82 90 92 87 97 88 89 84 94 91 95 80 64 67 60 60 61 61 67 67 68 67 69 69 69 63 67 68 73
92 89 86 82 88 99 99 98 97 97 85 91 95 90 91 86 85 90 88 94 86 95 93 92 94 84 68 70 66 63 58 60 56 53 58 62 65 65 67 68 70 68 67 69
93 91 100 99 98 99 99 98 95 96 95 95 92 90 85 84 87 91 93 96 94 84 97 95 88 72 67 69 65 58 57 54 60 63 65 71 71 69 70 73 66 66 70 68
98 97 89 97 97 94 93 92 92 89 96 94 91 94 92 89 94 90 100 85 84 98 99 88 87 69 68 62 57 49 42 46 64 79 72 75 81 81 73 70 68 69 69 63
100 100 94 92 86 96 97 98 92 90 90 90 91 94 88 96 99 97 96 96 99 94 86 85 81 66 66 57 54 45 42 43 46 52 68 80 72 82 77 62 62 65 66 65
96 100 96 93 91 93 98 96 96 93 89 93 95 94 96 97 97 98 100 97 95 77 89 87 77 61 60 56 58 55 48 44 44 43 50 54 59 65 61 52 56 58 61 63
95 95 90 93 98 93 97 92 87 85 88 91 98 99 92 93 99 99 92 92 77 78 84 93 75 69 65 64 66 64 56 52 45 41 40 50 48 52 66 76 49 49 48 50

GFSNW_925_rhum_114.txt.gz
RH
49 44 41 53 46 48 57 76 80 74 74 84 91 91 68 57 56 53 54 56 58 56 58 60 72 71 64 56 59 67 63 77 97 84 64 65 68 78 74 86 78 82 83 79
51 44 39 45 58 54 58 76 78 80 89 86 91 64 60 58 60 56 55 60 56 51 57 63 63 66 58 57 61 65 62 76 89 80 64 55 68 69 66 67 75 80 91 73
60 50 39 36 54 53 61 75 76 77 79 78 63 61 61 59 52 51 48 50 50 52 50 53 62 67 59 57 64 63 61 78 73 74 58 68 72 70 72 69 90 80 80 71
60 54 42 31 42 48 56 74 75 72 77 60 59 56 56 57 61 54 46 48 48 51 51 49 56 63 63 62 66 64 70 83 76 76 74 71 70 65 69 80 69 70 51 70
61 57 49 35 31 44 47 72 68 78 66 59 50 58 58 59 59 55 53 50 53 47 50 50 57 52 64 69 72 72 72 70 74 83 65 70 79 70 66 63 67 67 60 59
44 59 55 48 34 33 58 68 61 59 58 59 56 57 57 58 59 54 50 52 56 54 51 54 51 57 63 58 68 75 75 80 80 77 66 72 54 53 60 61 60 52 66 50
37 54 58 55 51 42 52 70 77 71 56 59 55 51 50 54 53 56 53 50 54 52 52 53 59 64 66 68 66 62 71 70 84 90 73 46 24 34 40 51 46 46 45 40
68 39 59 58 56 55 47 62 72 77 64 61 51 50 49 48 50 52 50 50 51 57 53 57 51 59 55 62 65 68 65 75 82 88 89 57 26 42 48 45 38 41 42 38
76 62 40 61 59 56 55 58 68 78 63 42 46 50 48 56 60 57 52 50 54 58 68 60 46 39 40 53 68 56 74 72 78 85 81 51 21 28 35 26 25 18 43 44
83 75 58 45 59 60 57 57 57 76 80 73 46 49 51 58 60 58 58 52 61 55 73 64 61 60 41 47 56 77 82 85 93 93 95 81 53 36 33 24 14 26 32 39
85 82 74 56 48 54 61 67 64 60 84 77 59 47 56 62 65 51 45 51 60 78 67 65 60 61 52 51 48 72 80 92 97 92 97 80 49 44 31 26 31 32 30 32
85 86 81 74 50 42 57 66 74 72 73 64 68 59 57 53 52 61 68 48 64 64 71 74 70 61 66 59 42 53 55 52 69 73 68 46 47 37 35 36 33 29 34 37
86 85 85 80 77 51 47 66 84 79 89 79 74 69 60 59 59 59 65 68 67 71 72 77 74 70 67 64 68 45 39 47 51 42 36 41 40 39 42 43 44 40 41 42
90 90 88 85 78 72 58 82 96 88 91 88 67 62 62 61 59 58 60 63 70 75 82 76 78 75 62 65 53 55 45 42 46 50 36 31 29 30 32 35 40 46 48 46
99 94 93 87 85 78 65 83 73 84 75 75 84 76 69 66 64 66 67 68 78 84 81 87 87 88 80 81 82 90 60 50 54 43 31 34 33 31 34 36 32 35 41 41
96 100 100 95 92 82 80 91 60 71 76 85 84 78 72 71 70 72 74 76 83 86 86 89 90 81 73 90 93 67 60 52 44 41 46 45 43 44 39 41 40 41 46 52
94 98 98 98 97 87 70 81 78 80 77 87 88 89 78 73 76 84 86 82 90 88 89 94 90 85 82 92 97 57 54 60 61 59 62 55 50 50 45 48 46 45 49 54
85 93 100 100 99 90 91 87 80 85 85 83 97 91 86 73 89 88 90 91 90 89 91 90 92 83 91 98 78 73 67 64 64 64 63 63 59 62 57 51 58 57 63 65
98 99 99 100 89 87 90 84 78 85 83 98 99 100 91 78 88 90 88 90 90 86 96 94 89 92 98 82 78 72 66 70 66 67 67 70 76 67 66 65 65 67 70 69
100 99 92 94 93 88 85 88 89 93 94 96 99 97 98 86 90 91 92 92 86 86 90 84 96 94 76 67 63 64 64 64 69 70 69 78 78 78 73 69 70 72 71 72
91 93 96 94 87 82 87 96 93 94 99 97 95 97 95 86 89 90 89 97 91 96 91 94 90 94 79 63 67 68 65 63 66 64 69 68 75 83 83 78 72 73 72 74
93 90 87 83 88 100 99 98 98 98 90 90 97 92 92 88 87 91 90 91 88 95 92 93 95 84 68 63 65 58 58 58 57 53 60 64 73 72 78 77 73 69 66 67
90 85 100 100 97 100 100 100 94 95 96 96 94 90 86 86 87 91 94 98 95 86 99 98 86 68 62 62 64 55 50 46 52 56 57 61 68 66 69 74 67 66 67 64
99 100 97 95 95 83 92 93 92 89 96 96 91 96 93 91 94 91 98 89 88 100 98 85 85 64 57 67 58 54 50 47 52 59 53 64 69 72 65 65 60 65 71 61
99 100 93 82 80 96 97 98 93 91 90 92 94 94 89 97 98 97 97 99 97 98 89 86 83 60 62 57 56 58 61 57 53 46 58 56 53 64 65 53 60 64 64 65
95 98 99 92 98 86 99 97 96 94 90 94 94 96 97 97 98 98 95 97 99 84 90 90 79 65 67 56 63 62 62 63 59 54 49 45 47 53 51 45 48 52 63 67
91 98 87 93 98 93 95 94 85 86 89 89 97 99 91 96 98 96 94 94 87 85 76 94 79 73 64 71 76 72 67 66 63 61 57 56 51 52 60 75 48 46 52 50

GFSNW_925_rhum_117.txt.gz
RH
57 49 43 54 52 47 53 76 78 80 76 83 91 91 67 57 58 56 57 59 57 60 59 62 73 68 66 57 59 69 66 80 96 82 65 67 70 78 77 86 76 86 84 77
52 51 46 51 60 55 61 79 80 81 87 85 91 66 60 57 58 56 55 60 56 53 59 67 67 68 62 60 65 68 63 75 88 74 67 66 76 76 72 71 78 84 90 60
56 50 44 52 55 58 61 72 75 74 81 79 66 63 62 59 54 51 49 51 51 50 53 59 67 68 61 61 67 63 59 79 69 65 49 69 79 74 75 72 92 83 84 72
59 53 44 44 52 53 55 76 75 74 75 63 62 58 56 60 58 52 49 48 49 52 52 53 65 67 67 65 66 67 69 74 82 79 78 71 70 69 77 83 70 76 56 69
51 56 48 41 55 60 50 69 64 76 70 64 52 58 58 58 60 54 52 48 52 48 51 51 59 61 64 64 74 70 76 70 74 86 68 80 82 77 74 72 74 73 69 70
40 57 53 43 42 54 62 75 68 54 63 63 57 56 55 55 58 54 51 52 55 56 51 52 52 57 63 60 77 79 80 82 80 78 62 72 56 62 58 63 67 59 72 51
53 39 57 51 43 45 64 78 70 66 51 62 57 51 51 54 55 58 55 51 54 50 53 55 61 65 65 66 65 67 79 72 85 91 71 37 22 37 48 56 51 53 48 41
68 43 40 56 52 47 48 69 75 71 58 60 53 53 49 50 53 53 50 51 53 59 54 57 49 58 60 67 68 73 68 76 82 88 89 51 21 41 50 46 29 43 47 43
75 68 37 39 54 50 48 55 71 77 52 42 43 55 51 56 59 55 55 53 58 60 67 58 41 34 40 61 71 78 78 75 77 86 79 38 17 28 36 30 24 15 42 45
82 74 70 39 36 52 51 61 60 76 73 64 50 50 53 61 64 57 58 54 63 54 71 60 58 59 42 51 62 84 87 89 93 92 93 80 54 38 33 23 14 22 34 33
87 82 75 68 43 35 52 66 66 63 80 72 65 50 60 68 66 50 43 50 58 77 64 63 61 60 54 52 47 72 83 94 98 92 98 71 51 45 29 24 25 32 30 29
92 88 84 75 68 42 38 61 73 72 74 66 68 65 65 59 50 58 71 46 64 67 70 76 70 62 73 60 41 59 55 56 69 76 67 45 46 42 34 38 39 40 35 39
93 95 92 86 77 70 50 63 77 77 87 75 67 72 62 61 61 62 64 70 67 74 68 74 75 63 67 61 67 46 45 50 54 44 30 49 44 45 45 41 41 37 46 48
91 91 94 89 87 79 68 75 81 83 90 85 65 64 64 64 61 61 64 63 73 78 82 76 77 70 61 64 55 55 44 46 47 54 40 33 28 31 33 36 41 42 42 48
94 96 90 91 89 85 74 60 67 84 71 76 78 75 69 68 66 66 67 70 78 83 82 87 87 85 84 85 84 89 61 49 50 49 42 42 43 39 46 48 47 43 44 44
86 98 98 93 93 87 78 89 59 67 67 82 85 76 73 74 73 74 77 79 87 87 83 86 88 82 77 90 92 66 63 56 54 55 54 59 56 54 49 50 53 48 49 50
79 97 94 96 92 91 77 81 76 80 81 88 88 90 78 73 78 86 88 85 92 88 89 93 92 87 86 92 97 61 54 59 66 66 68 60 57 59 58 62 60 55 54 55
76 89 92 99 99 96 92 88 82 84 84 86 96 90 88 74 89 89 92 92 91 90 92 92 94 86 92 98 78 70 66 65 61 62 61 68 66 70 72 68 65 66 67 66
92 98 95 100 92 88 91 84 79 84 83 99 96 100 92 81 92 91 90 90 94 90 93 94 90 92 98 81 77 72 67 68 68 66 69 68 72 69 69 75 72 72 73 71
99 97 97 96 92 89 88 84 86 93 94 96 98 98 97 87 91 92 93 92 94 97 89 88 98 93 74 68 66 70 69 68 69 71 58 59 62 60 66 76 80 82 82 80
94 93 96 93 86 84 87 96 95 92 92 96 95 98 96 87 90 92 91 97 93 91 92 96 94 93 76 62 61 62 62 62 61 67 69 70 70 70 76 76 77 75 72 76
85 83 86 83 87 99 99 99 98 99 93 94 98 95 93 90 89 91 93 93 87 94 92 96 93 85 67 60 56 53 53 47 47 44 53 54 61 65 79 82 79 71 64 64
83 78 98 95 94 99 99 97 96 97 94 96 97 93 89 89 88 92 94 97 94 86 96 97 88 70 62 59 63 56 52 48 52 53 50 48 51 49 58 68 59 62 65 61
98 88 100 92 94 90 91 93 91 88 96 96 91 96 95 93 94 91 98 93 91 94 99 88 86 68 54 60 59 59 58 61 66 68 57 59 59 59 50 53 47 53 70 57
93 99 94 96 86 96 94 98 99 94 91 93 94 94 90 98 97 93 97 99 94 96 92 87 86 62 60 65 63 62 66 67 67 60 68 66 61 63 62 49 48 52 53 57
95 99 97 91 94 94 98 95 97 93 90 95 94 98 95 98 99 99 94 95 91 85 91 90 79 65 66 65 72 72 68 69 66 65 66 66 64 65 61 58 58 56 57 60
92 84 91 97 97 94 97 92 88 86 88 90 95 98 95 96 100 97 93 95 88 88 88 92 84 86 64 72 71 67 72 74 74 73 72 71 67 67 72 76 61 62 63 62

GFSNW_925_rhum_120.txt.gz
RH
56 54 44 47 66 52 56 74 77 83 80 83 91 91 68 58 59 58 60 59 57 61 60 67 74 68 66 59 60 70 67 80 96 79 66 68 71 75 77 83 74 88 87 75
58 54 48 45 54 59 64 81 82 77 74 84 91 67 61 58 58 56 57 60 55 55 62 72 72 72 64 63 64 70 65 76 88 72 68 73 80 79 73 73 79 86 87 48
60 55 46 41 46 57 66 73 74 73 82 81 67 64 63 60 55 52 51 53 51 50 57 62 74 73 64 64 68 66 59 78 66 60 46 74 86 80 78 72 93 82 86 72
56 57 50 40 49 54 65 77 77 74 75 66 65 62 59 62 60 54 54 48 51 52 56 55 69 69 71 69 68 71 64 64 84 78 76 72 72 73 86 85 73 80 64 78
41 57 51 45 51 61 53 66 70 77 71 66 52 58 63 57 59 57 51 47 54 52 52 49 54 65 65 62 77 71 78 66 75 85 67 80 87 80 79 82 78 79 74 76
43 45 54 47 46 58 61 77 70 51 66 65 55 55 58 56 58 56 54 53 54 54 54 54 58 61 68 61 76 79 77 80 80 74 64 74 58 69 75 74 75 67 74 52
66 37 49 51 46 46 55 75 72 65 49 68 59 55 55 61 60 55 56 53 53 50 57 59 59 67 67 65 68 72 83 75 86 91 70 30 19 36 48 62 56 61 54 46
73 60 37 47 52 47 50 68 68 70 49 67 56 55 51 54 55 55 49 51 56 59 53 56 48 56 64 76 71 73 70 77 84 87 87 45 24 46 53 46 25 48 54 50
82 73 55 34 44 51 48 59 72 69 52 35 49 55 53 56 58 57 57 57 61 59 66 56 38 32 41 68 74 83 80 78 77 88 74 27 14 28 38 35 19 16 44 38
86 82 73 57 36 43 53 63 64 70 64 58 50 51 54 62 62 55 59 58 65 54 66 55 54 55 44 51 67 92 90 88 93 91 91 76 50 39 38 21 17 24 34 35
90 86 81 74 59 39 52 62 64 66 73 67 68 54 64 72 65 48 47 52 57 76 61 60 62 61 58 55 49 80 86 96 96 89 97 61 51 44 30 24 32 34 39 39
94 92 87 82 75 67 48 54 66 68 74 61 70 70 68 60 51 59 70 46 61 67 66 75 70 64 77 60 39 63 59 60 73 78 67 46 44 43 35 42 47 47 48 43
95 94 94 88 84 78 70 67 77 79 82 70 66 76 66 65 64 64 64 74 70 74 70 75 74 61 64 59 64 47 47 55 57 46 33 46 44 45 46 43 39 43 45 48
96 98 94 90 86 86 75 63 70 82 87 76 64 67 67 66 62 63 66 64 77 79 83 78 75 65 60 63 56 56 46 53 50 54 41 44 31 38 41 43 52 57 54 54
91 99 96 92 84 86 80 56 74 75 77 79 79 75 71 70 68 67 68 72 78 82 78 84 82 81 81 88 84 88 64 50 53 54 46 53 58 56 59 66 61 60 64 62
82 99 94 90 84 83 80 86 60 74 72 81 89 79 76 76 75 77 81 81 87 86 81 83 84 81 78 90 88 63 64 57 55 59 56 67 64 64 57 65 64 68 72 69
70 89 93 89 86 90 83 86 80 81 82 88 89 92 80 75 80 88 89 86 94 88 89 92 92 88 89 91 94 62 57 57 64 67 69 63 58 65 64 66 64 68 67 64
76 89 88 86 88 93 94 87 82 84 82 86 95 91 87 76 89 90 93 93 91 92 92 92 94 88 93 98 77 70 66 65 61 67 64 66 65 69 59 58 67 74 72 72
87 98 94 95 91 91 91 85 80 83 84 98 94 98 89 83 94 93 91 91 93 92 93 94 91 92 98 80 74 67 65 70 72 72 61 58 65 64 64 66 71 78 74 76
100 97 94 93 93 90 84 84 86 93 94 96 96 97 99 87 92 94 94 93 96 98 90 91 99 96 79 73 70 72 71 65 64 56 55 56 60 60 58 64 72 81 80 78
99 98 97 96 89 84 87 98 94 92 93 96 94 96 98 88 92 93 92 95 93 87 90 94 92 96 79 65 59 58 56 51 54 62 62 65 68 68 66 64 66 71 71 73
84 84 87 86 88 97 96 97 97 99 83 93 99 96 95 93 91 92 95 96 88 97 91 89 93 86 70 64 49 48 52 48 50 47 52 53 55 57 64 67 65 60 58 62
81 80 99 91 93 96 97 95 92 98 90 97 99 96 91 90 87 94 94 96 91 88 94 94 90 73 64 60 59 58 56 59 61 65 60 60 60 59 62 65 57 58 61 56
93 94 100 93 96 96 93 93 93 91 97 98 92 97 96 93 94 91 98 92 92 94 99 94 90 72 61 62 66 65 65 66 75 72 64 68 69 70 64 61 57 60 64 57
93 96 96 98 88 96 95 97 99 96 94 94 95 95 90 98 97 88 92 99 94 92 94 90 87 63 63 65 69 64 70 70 73 63 68 70 72 74 72 66 62 64 68 70
93 98 94 91 93 95 98 98 97 95 91 95 92 97 94 100 95 97 87 87 88 86 91 91 80 70 68 70 70 71 67 69 73 74 69 70 74 75 72 72 75 70 70 73
97 93 92 92 93 95 97 91 91 89 96 95 96 97 91 95 97 98 94 93 86 89 90 89 79 81 80 84 72 60 61 67 64 69 74 75 72 76 83 85 69 70 72 74

GFSNW_925_rhum_123.txt.gz
RH
62 57 47 47 62 59 67 75 74 79 76 82 92 92 70 59 62 60 62 60 57 63 65 72 74 70 66 60 63 72 70 77 95 74 69 69 71 76 74 71 75 84 80 61
59 57 50 46 52 64 64 81 82 74 74 83 92 68 62 61 59 58 60 61 57 57 65 74 74 75 68 64 63 71 68 79 87 74 67 76 83 81 73 72 76 87 74 37
52 54 50 42 55 57 62 71 71 72 84 82 69 63 66 61 57 55 52 55 52 51 61 68 77 78 70 67 70 67 60 77 62 59 46 78 92 86 78 72 88 79 80 64
41 54 50 43 59 58 57 79 78 74 74 67 68 63 62 60 59 55 54 52 54 53 59 58 72 72 75 74 72 71 61 62 80 74 70 68 72 77 88 82 73 74 62 75
43 48 54 47 57 70 54 63 67 77 75 68 56 57 59 57 62 54 50 52 55 52 54 49 62 70 69 63 77 73 78 67 74 85 68 78 81 78 80 83 78 79 71 73
65 38 51 51 47 67 62 78 73 52 70 67 55 52 57 55 56 56 52 52 54 53 54 54 60 63 70 64 77 79 76 78 78 63 70 69 51 64 76 78 78 70 79 54
73 55 38 52 46 48 57 72 69 63 47 69 60 51 56 57 59 53 59 53 46 58 65 64 61 74 74 72 80 73 81 75 84 90 60 31 20 42 56 64 61 70 63 55
81 73 45 37 51 45 50 69 67 65 45 64 55 56 53 55 55 56 51 56 60 60 52 54 48 60 66 81 84 73 73 78 86 85 82 44 26 41 49 45 26 46 58 52
84 80 71 44 37 50 50 60 68 65 46 36 47 59 53 57 58 55 61 62 63 57 66 53 37 36 48 79 76 80 80 77 75 89 72 24 14 28 41 38 21 23 49 37
90 85 79 71 48 42 53 62 66 65 57 54 51 55 60 60 60 52 59 63 65 54 64 51 52 54 46 63 75 96 91 90 93 91 91 70 46 39 40 22 21 23 33 40
93 90 86 80 74 59 52 58 60 62 70 62 67 57 63 71 63 47 51 57 60 75 58 56 60 59 59 54 55 83 90 95 96 88 95 57 52 44 31 26 39 39 45 42
94 95 93 88 84 76 63 54 69 70 70 61 73 74 71 65 55 58 71 44 59 66 63 72 67 64 77 59 37 65 58 61 69 74 64 45 46 37 40 44 48 49 47 49
100 98 99 96 88 85 73 68 69 76 79 67 69 76 66 65 64 66 65 76 70 72 70 75 73 59 64 60 62 46 50 58 58 50 49 47 43 42 45 42 47 48 57 63
99 98 97 90 87 86 79 59 71 78 84 72 67 70 69 67 64 63 66 64 77 78 80 76 73 62 60 58 55 56 45 57 54 54 41 47 40 46 60 62 63 65 64 67
96 100 96 91 88 81 85 60 70 73 73 76 80 77 73 73 68 68 70 73 79 83 79 82 78 82 77 88 84 88 62 50 49 52 46 56 59 58 63 64 59 57 71 74
77 89 89 88 88 82 84 84 65 80 79 83 90 80 77 78 77 78 82 82 88 86 80 83 86 80 78 87 83 63 68 59 57 60 55 63 64 68 62 67 62 60 68 72
75 72 92 89 87 83 85 88 80 89 83 86 88 92 81 78 81 89 90 87 94 88 88 90 91 88 89 91 93 65 64 60 63 64 61 45 52 54 64 66 58 60 67 65
71 85 87 87 82 86 94 89 82 80 79 85 94 90 86 78 88 90 94 93 92 92 92 95 94 90 94 99 81 72 64 62 66 62 65 64 65 66 58 54 59 69 65 67
76 89 89 88 88 90 91 85 82 83 80 94 92 98 88 84 96 93 92 91 93 94 95 94 91 93 98 83 75 65 63 58 56 65 56 52 56 62 63 62 63 69 65 69
92 88 93 94 94 91 85 82 85 93 95 96 93 97 97 87 93 95 94 93 97 99 91 93 97 95 80 74 73 71 68 58 56 48 55 54 64 66 66 66 69 74 76 72
98 99 98 97 90 82 88 97 93 92 93 96 96 95 97 89 92 94 92 96 95 92 90 94 87 95 80 68 60 60 52 45 45 51 56 60 67 72 70 70 67 66 64 68
81 83 87 86 87 96 96 98 96 96 92 94 98 97 96 93 92 94 96 96 92 93 93 94 90 85 70 63 52 51 54 50 52 51 58 58 60 62 68 72 69 65 62 61
80 84 97 91 98 99 98 89 89 88 93 98 99 99 94 93 90 96 95 97 94 90 96 90 91 75 67 62 61 57 55 58 61 61 56 54 58 55 64 70 65 65 68 62
93 93 99 90 98 96 93 91 91 91 96 98 92 98 96 94 96 93 97 90 88 96 96 95 90 72 64 63 68 70 66 67 72 71 62 64 66 70 67 64 65 70 76 71
98 94 93 99 89 96 94 96 97 97 94 95 95 97 91 99 98 87 91 98 96 88 93 91 86 68 64 64 65 71 74 75 78 67 70 69 68 74 77 71 69 72 77 78
94 97 95 90 93 96 99 100 97 96 94 96 96 96 94 100 94 96 88 88 86 86 93 92 80 72 72 74 73 73 67 69 70 67 68 72 81 80 70 72 76 77 74 78
96 96 91 94 96 95 95 92 93 95 99 98 98 97 92 94 97 98 95 89 88 90 92 93 76 72 74 78 78 78 74 72 73 73 73 71 66 68 81 84 72 74 77 80